[[{"header":{"parameterUnit":"m.s-1","parameterCategory":1,"la1":30.6,"la2":28.766,"lo1":-90.7593,"lo2":-88.6598,"dy":0.0162,"dx":0.0183,"nx":116,"ny":114,"refTime":"2023-05-06T12:00:00:Z","depth":0,"parameterNumber":2,"parameterNumberName":"U-component_of_WINDS"},"data":[0.0,0.0,0.0,0.0,0.0,0.0,0.0,0.0,0.0,0.0,0.0,0.0,0.0,0.0,0.0,0.0,0.0,0.0,0.0,0.0,0.0,0.0,0.0,0.0,0.0,0.0,0.0,0.0,0.0,0.0,0.0,0.0,0.0,0.0,0.0,0.0,0.0,0.0,0.0,0.0,0.0,0.0,0.0,0.0,0.0,0.0,0.0,0.0,0.0,0.0,0.0,0.0,0.0,0.0,0.0,0.0,0.0,0.0,0.0,0.0,0.0,0.0,0.0,0.0,0.0,0.0,0.0,0.0,0.0,0.0,0.0,0.0,0.0,0.0,0.0,0.0,0.0,0.0,0.0,0.0,0.0,0.0,0.0,0.0,0.0,0.0,0.0,0.0,0.0,0.0,0.0,0.0,0.0,0.0,0.0,0.0,0.0,0.0,0.0,0.0,0.0,0.0,0.0,0.0,0.0,0.0,0.0,0.0,0.0,0.0,0.0,0.0,0.0,0.0,0.0,0.0,0.0,0.0,0.0,0.0,0.0,0.0,0.0,0.0,0.0,0.0,0.0,0.0,0.0,0.0,0.0,0.0,0.0,0.0,0.0,0.0,0.0,0.0,0.0,0.0,0.0,0.0,0.0,0.0,0.0,0.0,0.0,0.0,0.0,0.0,0.0,0.0,0.0,0.0,0.0,0.0,0.0,0.0,0.0,0.0,0.0,0.0,0.0,0.0,0.0,0.0,0.0,0.0,0.0,0.0,0.0,0.0,0.0,0.0,0.0,0.0,0.0,0.0,0.0,0.0,0.0,0.0,0.0,0.0,0.0,0.0,0.0,0.0,0.0,0.0,0.0,0.0,0.0,0.0,0.0,0.0,0.0,0.0,0.0,0.0,0.0,0.0,0.0,0.0,0.0,0.0,0.0,0.0,0.0,0.0,0.0,0.0,0.0,0.0,0.0,0.0,0.0,0.0,0.0,0.0,0.0,0.0,0.0,0.0,0.0,0.0,0.0,0.0,0.0,0.0,0.0,0.0,0.0,0.0,0.0,0.0,0.0,0.0,0.0,0.0,0.0,0.0,0.0,0.0,0.0,0.0,0.0,0.0,0.0,0.0,0.0,0.0,0.0,0.0,0.0,0.0,0.0,0.0,0.0,0.0,0.0,0.0,0.0,0.0,0.0,0.0,0.0,0.0,0.0,0.0,0.0,0.0,0.0,0.0,0.0,0.0,0.0,0.0,0.0,0.0,0.0,0.0,0.0,0.0,0.0,0.0,0.0,0.0,0.0,0.0,0.0,0.0,0.0,0.0,0.0,0.0,0.0,0.0,0.0,0.0,0.0,0.0,0.0,0.0,0.0,0.0,0.0,0.0,0.0,0.0,0.0,0.0,0.0,0.0,0.0,0.0,0.0,0.0,0.0,0.0,0.0,0.0,0.0,0.0,0.0,0.0,0.0,0.0,0.0,0.0,0.0,0.0,0.0,0.0,0.0,0.0,0.0,0.0,0.0,0.0,0.0,0.0,0.0,0.0,0.0,0.0,0.0,0.0,0.0,0.0,0.0,0.0,0.0,0.0,0.0,0.0,0.0,0.0,0.0,0.0,0.0,0.0,0.0,0.0,0.0,0.0,0.0,0.0,0.0,0.0,0.0,0.0,0.0,0.0,0.0,0.0,0.0,0.0,0.0,0.0,0.0,0.0,0.0,0.0,0.0,0.0,0.0,0.0,0.0,0.0,0.0,0.0,0.0,0.0,0.0,0.0,0.0,0.0,0.0,0.0,0.0,0.0,0.0,0.0,0.0,0.0,0.0,0.0,0.0,0.0,0.0,0.0,0.0,0.0,0.0,0.0,0.0,0.0,0.0,0.0,0.0,0.0,0.0,0.0,0.0,0.0,0.0,0.0,0.0,0.0,0.0,0.0,0.0,0.0,0.0,0.0,0.0,0.0,0.0,0.0,0.0,0.0,0.0,0.0,0.0,0.0,0.0,0.0,0.0,0.0,0.0,0.0,0.0,0.0,0.0,0.0,0.0,0.0,0.0,0.0,0.0,0.0,0.0,0.0,0.0,0.0,0.0,0.0,0.0,0.0,0.0,0.0,0.0,0.0,0.0,0.0,0.0,0.0,0.0,0.0,0.0,0.0,0.0,0.0,0.0,0.0,0.0,0.0,0.0,0.0,0.0,0.0,0.0,0.0,0.0,0.0,0.0,0.0,0.0,0.0,0.0,0.0,0.0,0.0,0.0,0.0,0.0,0.0,0.0,0.0,0.0,0.0,0.0,0.0,0.0,0.0,0.0,0.0,0.0,0.0,0.0,0.0,0.0,0.0,0.0,0.0,0.0,0.0,0.0,0.0,0.0,0.0,0.0,0.0,0.0,0.0,0.0,0.0,0.0,0.0,0.0,0.0,0.0,0.0,0.0,0.0,0.0,0.0,0.0,0.0,0.0,0.0,0.0,0.0,0.0,0.0,0.0,0.0,0.0,0.0,0.0,0.0,0.0,0.0,0.0,0.0,0.0,0.0,0.0,0.0,0.0,0.0,0.0,0.0,0.0,0.0,0.0,0.0,0.0,0.0,0.0,0.0,0.0,0.0,0.0,0.0,0.0,0.0,0.0,0.0,0.0,0.0,0.0,0.0,0.0,0.0,0.0,0.0,0.0,0.0,0.0,0.0,0.0,0.0,0.0,0.0,0.0,0.0,0.0,0.0,0.0,0.0,0.0,0.0,0.0,0.0,0.0,0.0,0.0,0.0,0.0,0.0,0.0,0.0,0.0,0.0,0.0,0.0,0.0,0.0,0.0,0.0,0.0,0.0,0.0,0.0,0.0,0.0,0.0,0.0,0.0,0.0,0.0,0.0,0.0,0.0,0.0,0.0,0.0,0.0,0.0,0.0,0.0,0.0,0.0,0.0,0.0,0.0,0.0,0.0,0.0,0.0,0.0,0.0,0.0,0.0,0.0,0.0,0.0,0.0,0.0,0.0,0.0,0.0,0.0,0.0,0.0,0.0,0.0,0.0,0.0,0.0,0.0,0.0,0.0,0.0,0.0,0.0,0.0,0.0,0.0,0.0,0.0,0.0,0.0,0.0,0.0,0.0,0.0,0.0,0.0,0.0,0.0,0.0,0.0,0.0,0.0,0.0,0.0,0.0,0.0,0.0,0.0,0.0,0.0,0.0,0.0,0.0,0.0,0.0,0.0,0.0,0.0,0.0,0.0,0.0,0.0,0.0,0.0,0.0,0.0,0.0,0.0,0.0,0.0,0.0,0.0,0.0,0.0,0.0,0.0,0.0,0.0,0.0,0.0,0.0,0.0,0.0,0.0,0.0,0.0,0.0,0.0,0.0,0.0,0.0,0.0,0.0,0.0,0.0,0.0,0.0,0.0,0.0,0.0,0.0,0.0,0.0,0.0,0.0,0.0,0.0,0.0,0.0,0.0,0.0,0.0,0.0,0.0,0.0,0.0,0.0,0.0,0.0,0.0,0.0,0.0,0.0,0.0,0.0,0.0,0.0,0.0,0.0,0.0,0.0,0.0,0.0,0.0,0.0,0.0,0.0,0.0,0.0,0.0,0.0,0.0,0.0,0.0,0.0,0.0,0.0,0.0,0.0,0.0,0.0,0.0,0.0,0.0,0.0,0.0,0.0,0.0,0.0,0.0,0.0,0.0,0.0,0.0,0.0,0.0,0.0,0.0,0.0,0.0,0.0,0.0,0.0,0.0,0.0,0.0,0.0,0.0,0.0,0.0,0.0,0.0,0.0,0.0,0.0,0.0,0.0,0.0,0.0,0.0,0.0,0.0,0.0,0.0,0.0,0.0,0.0,0.0,0.0,0.0,0.0,0.0,0.0,0.0,0.0,0.0,0.0,0.0,0.0,0.0,0.0,0.0,0.0,0.0,0.0,0.0,0.0,0.0,0.0,0.0,0.0,0.0,0.0,0.0,0.0,0.0,0.0,0.0,0.0,0.0,0.0,0.0,0.0,0.0,0.0,0.0,0.0,0.0,0.0,0.0,0.0,0.0,0.0,0.0,0.0,0.0,0.0,0.0,0.0,0.0,0.0,0.0,0.0,0.0,0.0,0.0,0.0,0.0,0.0,0.0,0.0,0.0,0.0,0.0,0.0,0.0,0.0,0.0,0.0,0.0,0.0,0.0,0.0,0.0,0.0,0.0,0.0,0.0,0.0,0.0,0.0,0.0,0.0,0.0,0.0,0.0,0.0,0.0,0.0,0.0,0.0,0.0,0.0,0.0,0.0,0.0,0.0,0.0,0.0,0.0,0.0,0.0,0.0,0.0,0.0,0.0,0.0,0.0,0.0,0.0,0.0,0.0,0.0,0.0,0.0,0.0,0.0,0.0,0.0,0.0,0.0,0.0,0.0,0.0,0.0,0.0,0.0,0.0,0.0,0.0,0.0,0.0,0.0,0.0,0.0,0.0,0.0,0.0,0.0,0.0,0.0,0.0,0.0,0.0,0.0,0.0,0.0,0.0,0.0,0.0,0.0,0.0,0.0,0.0,0.0,0.0,0.0,0.0,0.0,0.0,0.0,0.0,0.0,0.0,0.0,0.0,0.0,0.0,0.0,0.0,0.0,0.0,0.0,0.0,0.0,0.0,0.0,0.0,0.0,0.0,0.0,0.0,0.0,0.0,0.0,0.0,0.0,0.0,0.0,0.0,0.0,0.0,0.0,0.0,0.0,0.0,0.0,0.0,0.0,0.0,0.0,0.0,0.0,0.0,0.0,0.0,0.0,0.0,0.0,0.0,0.0,0.0,0.0,0.0,0.0,0.0,0.0,0.0,0.0,0.0,0.0,0.0,0.0,0.0,0.0,0.0,0.0,0.0,0.0,0.0,0.0,0.0,0.0,0.0,0.0,0.0,0.0,0.0,0.0,0.0,0.0,0.0,0.0,0.0,0.0,0.0,0.0,0.0,0.0,0.0,0.0,0.0,0.0,0.0,0.0,0.0,0.0,0.0,0.0,0.0,0.0,0.0,0.0,0.0,0.0,0.0,0.0,0.0,0.0,0.0,0.0,0.0,0.0,0.0,0.0,0.0,0.0,0.0,0.0,0.0,0.0,0.0,0.0,0.0,0.0,0.0,0.0,0.0,0.0,0.0,0.0,0.0,0.0,0.0,0.0,0.0,0.0,0.0,0.0,0.0,0.0,0.0,0.0,0.0,0.0,0.0,0.0,0.0,0.0,0.0,0.0,0.0,0.0,0.0,0.0,0.0,0.0,0.0,0.0,0.0,0.0,0.0,0.0,0.0,0.0,0.0,0.0,0.0,0.0,0.0,0.0,0.0,0.0,0.0,0.0,0.0,0.0,0.0,0.0,0.0,0.0,0.0,0.0,0.0,0.0,0.0,0.0,0.0,0.0,0.0,0.0,0.0,0.0,0.0,0.0,0.0,0.0,0.0,0.0,0.0,0.0,0.0,0.0,0.0,0.0,0.0,0.0,0.0,0.0,0.0,0.0,0.0,0.0,0.0,0.0,0.0,0.0,0.0,0.0,0.0,0.0,0.0,0.0,0.0,0.0,0.0,0.0,0.0,0.0,0.0,0.0,0.0,0.0,0.0,0.0,0.0,0.0,0.0,0.0,0.0,0.0,0.0,0.0,0.0,0.0,0.0,0.0,0.0,0.0,0.0,0.0,0.0,0.0,0.0,0.0,0.0,0.0,0.0,0.0,0.0,0.0,0.0,0.0,0.0,0.0,0.0,0.0,0.0,0.0,0.0,0.0,0.0,0.0,0.0,0.0,0.0,0.0,0.0,0.0,0.0,0.0,0.0,0.0,0.0,0.0,0.0,0.0,0.0,0.0,0.0,0.0,0.0,0.0,0.0,0.0,0.0,0.0,0.0,0.0,0.0,0.0,0.0,0.0,0.0,0.0,0.0,0.0,0.0,0.0,0.0,0.0,0.0,0.0,0.0,0.0,0.0,0.0,0.0,0.0,0.0,0.0,0.0,0.0,0.0,0.0,0.0,0.0,0.0,0.0,0.0,0.0,0.0,0.0,0.0,0.0,0.0,0.0,0.0,0.0,0.0,0.0,0.0,0.0,0.0,0.0,0.0,0.0,0.0,0.0,0.0,0.0,0.0,0.0,0.0,0.0,-1.5636,0.0,0.0,0.0,0.0,0.0,0.0,0.0,0.0,0.0,0.0,0.0,0.0,0.0,0.0,0.0,0.0,0.0,0.0,0.0,0.0,0.0,0.0,0.0,0.0,0.0,0.0,0.0,0.0,0.0,0.0,0.0,0.0,0.0,0.0,0.0,0.0,0.0,0.0,-1.4811,-1.5141,-1.5778,-1.6634,-1.6603,-1.5981,-1.4949,0.0,0.0,0.0,0.0,0.0,0.0,0.0,0.0,0.0,0.0,0.0,0.0,0.0,0.0,0.0,0.0,0.0,0.0,0.0,0.0,0.0,0.0,0.0,0.0,0.0,0.0,0.0,0.0,0.0,0.0,0.0,0.0,0.0,0.0,0.0,0.0,0.0,0.0,0.0,0.0,0.0,0.0,0.0,0.0,0.0,0.0,0.0,0.0,0.0,0.0,0.0,0.0,0.0,0.0,0.0,0.0,0.0,0.0,0.0,0.0,0.0,0.0,0.0,0.0,0.0,0.0,0.0,0.0,0.0,0.0,0.0,-1.6567,0.0,0.0,0.0,0.0,0.0,0.0,0.0,0.0,0.0,0.0,0.0,0.0,0.0,0.0,0.0,0.0,0.0,0.0,0.0,0.0,0.0,0.0,0.0,0.0,-1.4419,-1.4025,-1.4373,-1.4582,0.0,0.0,0.0,0.0,0.0,0.0,0.0,-1.3519,-1.3961,-1.5168,-1.5968,-1.7092,-1.8507,-1.8507,-1.7487,-1.5696,-1.5696,0.0,0.0,0.0,0.0,0.0,0.0,0.0,0.0,0.0,0.0,0.0,0.0,0.0,0.0,0.0,0.0,0.0,0.0,0.0,0.0,0.0,0.0,0.0,0.0,0.0,0.0,0.0,0.0,0.0,0.0,0.0,0.0,0.0,0.0,0.0,0.0,0.0,0.0,0.0,0.0,0.0,0.0,0.0,0.0,0.0,0.0,0.0,0.0,0.0,0.0,0.0,0.0,0.0,0.0,0.0,0.0,0.0,0.0,0.0,0.0,0.0,0.0,0.0,0.0,-2.0289,-2.0289,-2.0673,-2.058,-2.0181,-2.058,-1.9448,-1.7344,0.0,0.0,0.0,0.0,0.0,0.0,0.0,0.0,0.0,0.0,0.0,0.0,0.0,0.0,0.0,0.0,0.0,0.0,0.0,0.0,0.0,0.0,-1.4534,-1.4627,-1.465,-1.4719,-1.4586,-1.4116,0.0,0.0,0.0,0.0,0.0,-1.4135,-1.4407,-1.521,-1.6539,-1.7621,-1.8248,-1.8507,-1.8507,-1.8343,-1.8064,-1.8064,-1.7671,-1.7026,0.0,0.0,0.0,0.0,0.0,0.0,0.0,0.0,0.0,0.0,0.0,0.0,0.0,0.0,0.0,0.0,0.0,0.0,0.0,0.0,0.0,0.0,0.0,0.0,0.0,0.0,0.0,0.0,0.0,0.0,0.0,0.0,0.0,0.0,0.0,0.0,0.0,0.0,0.0,0.0,0.0,-2.0495,-1.9703,0.0,0.0,0.0,0.0,0.0,0.0,0.0,0.0,0.0,0.0,0.0,0.0,0.0,0.0,-2.1121,-2.0885,-2.0751,-2.0775,-2.1975,-2.2561,-2.2631,-2.4181,-2.4866,-2.482,-2.4889,0.0,-1.8626,-1.7086,0.0,0.0,0.0,0.0,0.0,0.0,0.0,0.0,0.0,0.0,0.0,0.0,0.0,0.0,0.0,0.0,0.0,0.0,0.0,0.0,0.0,-1.4867,-1.523,-1.5279,-1.5709,-1.5578,-1.462,-1.4484,0.0,0.0,0.0,-1.328,-1.3409,-1.4241,-1.5803,-1.8132,-1.8988,-1.974,-2.033,-2.033,-2.033,-2.033,-2.033,-1.9467,-1.7933,-1.7219,0.0,0.0,0.0,0.0,0.0,0.0,0.0,0.0,0.0,0.0,0.0,0.0,0.0,0.0,0.0,0.0,0.0,0.0,0.0,0.0,0.0,0.0,0.0,0.0,0.0,0.0,0.0,0.0,0.0,0.0,0.0,0.0,0.0,0.0,0.0,0.0,0.0,0.0,0.0,-1.9668,-2.0079,-1.9202,-1.9598,-1.9427,0.0,0.0,0.0,0.0,0.0,0.0,0.0,0.0,0.0,-2.1534,-2.2278,-2.2807,-2.3142,-2.3456,-2.3607,-2.3607,-2.4207,-2.453,-2.4517,-2.534,-2.5716,-2.5716,-2.5716,-2.4568,-2.2661,-2.095,-1.9767,-1.8974,0.0,0.0,0.0,0.0,0.0,-1.6731,0.0,0.0,0.0,0.0,0.0,0.0,0.0,0.0,0.0,0.0,0.0,0.0,-1.4563,-1.5403,-1.5954,-1.5981,-1.6519,-1.6299,-1.5009,-1.4741,-1.4097,-1.2934,-1.2742,-1.2807,-1.3064,-1.4686,-1.6806,-1.9398,-2.0142,-2.0985,-2.1797,-2.1797,-2.1797,-2.1797,-2.1797,-2.077,-1.8997,-1.8067,-1.768,-1.7585,0.0,0.0,0.0,0.0,0.0,0.0,0.0,0.0,0.0,0.0,0.0,0.0,0.0,0.0,0.0,0.0,0.0,0.0,0.0,0.0,0.0,0.0,0.0,0.0,0.0,0.0,0.0,0.0,0.0,0.0,0.0,0.0,0.0,0.0,0.0,0.0,0.0,-1.9796,-2.0377,-1.9212,-1.9989,-2.0117,0.0,0.0,0.0,0.0,0.0,0.0,-2.1013,-2.2306,-2.328,-2.3828,-2.4394,-2.4969,-2.5515,-2.6122,-2.6473,-2.6473,-2.6473,-2.6473,-2.6473,-2.6473,-2.6473,-2.6473,-2.6473,-2.6473,-2.6313,-2.419,-2.2508,-2.1253,-2.088,-2.0473,-2.0104,-2.0093,-1.9514,-1.8711,0.0,0.0,0.0,0.0,0.0,0.0,0.0,0.0,0.0,0.0,0.0,-1.5129,-1.5564,-1.6256,-1.6694,-1.6834,-1.6765,-1.6136,-1.4804,-1.4345,-1.3753,-1.2849,-1.2848,-1.3171,-1.374,-1.6623,-1.8723,-1.9968,-2.1125,-2.1735,-2.1797,-2.1797,-2.1797,-2.1797,-2.1797,-2.137,-2.0575,-2.0526,-1.9817,-1.8659,-1.7905,0.0,0.0,0.0,0.0,0.0,0.0,0.0,0.0,0.0,0.0,0.0,0.0,0.0,0.0,0.0,0.0,0.0,0.0,0.0,0.0,0.0,0.0,0.0,0.0,0.0,0.0,0.0,0.0,0.0,0.0,0.0,0.0,0.0,0.0,0.0,0.0,0.0,0.0,-2.0895,-2.1635,0.0,0.0,0.0,0.0,-2.2737,-2.2891,-2.2961,-2.2961,-2.4293,-2.5252,-2.5738,-2.7059,-2.8031,-2.8471,-2.8517,-2.854,-2.854,-2.854,-2.854,-2.854,-2.854,-2.854,-2.854,-2.854,-2.854,-2.8241,-2.4557,-2.2967,-2.2768,-2.1494,-2.0663,-2.0242,-2.0538,-1.9992,-1.9029,0.0,0.0,0.0,0.0,0.0,0.0,0.0,0.0,-1.3169,-1.3005,-1.4088,-1.4855,-1.4798,-1.6403,-1.7492,-1.7552,-1.8249,-1.8155,-1.6854,-1.6343,-1.5548,-1.4324,-1.3782,-1.4376,-1.6286,-1.8353,-1.9981,-2.1146,-2.2131,-2.274,-2.3096,-2.3627,-2.3743,-2.3526,-2.3225,-2.262,-2.1807,-2.0692,-2.0156,-1.9931,-1.8818,-1.7846,0.0,0.0,0.0,0.0,0.0,0.0,0.0,0.0,0.0,0.0,0.0,0.0,0.0,0.0,0.0,0.0,0.0,0.0,0.0,0.0,0.0,0.0,0.0,0.0,0.0,0.0,0.0,0.0,0.0,0.0,0.0,0.0,0.0,0.0,0.0,0.0,0.0,-2.2688,-2.3572,0.0,-2.2488,-2.2403,-2.2723,-2.3547,-2.4422,-2.5048,-2.5419,-2.6701,-2.752,-2.7704,-2.8192,-2.8517,-2.87,-2.87,-2.87,-2.87,-2.87,-2.87,-2.87,-2.87,-2.87,-2.87,-2.87,-2.8528,-2.8155,-2.6771,-2.6223,-2.6154,-2.5348,-2.4558,-2.3857,-2.3667,-2.3182,-2.2551,0.0,0.0,0.0,0.0,0.0,0.0,0.0,0.0,-1.2757,-1.3015,-1.4165,-1.5113,-1.5459,-1.7185,-1.8364,-1.8542,-1.9297,-1.9193,-1.7687,-1.7205,-1.621,-1.4566,-1.4405,-1.5764,-1.8786,-2.0044,-2.1389,-2.288,-2.3583,-2.3955,-2.4073,-2.4572,-2.4559,-2.4043,-2.372,-2.3299,-2.2646,-2.1557,-2.1074,-2.0985,-1.9889,-1.8691,-1.764,0.0,0.0,0.0,0.0,0.0,0.0,0.0,0.0,0.0,0.0,0.0,0.0,0.0,0.0,0.0,0.0,0.0,0.0,0.0,0.0,0.0,0.0,0.0,0.0,0.0,0.0,0.0,0.0,0.0,0.0,0.0,0.0,0.0,0.0,0.0,-2.3386,-2.3665,-2.4719,-2.508,-2.4143,-2.4213,-2.4642,-2.5443,-2.6325,-2.7025,-2.7371,-2.8215,-2.8683,-2.8692,-2.8889,-2.8958,-2.8986,-2.9118,-2.9118,-2.8986,-2.8986,-2.8986,-2.8986,-2.8986,-2.8986,-2.8986,-2.8986,-2.8677,-2.8233,-2.8233,-2.812,-2.7955,-2.7452,-2.6799,-2.6087,-2.5765,-2.5376,-2.4941,0.0,0.0,0.0,0.0,0.0,0.0,0.0,-1.2577,-1.2692,-1.4085,-1.4878,-1.5964,-1.7705,-1.8623,-1.9305,-1.9761,-1.9824,-1.9023,-1.7172,-1.6751,-1.5615,-1.3466,-1.4811,-1.7348,-2.1008,-2.1663,-2.2938,-2.4987,-2.5531,-2.5376,-2.4618,-2.4618,-2.4165,-2.3347,-2.3326,-2.3286,-2.3245,-2.3224,-2.2666,-2.1776,-2.1068,-1.9994,-1.8818,0.0,0.0,0.0,0.0,0.0,0.0,0.0,0.0,0.0,0.0,0.0,0.0,0.0,0.0,0.0,0.0,0.0,0.0,0.0,0.0,0.0,0.0,0.0,0.0,0.0,0.0,0.0,0.0,0.0,0.0,0.0,0.0,0.0,-2.1682,-2.3758,-2.4881,-2.3967,-2.5113,-2.5978,-2.5978,-2.644,-2.7325,-2.8609,-2.8723,-2.8723,-2.8703,-2.8769,-2.8781,-2.8746,-2.9283,-2.9511,-2.953,-2.9988,-2.9988,-2.953,-2.953,-2.953,-2.953,-2.953,-2.953,-2.953,-2.9508,-2.9185,-2.8699,-2.8678,-2.8416,-2.7934,-2.7412,-2.695,-2.6615,-2.657,-2.6301,-2.5875,0.0,0.0,0.0,0.0,0.0,0.0,0.0,-1.2314,-1.2173,-1.3497,-1.4616,-1.5837,-1.7256,-1.8727,-1.9658,-1.9782,-2.0369,-1.9975,-1.8133,-1.7718,-1.6825,-1.5243,-1.7381,-1.9234,-2.0555,-2.2368,-2.3703,-2.4631,-2.5347,-2.6101,-2.6877,-2.68,-2.6854,-2.7006,-2.6024,-2.5267,-2.46,-2.3592,-2.3039,-2.2749,-2.2208,-2.1074,-1.9687,0.0,0.0,0.0,0.0,0.0,0.0,0.0,0.0,0.0,0.0,0.0,0.0,0.0,0.0,0.0,0.0,0.0,0.0,0.0,0.0,0.0,0.0,0.0,0.0,0.0,0.0,0.0,0.0,0.0,0.0,0.0,0.0,-2.4109,-2.4209,-2.5087,-2.6116,-2.7197,-2.7663,-2.7916,-2.7916,-2.8054,-2.8468,-2.9206,-2.9274,-2.9302,-2.9286,-2.9988,-3.0216,-2.9844,-3.0296,-3.0544,-3.0513,-3.0274,-3.0083,-2.9939,-2.9939,-2.9939,-2.9939,-2.9939,-2.9939,-2.9917,-2.9591,-2.9154,-2.8657,-2.8314,-2.7913,-2.7483,-2.732,-2.6982,-2.657,-2.6211,-2.601,-2.5875,0.0,0.0,0.0,0.0,0.0,0.0,0.0,-1.2357,-1.2372,-1.4003,-1.4842,-1.5978,-1.7801,-1.909,-1.9865,-2.0052,-2.0182,-1.9679,-1.829,-1.7319,-1.7013,-1.7488,-1.9019,-2.0611,-2.2302,-2.4015,-2.5399,-2.6333,-2.7032,-2.7627,-2.8071,-2.8032,-2.7743,-2.7319,-2.6558,-2.5713,-2.4847,-2.4075,-2.3639,-2.3453,-2.3184,-2.1935,-2.0331,-2.1,-2.017,-1.8765,-1.9453,-1.9686,-1.9559,-1.8881,0.0,0.0,0.0,0.0,0.0,0.0,0.0,0.0,0.0,0.0,0.0,0.0,0.0,0.0,0.0,0.0,0.0,0.0,0.0,0.0,0.0,0.0,0.0,0.0,-2.4025,-2.5534,-2.6565,-2.6907,-2.7474,-2.8563,-2.8907,-2.9045,-2.9045,-2.9412,-2.9802,-3.0101,-3.0331,-3.0468,-3.0487,-3.0782,-3.0751,-3.0274,-3.0444,-3.048,-3.0236,-3.0139,-2.9992,-2.9796,-2.9796,-2.9796,-2.9796,-2.9796,-2.9796,0.0,-2.9494,-2.9144,-2.8635,-2.8362,-2.8111,0.0,0.0,0.0,0.0,0.0,-2.6501,-2.6501,0.0,0.0,0.0,0.0,0.0,0.0,0.0,-1.2644,-1.3022,-1.5092,-1.5358,-1.6357,-1.8923,-1.9596,-2.0017,-2.0436,-1.9665,-1.8799,-1.7915,-1.6602,-1.7038,-1.9658,-2.0212,-2.1903,-2.486,-2.6078,-2.7394,-2.885,-2.9374,-2.9337,-2.8706,-2.8507,-2.7621,-2.6265,-2.6078,-2.5508,-2.4741,-2.4612,-2.4321,-2.395,-2.395,-2.2745,-2.0969,-2.1803,-2.1225,-2.0041,-2.0843,-2.1174,-2.1153,-2.0984,0.0,0.0,0.0,0.0,0.0,0.0,0.0,0.0,0.0,0.0,0.0,0.0,0.0,0.0,0.0,0.0,0.0,0.0,0.0,0.0,0.0,0.0,0.0,0.0,-2.4601,-2.6251,-2.8656,-2.8943,-2.8909,-2.8953,-2.9389,-2.9688,-2.9757,-3.0583,-3.1088,-3.1088,-3.1477,-3.1659,-3.1611,0.0,0.0,0.0,0.0,-2.9996,-2.9572,-2.9897,-2.9848,-2.9473,-2.9473,-2.9473,-2.9473,-2.9473,-2.9473,-2.9473,-2.9409,-2.9139,-2.869,-2.8628,-2.8607,-2.8524,-2.7676,-2.7372,-2.7372,-2.733,-2.7309,0.0,0.0,0.0,0.0,0.0,0.0,0.0,0.0,-1.3128,-1.3453,-1.5447,-1.5789,-1.6812,-1.9401,-2.0038,-2.0472,-2.0912,-2.0162,-1.9119,-1.7802,-1.8676,-1.9426,-1.9775,-2.2518,-2.4198,-2.4598,-2.6551,-2.7873,-2.8582,-2.8703,-2.9273,-3.0154,-2.8651,-2.8365,-2.914,-2.7584,-2.6607,-2.6088,-2.5351,-2.4797,-2.4363,-2.4363,-2.3701,-2.2706,-2.2893,-2.2787,-2.2496,-2.2702,-2.2764,-2.2598,-2.1548,-2.146,-2.1581,-2.0477,-1.9648,0.0,0.0,0.0,0.0,0.0,0.0,0.0,0.0,0.0,0.0,0.0,0.0,0.0,0.0,0.0,0.0,0.0,0.0,0.0,-2.3822,-2.565,-2.7601,-2.9706,-2.9982,-3.0146,-3.0514,-3.0652,-3.0882,-3.1295,-3.1502,-3.1664,-3.1664,-3.1278,-3.089,-3.0551,-3.0756,0.0,-3.0156,-3.0469,-3.0632,-3.053,-3.017,-2.9984,-2.9881,0.0,0.0,-2.9881,-2.9881,-2.9881,-2.986,-2.9485,-2.9268,-2.9145,-2.8773,-2.8607,-2.8566,-2.8007,-2.78,-2.7759,-2.7434,-2.7309,-2.7309,0.0,0.0,0.0,0.0,0.0,0.0,0.0,-1.3412,-1.3666,-1.4986,-1.5269,-1.6069,-1.7906,-1.8529,-1.8882,-1.9031,-1.8923,-1.8508,-1.775,-1.9555,-2.0904,-2.1389,-2.3921,-2.5409,-2.5701,-2.7323,-2.8485,-2.917,-2.917,-2.9663,-3.0568,-2.9634,-2.9491,-2.9996,-2.8568,-2.7433,-2.6519,-2.5607,-2.4921,-2.4507,-2.4507,-2.4218,-2.3867,-2.3867,-2.3722,-2.3557,-2.3784,-2.3867,-2.3764,-2.3121,-2.3078,-2.3097,-2.2105,-2.1391,-2.0801,0.0,0.0,0.0,0.0,0.0,0.0,0.0,0.0,0.0,0.0,0.0,0.0,0.0,0.0,-2.0586,0.0,0.0,-2.3937,-2.5017,-2.6555,-2.8099,-2.9639,-3.009,-3.0533,-3.1292,-3.1387,-3.1502,-3.1779,-3.1743,-3.1945,-3.2512,-3.2248,-3.2046,-3.2037,-3.2024,-3.172,-3.1199,-3.1116,-3.1084,-3.1084,-3.0838,-3.0677,-3.0677,-3.0677,-3.0677,-3.0677,-3.045,-3.0346,-3.0305,-2.9849,-2.9642,-2.9622,-2.9394,-2.9311,-2.9249,-2.8794,-2.8483,-2.8235,-2.8028,-2.78,-2.7593,0.0,0.0,0.0,0.0,0.0,0.0,0.0,-1.3737,-1.3902,-1.4499,-1.4725,-1.5273,-1.6381,-1.6896,-1.7042,-1.6758,-1.7687,-1.8176,-1.7956,-2.0161,-2.1989,-2.3158,-2.4907,-2.6197,-2.6876,-2.8116,-2.9091,-2.9804,-2.9804,-3.008,-3.0608,-3.0408,-3.018,-2.9928,-2.8872,-2.7695,-2.6498,-2.5606,-2.4921,-2.4507,-2.4507,-2.4507,-2.4507,-2.4507,-2.4322,-2.4053,-2.4363,-2.4321,-2.4135,-2.4404,-2.4321,-2.4053,-2.3701,-2.3177,-2.2457,-2.1098,-2.077,0.0,0.0,0.0,0.0,0.0,0.0,0.0,0.0,-2.097,-2.1317,-2.2105,-2.2412,-2.2692,-2.3034,-2.4157,-2.5313,-2.6085,-2.7243,-2.8383,-2.937,-2.9884,-3.0651,-3.1925,-3.1885,-3.1839,-3.2045,-3.1919,-3.2247,-3.3343,-3.3167,-3.3204,-3.3551,-3.3071,-3.2534,-3.2048,-3.1634,-3.1381,-3.1381,-3.1381,-3.1381,-3.1381,-3.1381,-3.1381,-3.136,-3.0988,-3.0822,-3.0801,-3.0325,-3.0077,-2.9994,-2.9994,-2.9994,-2.9953,-2.958,-2.9208,-2.8856,-2.869,-2.838,-2.8048,0.0,0.0,0.0,0.0,0.0,0.0,0.0,0.0,-1.4445,-1.4878,-1.5179,-1.5732,-1.6829,-1.6986,-1.6696,-1.5918,-1.8144,-1.9366,-1.8802,-2.13,-2.3135,-2.3927,-2.5745,-2.6801,-2.6914,-2.8719,-2.9702,-2.9804,-2.9804,-3.008,-3.0568,-2.9715,-2.929,-2.9318,-2.7988,-2.6863,-2.5951,-2.5443,-2.4921,-2.4507,-2.4507,-2.4507,-2.4507,-2.4507,-2.4466,-2.4425,-2.4487,-2.3722,-2.2915,-2.4094,-2.3722,-2.2915,-2.4033,-2.3617,-2.2545,-2.1702,-2.1012,-2.0384,-1.9552,-2.0225,-2.1083,-2.0892,-2.1733,-2.2628,0.0,-2.297,-2.3327,-2.3257,-2.3398,-2.3499,-2.3402,-2.4807,-2.6086,-2.6193,-2.7508,-2.8869,-2.987,-3.0077,-3.0824,-3.2795,-3.2274,-3.2072,-3.2971,-3.2517,-3.2655,-3.3742,-3.2908,-3.2308,-3.2372,-3.1906,-3.1545,-3.1491,-3.1436,-3.1381,-3.1381,-3.1381,-3.1381,-3.1381,-3.1381,-3.1381,-3.1381,-3.1319,-3.1298,-3.1278,-3.0822,-3.0387,-2.9994,-2.9994,-2.9994,-2.9994,-2.9932,-2.9891,-2.9746,-2.8918,-2.8587,-2.8545,0.0,0.0,0.0,0.0,0.0,0.0,0.0,0.0,0.0,-1.387,-1.3903,-1.4093,-1.4466,-1.4679,-1.4701,-1.4485,-1.6995,-1.8468,-1.8202,-2.1604,-2.3768,-2.4072,-2.607,-2.7274,-2.7594,-2.8687,-2.9453,-2.9804,-2.9804,-3.008,-3.0568,-3.0183,-3.0147,-3.0453,-2.8833,-2.7718,-2.7019,-2.5735,-2.4921,-2.4507,-2.4507,-2.4507,-2.4507,-2.4507,-2.4507,-2.4404,-2.3639,-2.3183,0.0,-2.3287,-2.3183,-2.3201,-2.4198,-2.3659,-2.2607,-2.213,-2.16,-2.1311,-2.194,-2.219,-2.2402,-2.3058,-2.3631,-2.4094,-2.4326,-2.4556,-2.4934,-2.5555,-2.5722,-2.585,-2.5965,-2.6651,-2.7274,0.0,-2.8388,-2.9134,-2.9576,-3.0366,-3.1114,-3.1677,-3.1875,-3.2433,-3.3481,-3.2765,-3.2641,-3.3712,-3.3051,-3.2742,-3.3019,-3.2818,-3.2504,-3.2168,-3.2168,-3.2168,-3.2168,-3.2168,-3.2168,-3.2168,-3.2168,-3.2168,-3.2168,-3.1878,-3.1629,-3.136,-3.1174,-3.0822,-3.0408,-3.0408,-3.0243,-2.9994,-2.9994,-2.9994,-2.9953,-2.9559,-2.9249,-2.9021,0.0,0.0,0.0,0.0,0.0,0.0,0.0,0.0,0.0,0.0,-1.3437,-1.3158,-1.2803,-1.3094,-1.3362,-1.3481,-1.5739,-1.7386,-1.8006,-2.1093,-2.3351,-2.4397,-2.5877,-2.705,-2.7871,-2.8574,-2.9088,-2.9553,-2.9704,-3.0005,-3.0382,-3.0382,-3.0538,-3.0687,-2.9279,-2.8253,-2.7499,-2.6002,-2.5056,-2.4507,-2.4507,-2.4507,-2.4507,-2.4507,-2.4259,-2.3846,-2.2893,-2.2616,-2.259,-2.2199,-2.2091,-2.2293,-2.3241,-2.2906,-2.2138,-2.1733,-2.1317,-2.1339,-2.2998,-2.3227,-2.3308,-2.464,-2.514,-2.5432,-2.5912,-2.6017,-2.6243,-2.7102,-2.7413,-2.7552,-2.7862,-2.8131,-2.8421,-2.8752,-2.9187,-2.9539,-2.9663,-3.0611,-3.1295,-3.13,-3.1831,-3.2575,-3.3734,-3.2814,-3.2593,-3.3615,-3.3159,-3.2994,-3.3332,-3.3353,-3.3126,-3.2727,-3.2669,-3.2669,-3.2669,-3.2669,-3.2669,-3.2669,-3.2669,-3.2669,-3.2669,-3.2339,-3.1981,-3.1567,-3.1567,-3.1298,-3.0884,-3.0884,-3.0615,-3.018,-3.018,-3.0098,-2.9994,-2.9994,-2.9787,-2.9497,0.0,0.0,0.0,0.0,0.0,0.0,0.0,0.0,0.0,0.0,0.0,0.0,0.0,-1.331,-1.3501,-1.3242,-1.4768,-1.6631,-1.8717,-1.9519,-2.1551,-2.5087,-2.5151,-2.5764,-2.7293,-2.8373,-2.8888,-2.8913,-2.9528,-2.9804,-2.9804,-2.9804,-2.9609,-2.9138,-2.8699,-2.7789,-2.6518,-2.5995,-2.5274,-2.4507,-2.4507,-2.4507,-2.4507,-2.4507,-2.3681,-2.2582,-2.2637,-2.1858,-2.0785,-2.0906,-2.0088,-1.9274,-2.0596,-2.0998,-2.0801,-2.0078,-1.9684,-1.9792,-2.1332,-2.2391,-2.3414,-2.5059,-2.5989,-2.6667,-2.7143,-2.7247,-2.7268,-2.7309,-2.7593,-2.7903,-2.7924,-2.8649,-2.927,-2.929,-2.9684,-3.0139,-3.0574,-3.0731,-3.1225,-3.2653,-3.2337,-3.2413,0.0,-3.2609,-3.2434,-3.3515,-3.3048,-3.2706,-3.2727,-3.2727,-3.2727,-3.2669,-3.2669,-3.2669,-3.2669,-3.2669,-3.2669,-3.2669,-3.2669,-3.2669,-3.2669,-3.2669,-3.2401,-3.1967,-3.1967,-3.1774,-3.136,-3.136,-3.1091,-3.0677,-3.0677,-3.0387,-2.9994,-2.9994,-2.9994,-2.9973,0.0,0.0,0.0,0.0,0.0,0.0,0.0,0.0,0.0,0.0,0.0,0.0,0.0,0.0,0.0,0.0,-1.4812,-1.6029,-1.7175,-1.9297,-2.1222,-2.2785,-2.4341,-2.5625,-2.6492,-2.7741,-2.8549,-2.8888,-2.9503,-2.9804,-2.9804,-2.9804,-2.9724,-2.952,-2.8163,-2.7336,-2.6813,-2.5507,-2.4786,-2.4507,-2.4507,-2.4507,-2.4404,-2.3597,-2.3033,-2.2425,0.0,-2.0143,-1.994,-1.9677,-1.953,-1.9639,-2.0588,-2.0292,-1.9476,-1.9082,-1.9727,-2.0943,-2.2594,-2.3817,-2.4975,-2.6322,-2.69,-2.7123,-2.7268,-2.7309,-2.7392,-2.7634,-2.7096,-2.6791,-2.7556,-2.7835,-2.8097,-2.8536,-2.9393,-3.016,-3.0615,-3.0946,-3.1415,-3.2184,-3.2425,0.0,0.0,0.0,0.0,-3.2991,-3.2784,-3.2669,-3.2669,-3.2669,-3.2669,-3.2669,-3.2669,-3.2669,-3.2669,-3.2669,-3.2669,-3.2669,-3.2669,-3.2669,-3.2669,-3.2669,-3.2587,-3.2442,-3.2442,-3.2173,-3.1816,-3.1816,-3.1547,-3.1112,-3.0801,-3.0594,-3.0408,-3.0098,-2.9994,-2.9994,0.0,0.0,0.0,0.0,0.0,0.0,0.0,0.0,0.0,0.0,0.0,0.0,0.0,0.0,0.0,0.0,0.0,-1.5308,-1.6169,-1.8119,-1.977,-2.1063,-2.2489,-2.3746,-2.4725,-2.5629,-2.6417,-2.7168,-2.8323,-2.9001,-2.9202,-2.9603,-2.9804,-2.9765,-2.8593,-2.7891,-2.7504,-2.6049,-2.51,-2.4527,-2.4219,-2.3802,-2.3276,-2.2488,-2.1797,0.0,-1.9486,-1.8817,-1.8645,-1.8398,-1.8643,-1.9115,-1.9584,-1.936,-1.8945,-1.9201,-2.0292,-2.1779,-2.3714,-2.4849,-2.5787,-2.7004,-2.7309,-2.7309,-2.7309,-2.7309,-2.7434,-2.7841,-2.6827,-2.6194,-2.7056,-2.6806,-2.6572,-2.7123,-2.8084,-2.9119,-3.014,-3.0701,-3.1345,-3.2168,-3.2483,-3.2669,0.0,0.0,0.0,-3.2669,-3.2669,-3.2669,-3.2669,-3.2669,-3.2669,-3.2669,-3.2669,-3.2669,-3.2669,-3.2669,-3.2669,-3.2669,-3.2669,-3.2669,-3.2669,-3.2669,-3.2669,-3.2669,-3.2669,-3.2504,-3.2235,-3.2235,-3.2023,-3.1588,-3.1278,-3.0967,-3.0657,-3.0346,-3.0139,-2.9994,0.0,0.0,0.0,0.0,0.0,0.0,0.0,0.0,0.0,0.0,0.0,0.0,0.0,0.0,0.0,0.0,0.0,0.0,-1.5781,-1.6124,-1.7424,-2.0007,-1.9843,-2.0534,-2.226,-2.2425,-2.2967,-2.4029,-2.6163,-2.7469,-2.8047,-2.9126,-2.9628,-2.9628,-2.959,-2.9075,-2.8242,-2.7325,-2.6034,-2.4559,-2.3673,-2.2546,-2.1328,-2.1228,-2.013,-1.8638,-1.8575,-1.7874,-1.7054,-1.7244,-1.7557,-1.7844,-1.7879,-1.8431,-1.9295,-2.0464,-2.1292,-2.2357,-2.4615,-2.5407,-2.5871,-2.7025,-2.7309,-2.7309,-2.7309,-2.7309,-2.7413,-2.7738,-2.6724,-2.5941,-2.6335,0.0,-2.4974,-2.5413,-2.6178,-2.7404,-2.9408,-3.0099,-3.0933,0.0,0.0,0.0,0.0,0.0,0.0,-3.2669,0.0,-3.2669,-3.2669,-3.2669,-3.2669,-3.2669,-3.2669,-3.2669,-3.2669,-3.2669,-3.2669,-3.2669,-3.2669,-3.2669,-3.2669,-3.2669,-3.2669,-3.2669,-3.2669,-3.2669,-3.2669,-3.2669,-3.2421,-3.2008,-3.1988,-3.1505,-3.0739,-3.0698,-3.0408,-3.0036,0.0,0.0,0.0,0.0,0.0,0.0,0.0,0.0,0.0,0.0,0.0,0.0,0.0,0.0,0.0,0.0,0.0,0.0,-1.5469,-1.6649,-1.7785,-1.8829,-2.0496,-2.1602,-2.2086,-2.3078,-2.3929,-2.4575,-2.5561,-2.6314,-2.6927,-2.7203,-2.7354,-2.7318,-2.6625,-2.6166,-2.5911,-2.5038,-2.4195,-2.3347,-2.2703,-2.2265,-2.1774,-1.9961,-1.9276,-1.911,-1.7849,-1.7376,-1.7397,-1.76,-1.8606,-1.9854,-2.0308,-2.092,-2.1549,-2.2117,-2.3087,-2.4241,-2.5161,-2.6114,-2.6921,-2.7226,-2.7309,-2.7309,-2.7309,-2.7309,-2.7143,-2.6517,-2.5316,-2.4303,-2.3845,-2.4491,-2.5176,-2.5476,-2.7514,0.0,-3.0784,-3.1054,0.0,-3.2602,0.0,-3.2669,-3.2669,-3.2669,0.0,0.0,-3.2669,-3.2669,-3.2669,-3.2669,-3.2669,-3.2669,-3.2669,-3.2669,-3.2669,-3.2669,-3.2669,-3.2669,-3.2669,-3.2669,-3.2669,-3.2669,-3.2669,-3.2669,-3.2669,-3.2669,-3.2669,-3.2669,-3.2607,-3.2463,-3.2112,-3.1843,-3.1609,-3.0946,-3.0615,-3.047,0.0,0.0,0.0,0.0,0.0,0.0,0.0,0.0,0.0,0.0,0.0,0.0,0.0,0.0,0.0,0.0,0.0,0.0,0.0,-1.5883,-1.6765,-1.7722,-1.8714,-1.97,-2.0649,-2.1219,-2.1869,-2.2623,-2.3879,-2.4808,-2.5443,-2.6147,-2.6499,-2.6499,-2.5955,-2.5721,-2.5652,-2.4743,-2.4003,0.0,0.0,-2.1517,-2.1027,-1.892,-1.8368,-1.8556,-1.7198,-1.7518,-1.8691,-1.9401,-2.0313,-2.128,-2.1983,-2.2405,-2.2859,-2.3657,-2.4409,-2.5157,-2.6055,-2.6775,-2.7309,-2.7309,-2.7309,-2.7143,-2.6496,-2.6372,-2.6103,-2.5192,-2.3764,-2.2602,-2.2408,-2.316,-2.395,-2.4242,0.0,0.0,-3.0422,-3.0796,-3.1366,0.0,-3.2669,0.0,-3.2669,-3.2669,-3.2809,0.0,-3.3016,-3.3016,-3.3016,-3.3203,-3.3306,-3.3306,-3.3306,-3.3223,-3.3016,-3.283,-3.2669,-3.2669,-3.2669,-3.2669,-3.2669,-3.2669,-3.2669,-3.2669,0.0,-3.2669,-3.2669,-3.2669,-3.2669,-3.2649,-3.238,-3.2153,-3.1926,-3.1464,-3.1029,-3.0657,0.0,0.0,0.0,0.0,0.0,0.0,0.0,0.0,0.0,0.0,0.0,0.0,0.0,0.0,0.0,0.0,0.0,0.0,0.0,0.0,-1.54,-1.6788,-1.6229,-1.6797,-1.8734,-1.8532,-1.89,-1.9907,-2.1913,-2.3221,-2.3904,-2.5393,-2.6047,-2.6047,-2.6047,-2.6047,-2.5979,-2.5178,-2.4417,-2.3635,-2.1917,-2.0789,-1.994,0.0,-1.764,-1.7678,-1.6992,-1.8124,-2.0191,-2.1765,-2.2377,-2.2595,-2.339,-2.3681,-2.3971,-2.515,-2.5502,-2.5751,-2.6978,-2.7309,-2.7309,-2.7309,-2.7309,-2.6957,-2.5544,-2.5148,-2.4819,-2.366,-2.2087,-2.101,-2.1217,-2.1657,-2.2227,-2.2877,-2.5019,-2.7378,-2.9555,-3.0193,-3.1016,-3.252,-3.2669,-3.2669,-3.2669,-3.2669,-3.2913,-3.3348,-3.343,-3.3472,-3.3472,-3.3903,-3.4132,-3.4132,-3.4132,-3.3844,-3.3389,-3.2996,-3.2789,-3.2669,-3.2669,-3.2669,-3.2669,-3.2669,-3.2669,-3.2669,0.0,0.0,-3.2669,-3.2669,-3.2669,-3.2669,-3.2669,-3.2421,-3.207,-3.2008,-3.1547,-3.0843,0.0,0.0,0.0,0.0,0.0,0.0,0.0,0.0,0.0,0.0,-1.3253,-1.3573,0.0,0.0,0.0,0.0,0.0,0.0,0.0,0.0,0.0,-1.6068,-1.662,-1.7117,-1.7494,-1.8405,-1.9392,-2.0475,-2.1343,-2.2297,-2.3271,-2.3547,-2.3672,-2.3672,-2.3672,-2.3672,-2.3672,-2.3517,-2.3124,-2.2539,-2.1764,-2.1178,-2.053,-1.8702,0.0,0.0,-1.8458,-1.9014,-2.0126,-2.3037,-2.4399,-2.5015,-2.5778,-2.6293,-2.6646,-2.6895,-2.6957,-2.6998,-2.7247,-2.7309,-2.7309,-2.7309,-2.7309,-2.6957,-2.5544,-2.49,-2.3929,-2.1528,-2.0544,-1.9857,-1.8771,-2.0184,-2.2042,-2.3634,-2.5701,-2.8063,-3.0689,-3.1146,-3.1581,0.0,-3.2669,-3.2669,-3.2669,-3.2669,0.0,0.0,0.0,-3.4007,-3.4007,-3.409,-3.4132,-3.4132,-3.4132,-3.3844,-3.3389,-3.3306,-3.3078,-3.2669,-3.2669,-3.2669,-3.2669,-3.2669,-3.2669,-3.2669,0.0,0.0,-3.2669,-3.2669,-3.2669,-3.2669,-3.2669,-3.2628,-3.2504,-3.2132,-3.1884,-3.1692,0.0,0.0,0.0,0.0,0.0,0.0,0.0,-1.3782,-1.3704,-1.3433,-1.3394,-1.3568,-1.4012,-1.439,-1.4848,0.0,0.0,0.0,0.0,0.0,0.0,0.0,-1.5964,-1.6353,-1.7185,-1.7827,-1.883,-2.0185,0.0,-2.1064,-2.2168,-2.2463,-2.2586,-2.2586,-2.2944,-2.3095,-2.3095,-2.3095,-2.2945,-2.2664,-2.1893,-2.1447,-2.1071,0.0,0.0,0.0,-1.8806,-1.9283,-2.0083,-2.252,-2.4226,-2.5508,-2.6625,-2.7123,-2.7309,-2.7309,-2.7309,-2.7309,-2.7309,-2.7309,-2.7309,-2.7309,-2.7309,-2.6708,-2.4343,-2.3639,-2.2586,-1.961,-1.8891,-1.8635,-1.8009,-1.9632,-2.1413,-2.2506,-2.5138,-2.771,-2.9642,-3.076,-3.1712,-3.2623,-3.2669,-3.2669,-3.2669,-3.2669,0.0,0.0,0.0,-3.4235,-3.4463,-3.4652,-3.4776,-3.4776,-3.4548,-3.438,-3.4152,-3.3617,-3.3265,-3.3058,-3.2851,-3.2669,-3.2669,-3.2669,-3.2669,-3.2669,-3.2669,0.0,-3.2669,-3.2669,-3.2669,-3.2669,-3.2669,-3.2669,-3.2649,-3.2421,-3.2194,-3.1926,0.0,0.0,0.0,0.0,0.0,0.0,0.0,-1.3789,-1.3711,-1.3535,-1.3516,-1.3568,-1.3762,-1.4374,-1.4961,0.0,0.0,0.0,0.0,0.0,0.0,0.0,0.0,0.0,0.0,0.0,0.0,-1.9573,-1.9599,0.0,0.0,0.0,0.0,0.0,-2.2647,-2.2975,-2.3095,-2.3095,-2.3095,0.0,0.0,-2.178,0.0,0.0,0.0,0.0,0.0,-1.9334,-1.9737,-2.1927,-2.3419,-2.4634,-2.6003,-2.6832,-2.7247,-2.7004,-2.7081,-2.7309,-2.7309,-2.7309,-2.7309,-2.7309,-2.7309,-2.648,-2.3225,-2.2418,-2.1445,-1.8205,-1.7512,-1.7521,-1.7621,-1.8952,-2.0296,-2.1156,-2.3803,-2.6431,-2.8193,-2.9891,-3.134,-3.2401,-3.2607,0.0,-3.2669,-3.2669,0.0,0.0,0.0,0.0,-3.4879,-3.5231,-3.5418,-3.5418,-3.5086,-3.492,-3.4816,-3.409,-3.3575,-3.3368,-3.3037,-3.283,-3.2669,-3.2669,-3.2669,-3.2669,-3.2669,0.0,0.0,-3.2669,-3.2669,-3.2669,-3.2669,-3.2669,-3.2669,-3.2669,-3.2442,-3.2112,0.0,0.0,0.0,0.0,0.0,0.0,0.0,-1.4668,-1.4394,-1.3613,-1.3516,-1.3646,-1.4002,-1.4402,-1.4904,0.0,0.0,0.0,0.0,0.0,0.0,0.0,0.0,0.0,0.0,0.0,0.0,-1.8777,-1.9349,0.0,0.0,0.0,0.0,0.0,0.0,-2.2525,-2.3095,-2.3095,0.0,0.0,0.0,0.0,0.0,0.0,0.0,0.0,0.0,-1.9284,-1.8712,-2.2309,-2.2714,-2.1962,-2.3202,-2.5298,-2.7061,-2.5996,-2.6426,-2.7309,-2.7309,-2.7309,-2.7309,-2.7309,-2.7309,-2.648,-2.3225,-2.217,-2.0969,-1.773,-1.6855,-1.6735,-1.6878,-1.7387,-1.8489,-2.0617,-2.1786,-2.3721,-2.7448,-2.8856,-3.0139,-3.1843,0.0,0.0,-3.2669,-3.2669,0.0,0.0,0.0,0.0,0.0,-3.5397,-3.5418,-3.5418,-3.5376,-3.5169,-3.4816,-3.4733,-3.4217,-3.3368,-3.3348,-3.312,-3.2669,-3.2669,-3.2669,-3.2669,0.0,0.0,0.0,-3.2669,-3.2669,-3.2669,-3.2669,-3.2669,-3.2669,-3.2669,-3.2649,-3.2545,0.0,0.0,0.0,0.0,0.0,0.0,-1.4816,-1.4813,-1.457,-1.3938,-1.3646,-1.3646,-1.3995,-1.4189,-1.4668,-1.5623,0.0,0.0,0.0,0.0,0.0,0.0,0.0,0.0,0.0,0.0,-1.6415,-1.8335,-1.8403,0.0,0.0,0.0,0.0,0.0,0.0,0.0,-2.3065,-2.2677,0.0,0.0,0.0,0.0,0.0,0.0,0.0,0.0,0.0,0.0,-1.829,-2.1348,-2.1697,-2.0803,-2.0673,-2.2384,-2.4551,-2.5155,-2.565,-2.6227,-2.7081,-2.7309,-2.7309,-2.7309,-2.6641,-2.5337,-2.2687,-2.13,-1.9865,-1.728,-1.6678,-1.6666,-1.687,-1.707,-1.7584,-1.8773,-2.0279,-2.2059,-2.4054,-2.6252,-2.8338,-3.018,-3.105,0.0,0.0,0.0,0.0,0.0,0.0,0.0,0.0,-3.5418,-3.5418,-3.5418,-3.5418,-3.5335,-3.5148,-3.49,-3.4629,-3.4256,-3.3637,-3.3285,-3.312,-3.2851,-3.2669,-3.2669,0.0,0.0,0.0,-3.2669,-3.2669,-3.2669,-3.2669,-3.2669,-3.2669,-3.2669,-3.2669,-3.2649,0.0,0.0,0.0,0.0,0.0,-1.5003,-1.4816,-1.4668,-1.4465,-1.4099,-1.3743,-1.362,-1.3941,-1.4177,-1.4598,-1.5367,-1.5689,0.0,0.0,0.0,0.0,0.0,0.0,0.0,0.0,0.0,-1.5786,-1.7781,-1.7705,-1.8396,0.0,0.0,0.0,0.0,0.0,0.0,0.0,0.0,0.0,0.0,0.0,0.0,0.0,0.0,0.0,0.0,0.0,0.0,0.0,0.0,0.0,-1.9865,-1.9059,-2.0002,-2.1686,-2.343,-2.4531,-2.5396,-2.6392,-2.6998,-2.7309,-2.7309,-2.6248,-2.4633,-2.2374,-2.0814,-1.926,-1.7122,-1.6666,-1.6722,-1.6955,-1.7011,-1.7162,-1.7629,-1.9158,-2.0695,-2.1858,-2.4303,-2.6641,-2.8483,0.0,-3.0615,0.0,0.0,0.0,0.0,0.0,0.0,0.0,-3.5418,-3.5418,-3.5418,-3.5418,-3.5418,-3.5418,-3.5107,-3.49,-3.4816,-3.3969,-3.3513,-3.3368,-3.2934,-3.2669,-3.2669,0.0,0.0,0.0,-3.2669,-3.2669,-3.2669,-3.2669,-3.2669,-3.2669,-3.2669,-3.2669,-3.2669,0.0,0.0,0.0,0.0,0.0,0.0,-1.4844,-1.4414,-1.406,-1.3907,-1.3665,-1.3594,-1.3869,-1.4429,-1.4813,-1.4813,-1.5367,0.0,0.0,0.0,0.0,0.0,0.0,0.0,0.0,0.0,-1.5533,-1.7006,-1.7482,-1.8195,-1.9098,-1.9098,-1.9462,-2.0128,0.0,0.0,0.0,0.0,0.0,0.0,0.0,0.0,0.0,0.0,0.0,0.0,0.0,0.0,0.0,0.0,0.0,0.0,0.0,-1.8627,-1.892,-2.0498,-2.2966,-2.5189,-2.521,-2.6227,-2.7309,-2.7309,-2.6248,-2.4633,-2.2491,-2.0979,-1.9393,-1.7238,-1.6807,-1.6835,-1.6983,-1.7011,-1.7162,-1.7629,-1.8379,-1.9653,-2.1732,-2.3452,-2.5233,0.0,0.0,-2.9187,0.0,0.0,0.0,0.0,0.0,0.0,0.0,-3.5418,-3.5418,-3.5418,-3.5418,-3.5418,-3.5418,-3.5418,-3.519,-3.4816,-3.4339,-3.3824,-3.3368,-3.2934,-3.2669,0.0,0.0,0.0,0.0,-3.2669,-3.2669,-3.2669,-3.2669,-3.2669,-3.2669,-3.2669,-3.2669,-3.2669,0.0,0.0,0.0,0.0,0.0,0.0,0.0,-1.5098,-1.4972,-1.4915,-1.4601,-1.4379,-1.4358,-1.4352,-1.4282,-1.4274,-1.5133,0.0,0.0,0.0,0.0,0.0,0.0,0.0,0.0,-1.4964,-1.5725,-1.6581,-1.7801,-1.8635,-1.9098,-1.9198,-1.9561,-2.0096,-2.0323,0.0,0.0,0.0,0.0,0.0,0.0,0.0,0.0,0.0,0.0,0.0,0.0,0.0,0.0,0.0,0.0,0.0,0.0,0.0,0.0,-1.85,-2.0267,-2.2262,-2.3006,-2.3677,-2.4117,-2.3948,-2.2814,-2.1492,-2.0512,-1.9239,-1.8044,-1.7134,-1.6927,-1.7004,-1.7172,-1.72,-1.7296,-1.7658,-1.8102,-1.8871,-2.016,0.0,0.0,-2.681,-2.9642,-3.1609,0.0,0.0,0.0,0.0,0.0,0.0,0.0,-3.5418,-3.5418,-3.5418,-3.5418,-3.5418,-3.5418,-3.5418,-3.5355,-3.5211,-3.4424,-3.3989,-3.3824,-3.3078,0.0,0.0,0.0,0.0,0.0,-3.2669,-3.2669,-3.2669,-3.2669,-3.2669,-3.2669,-3.2669,-3.2669,-3.2669,0.0,0.0,0.0,0.0,0.0,0.0,0.0,-1.5273,-1.5206,-1.5323,-1.503,-1.4757,-1.4617,-1.4449,-1.4289,-1.4053,-1.4704,0.0,0.0,0.0,0.0,0.0,0.0,0.0,-1.4955,-1.5546,-1.6146,-1.6825,-1.7943,-1.8701,-1.9013,-1.9013,-1.9293,-1.9824,-1.9998,-2.0323,0.0,0.0,0.0,0.0,0.0,0.0,-1.7685,0.0,0.0,0.0,0.0,0.0,0.0,0.0,0.0,0.0,0.0,0.0,0.0,0.0,-1.8362,-1.9796,-2.1132,-2.2024,-2.2496,-2.2336,-2.1231,-2.0101,-1.9701,-1.854,-1.7498,-1.7175,-1.7117,-1.7145,-1.7278,-1.7306,-1.7403,-1.7658,-1.8123,-1.8956,-2.0329,0.0,0.0,-2.7264,0.0,0.0,0.0,0.0,0.0,0.0,0.0,0.0,0.0,0.0,-3.5418,-3.5418,-3.5418,-3.5418,-3.5418,-3.5418,-3.5418,-3.5418,-3.4507,-3.4132,-3.409,-3.3141,0.0,0.0,0.0,0.0,0.0,-3.2669,-3.2669,-3.2669,-3.2669,-3.2669,-3.2669,-3.2669,-3.2669,-3.2669,0.0,0.0,0.0,0.0,0.0,0.0,0.0,-1.5078,-1.4924,-1.5187,-1.4973,-1.4757,-1.4645,-1.4671,-1.4551,-1.4133,0.0,0.0,0.0,0.0,0.0,0.0,0.0,0.0,-1.6078,-1.6336,-1.6825,-1.7517,-1.7977,-1.8467,-1.8892,-1.868,-1.8815,-1.9255,-1.9759,-2.0009,-2.0063,-2.0664,-1.9928,-1.8363,-1.8511,-1.7931,0.0,0.0,0.0,0.0,0.0,0.0,0.0,0.0,0.0,0.0,0.0,0.0,0.0,0.0,0.0,0.0,0.0,-2.0935,-2.1951,-2.1967,-2.0949,-1.9935,-1.9673,-1.8619,0.0,-1.7366,-1.7306,-1.7328,-1.7322,-1.73,-1.7396,-1.7715,-1.8422,-1.9653,0.0,-2.3743,0.0,0.0,0.0,0.0,0.0,0.0,0.0,0.0,0.0,0.0,0.0,0.0,-3.5418,-3.5418,-3.5418,-3.5418,-3.5418,-3.5418,-3.5397,-3.5355,-3.4486,-3.4111,-3.3989,-3.312,0.0,0.0,0.0,0.0,0.0,-3.2669,-3.2669,-3.2669,-3.2669,-3.2669,-3.2669,-3.2669,-3.2669,-3.2669,0.0,0.0,0.0,0.0,0.0,0.0,0.0,0.0,0.0,0.0,-1.503,-1.4785,-1.4757,-1.4199,-1.3887,0.0,0.0,0.0,0.0,0.0,0.0,0.0,0.0,0.0,-1.5921,-1.6896,-1.7414,-1.7517,-1.8318,-1.8786,-1.8892,-1.8593,-1.8553,-1.8773,-1.8902,-1.9092,-1.9309,-1.9114,-1.8564,-1.7843,-1.7519,-1.7238,0.0,0.0,0.0,0.0,-1.8372,-1.8704,0.0,0.0,0.0,0.0,0.0,0.0,0.0,0.0,-1.6892,-1.7062,-1.7605,0.0,-1.8594,-1.8507,-1.8221,-1.7969,0.0,-1.7636,-1.7381,-1.73,-1.7306,-1.7359,-1.7564,-1.7433,-1.7557,-1.8258,-1.8691,-1.9885,-2.2751,0.0,0.0,-3.1526,0.0,0.0,0.0,0.0,0.0,0.0,0.0,0.0,0.0,0.0,-3.5418,-3.5418,-3.5418,-3.5418,-3.5418,-3.5418,-3.5252,-3.49,-3.4341,-3.3945,-3.3513,-3.2975,0.0,0.0,0.0,0.0,-3.2669,-3.2669,-3.2669,-3.2669,-3.2669,-3.2669,-3.2669,-3.2669,-3.2669,-3.2669,0.0,0.0,0.0,0.0,0.0,0.0,0.0,0.0,0.0,0.0,0.0,-1.4785,-1.4701,-1.4172,0.0,0.0,0.0,0.0,0.0,0.0,0.0,0.0,0.0,-1.6022,-1.6812,-1.7648,-1.8053,-1.8046,-1.8769,-1.9006,-1.8791,-1.8533,-1.8591,-1.885,-1.8722,-1.8688,-1.8766,-1.8278,-1.7792,-1.7378,-1.7337,0.0,0.0,0.0,0.0,0.0,-1.8642,-1.8891,0.0,-1.9098,-1.9098,-1.8953,0.0,0.0,0.0,0.0,-1.6807,-1.6835,-1.7088,-1.7291,-1.7496,-1.7413,-1.7435,-1.747,-1.747,-1.7403,-1.7306,-1.7306,-1.7306,-1.7344,-1.7492,-1.7687,-1.8024,-1.8638,-1.9796,0.0,0.0,0.0,-3.039,0.0,0.0,0.0,0.0,0.0,0.0,0.0,0.0,0.0,0.0,0.0,-3.5335,-3.5128,-3.5128,-3.5211,-3.5418,-3.5211,-3.5004,-3.4816,-3.4132,-3.3617,-3.3368,-3.2934,0.0,0.0,0.0,0.0,-3.2669,-3.2669,-3.2669,-3.2669,-3.2669,-3.2669,-3.2669,-3.2669,-3.2669,-3.2669,0.0,0.0,0.0,0.0,0.0,0.0,0.0,0.0,0.0,0.0,0.0,0.0,0.0,0.0,0.0,0.0,0.0,0.0,0.0,0.0,0.0,0.0,-1.6386,-1.6929,-1.7863,-1.8242,-1.8559,-1.8807,-1.9038,-1.8995,-1.8668,-1.8335,-1.8468,-1.8879,-1.8744,-1.8521,-1.8257,-1.7792,-1.742,-1.7151,-1.7461,0.0,0.0,0.0,0.0,0.0,0.0,0.0,0.0,-1.9015,-1.8994,-1.8849,-1.7874,0.0,0.0,0.0,0.0,0.0,-1.7225,-1.7599,-1.7811,-1.7539,-1.7592,-1.7672,-1.7636,-1.7477,-1.7306,-1.7306,-1.7306,-1.7344,-1.7505,-1.8019,-1.8548,-1.9051,0.0,0.0,-2.7655,-2.9104,-3.0263,0.0,0.0,0.0,0.0,0.0,0.0,0.0,0.0,0.0,0.0,0.0,0.0,-3.4733,-3.4712,-3.4838,-3.5211,-3.4838,-3.4671,-3.4608,-3.3762,-3.3348,-3.3265,-3.2892,0.0,0.0,0.0,0.0,-3.2669,-3.2669,-3.2669,-3.2669,-3.2669,-3.2669,-3.2669,-3.2669,-3.2669,-3.2669,0.0,0.0,0.0,0.0,0.0,0.0,0.0,0.0,0.0,0.0,0.0,0.0,0.0,0.0,0.0,0.0,0.0,0.0,0.0,0.0,0.0,-1.732,-1.7073,-1.7211,-1.7914,-1.8119,-1.8609,-1.931,-1.8395,-1.8162,-1.8516,-1.7615,-1.7341,-1.7615,-1.8208,-1.8206,-1.7771,-1.7316,-1.7296,-1.7564,-1.7254,0.0,0.0,0.0,0.0,0.0,0.0,0.0,0.0,-1.8642,-1.8517,-1.8319,-1.7399,0.0,0.0,0.0,0.0,0.0,-1.7297,-1.8522,-1.9261,-1.7716,-1.7528,-1.7636,-1.7418,-1.7322,-1.7306,-1.7306,-1.7306,-1.7564,-1.8495,-1.8526,-1.8775,-1.999,0.0,-2.6729,0.0,0.0,0.0,0.0,0.0,0.0,0.0,0.0,0.0,0.0,0.0,0.0,0.0,0.0,0.0,-3.4235,-3.4235,-3.4256,-3.4279,-3.4217,-3.4049,-3.3575,-3.3451,-3.3182,-3.283,-3.2711,-3.2669,0.0,0.0,-3.2669,-3.2669,-3.2669,-3.2669,-3.2669,-3.2669,-3.2669,-3.2669,-3.2669,-3.2669,-3.2669,0.0,0.0,0.0,0.0,0.0,0.0,0.0,0.0,0.0,0.0,0.0,0.0,0.0,0.0,0.0,0.0,0.0,0.0,0.0,0.0,-1.7061,-1.7475,-1.7547,-1.7802,-1.826,-1.8401,-1.8655,-1.9026,-1.8238,-1.7962,-1.8097,-1.7556,-1.7453,-1.7793,-1.7788,-1.7801,-1.777,-1.7243,-1.7275,-1.7709,0.0,0.0,0.0,0.0,0.0,0.0,0.0,0.0,0.0,0.0,-1.803,-1.7905,-1.7213,0.0,0.0,0.0,0.0,0.0,-1.7256,-1.8016,-1.8649,-1.8671,-1.9522,-2.0363,-2.0254,-2.012,-1.9801,-1.9008,-1.9072,-1.919,-1.8924,-1.9876,-2.1613,-2.4386,0.0,-2.7945,0.0,0.0,0.0,0.0,0.0,0.0,0.0,0.0,0.0,0.0,0.0,0.0,0.0,0.0,0.0,0.0,-3.3699,-3.3575,-3.3348,-3.3348,-3.3348,-3.3368,-3.3141,-3.2934,-3.2669,-3.2669,-3.2669,-3.2669,0.0,-3.2669,-3.2669,-3.2669,-3.2669,-3.2669,-3.2669,-3.2669,-3.2669,-3.2669,-3.2669,-3.2669,0.0,0.0,0.0,0.0,0.0,0.0,0.0,0.0,0.0,0.0,0.0,0.0,0.0,0.0,0.0,0.0,0.0,0.0,0.0,-1.7363,-1.7685,-1.7619,-1.8014,-1.8312,-1.8563,-1.8462,-1.8433,-1.8523,-1.8065,-1.7832,-1.7795,-1.7704,-1.785,-1.8119,-1.7775,-1.7705,-1.7801,-1.7347,-1.7471,-1.7957,0.0,0.0,0.0,0.0,0.0,0.0,0.0,0.0,0.0,0.0,0.0,0.0,0.0,0.0,0.0,-1.6771,-1.6694,-1.6744,-1.7212,-1.7693,-1.8327,-1.9586,-2.0716,-2.1718,-2.2457,-2.213,-2.1543,-2.0956,-2.1125,-2.1062,-1.997,-2.1639,0.0,-2.7572,-2.8297,0.0,0.0,0.0,0.0,0.0,0.0,0.0,0.0,0.0,0.0,0.0,0.0,0.0,0.0,0.0,0.0,0.0,-3.3223,-3.3058,-3.2669,-3.2669,-3.2892,-3.3223,-3.2892,-3.2669,-3.2669,-3.2669,-3.2669,-3.2669,-3.2669,-3.2669,-3.2669,-3.2669,-3.2669,-3.2669,-3.2669,-3.2669,-3.2669,-3.2669,-3.2669,-3.2669,0.0,0.0,0.0,0.0,0.0,0.0,0.0,0.0,0.0,0.0,0.0,0.0,0.0,0.0,0.0,0.0,0.0,0.0,0.0,-1.7734,-1.807,-1.822,-1.8388,-1.8441,-1.8423,-1.7807,-1.767,-1.8065,-1.7562,-1.7505,-1.7795,-1.8025,-1.8108,-1.8018,-1.8417,-1.8249,-1.7688,-1.7668,-1.8041,-1.8617,-1.8478,0.0,0.0,0.0,0.0,0.0,0.0,0.0,0.0,0.0,0.0,0.0,0.0,0.0,-1.6472,-1.6581,-1.6694,-1.6885,-1.736,-1.8538,-1.9726,-2.0071,-1.9126,-1.8826,-2.1691,-2.1105,-2.0505,-2.2315,-2.2741,-2.2682,-2.2461,-2.3473,-2.4902,-2.6521,-2.8483,0.0,0.0,0.0,0.0,0.0,0.0,0.0,0.0,0.0,0.0,0.0,0.0,0.0,0.0,0.0,0.0,0.0,0.0,-3.2711,-3.2669,-3.2669,-3.2747,-3.2768,-3.2747,-3.2669,-3.2669,-3.2669,-3.2669,-3.2669,-3.2669,-3.2669,-3.2669,-3.2669,-3.2669,-3.2669,-3.2669,-3.2669,-3.2669,-3.2669,-3.2669,-3.2669,0.0,0.0,0.0,0.0,0.0,0.0,0.0,0.0,0.0,0.0,0.0,0.0,0.0,0.0,0.0,0.0,0.0,0.0,0.0,-1.8012,-1.8178,-1.811,-1.8279,-1.8141,-1.7662,-1.7347,-1.7214,-1.7256,-1.7499,-1.7781,-1.8167,-1.8393,-1.868,-1.8966,-1.847,-1.8333,-1.8449,-1.8375,-1.8615,-1.9067,-1.8915,-1.8986,0.0,0.0,0.0,0.0,0.0,0.0,0.0,0.0,-1.6643,-1.6601,-1.6464,-1.6402,-1.6431,-1.6552,-1.6637,-1.6765,-1.7106,-1.8389,-1.9755,-2.0258,-1.9918,-2.0227,-2.3166,-2.3819,-2.3987,-2.4639,-2.5222,-2.5534,-2.5199,0.0,-2.7427,-2.8524,0.0,0.0,0.0,0.0,0.0,0.0,0.0,0.0,0.0,0.0,0.0,0.0,0.0,0.0,0.0,0.0,0.0,0.0,0.0,-3.2669,-3.2669,-3.2669,-3.2669,-3.2669,-3.2669,-3.2669,-3.2669,-3.2669,-3.2669,-3.2669,-3.2669,-3.2669,-3.2669,-3.2669,-3.2669,-3.2669,-3.2669,-3.2669,-3.2669,-3.2669,-3.2669,-3.2669,0.0,0.0,0.0,0.0,0.0,0.0,0.0,0.0,0.0,0.0,0.0,0.0,0.0,0.0,0.0,0.0,0.0,0.0,-1.8008,-1.8144,-1.8144,-1.8008,-1.8006,-1.783,-1.7471,-1.7012,-1.6808,-1.6807,-1.7562,-1.8192,-1.8752,-1.903,-1.9432,-1.9873,-1.9072,-1.8934,-1.9274,-1.9017,-1.909,-1.9384,-1.9264,-1.9213,0.0,0.0,0.0,0.0,0.0,0.0,0.0,0.0,-1.6402,-1.6402,-1.6402,-1.6402,-1.6431,-1.6495,-1.6609,-1.6694,-1.687,-1.7948,-1.9222,-2.008,-2.0488,-2.1474,-2.4346,-2.5206,-2.5687,-2.6563,-2.7241,-2.7593,-2.7262,-2.8214,0.0,0.0,0.0,0.0,0.0,0.0,0.0,0.0,0.0,0.0,0.0,0.0,0.0,0.0,0.0,0.0,0.0,0.0,0.0,0.0,0.0,0.0,-3.2669,-3.2669,-3.2669,-3.2669,-3.2669,-3.2669,-3.2669,-3.2669,-3.2669,-3.2669,-3.2669,-3.2669,-3.2669,-3.2669,-3.2669,-3.2669,-3.2669,-3.2669,-3.2669,-3.2669,-3.2669,-3.2555,0.0,0.0,0.0,0.0,0.0,0.0,0.0,0.0,0.0,0.0,0.0,0.0,0.0,0.0,0.0,0.0,0.0,0.0,-1.7974,-1.8008,-1.8008,-1.8008,-1.7617,-1.7598,-1.8008,-1.677,-1.6336,-1.68,-1.7675,-1.8585,-1.9528,-1.9995,-2.033,-2.059,-2.0386,-2.0215,-2.007,-1.954,-1.9417,-1.9615,-1.9615,-1.9436,-1.9157,0.0,0.0,0.0,0.0,0.0,0.0,0.0,-1.6402,-1.6402,-1.6402,-1.6402,-1.6402,-1.6402,-1.6602,-1.6807,-1.6807,-1.742,-1.8333,-1.9501,-2.0543,-2.1965,-2.4787,-2.4556,-2.4682,-2.7931,-2.8628,-2.8628,-2.8628,-2.9373,0.0,0.0,0.0,0.0,0.0,0.0,0.0,0.0,0.0,0.0,0.0,0.0,0.0,0.0,0.0,0.0,0.0,0.0,0.0,0.0,0.0,0.0,-3.2669,-3.2669,-3.2669,-3.2669,-3.2669,-3.2669,-3.2669,-3.2669,-3.2669,-3.2669,-3.2669,-3.2669,-3.2669,-3.2669,-3.2669,-3.2669,-3.2669,-3.2669,-3.2669,-3.2669,-3.2555,-3.2305,0.0,0.0,0.0,0.0,0.0,0.0,0.0,0.0,0.0,0.0,0.0,0.0,0.0,0.0,0.0,0.0,0.0,0.0,-1.7974,-1.7852,-1.7988,-1.8403,-1.8286,-1.8184,-1.8008,-1.7813,-1.7349,-1.6593,-1.7987,-1.8967,-1.9583,-2.039,-2.0706,-2.059,-2.0386,-2.016,-1.994,-1.9625,-1.955,-1.9583,-1.933,-1.8992,-1.8585,0.0,0.0,0.0,0.0,0.0,0.0,0.0,0.0,0.0,-1.6402,-1.6402,-1.6402,-1.6402,-1.6602,-1.6807,-1.6807,-1.8881,-2.0898,-2.0411,-2.228,-2.4514,-2.5685,-2.5915,-2.6581,-2.9072,-2.958,-2.9477,-2.9166,-3.0118,0.0,0.0,0.0,0.0,0.0,0.0,0.0,0.0,0.0,0.0,0.0,0.0,0.0,0.0,0.0,0.0,0.0,0.0,0.0,0.0,0.0,0.0,-3.2669,-3.2669,-3.2669,-3.2669,-3.2669,-3.2669,-3.2669,-3.2669,-3.2669,-3.2669,-3.2669,-3.2669,-3.2669,-3.2498,-3.242,-3.2363,-3.2133,-3.219,-3.2383,-3.2133,-3.219,-3.2248,0.0,0.0,0.0,0.0,0.0,0.0,0.0,0.0,0.0,0.0,-1.7803,-1.7818,0.0,0.0,0.0,0.0,0.0,0.0,0.0,-1.8104,-1.8298,-1.8831,-1.8695,-1.8403,-1.8027,-1.8474,-1.8194,-1.711,-1.8535,-1.9396,-1.9779,-2.0695,-2.1027,-2.087,-2.0732,-2.0561,-2.0295,-1.9897,-1.9681,-1.9615,-1.9517,-1.9114,-1.85,0.0,0.0,0.0,0.0,0.0,0.0,0.0,0.0,0.0,-1.6402,-1.6402,-1.6402,-1.6459,-1.663,-1.6949,-1.7692,-1.9689,-2.17,-2.2094,-2.3861,-2.5811,-2.691,-2.7488,-2.8209,-2.9663,-3.0139,-3.0243,-3.0139,-3.0967,0.0,0.0,0.0,0.0,0.0,0.0,0.0,0.0,0.0,0.0,0.0,0.0,0.0,0.0,0.0,0.0,0.0,0.0,0.0,0.0,0.0,0.0,-3.2669,-3.2669,-3.2669,-3.2669,-3.2669,-3.2669,-3.2669,-3.2669,-3.2669,-3.2669,-3.2669,-3.2669,-3.2669,-3.242,-3.2305,-3.2248,-3.1903,-3.1903,-3.2076,-3.1845,-3.1845,-3.1845,0.0,0.0,0.0,0.0,0.0,0.0,0.0,0.0,0.0,0.0,-1.7545,-1.7716,0.0,0.0,0.0,0.0,0.0,0.0,0.0,-1.8656,-1.8851,-1.9316,-1.8965,-1.8539,-1.8203,-1.8903,-1.8883,-1.81,-1.9089,-1.9686,-1.9933,-2.071,-2.1129,-2.1172,-2.1245,-2.1075,-2.0778,-2.0125,-1.9705,-1.9521,-1.9814,-1.9399,-1.8572,-1.8473,0.0,0.0,0.0,0.0,0.0,0.0,0.0,0.0,-1.6402,-1.6402,-1.6431,-1.6552,-1.6792,-1.7387,-1.9062,-2.0169,-2.1524,-2.4136,-2.5309,-2.6309,-2.8201,-2.9001,-2.9477,-2.9911,-3.0325,-3.0781,-3.1278,-3.1712,0.0,0.0,0.0,0.0,0.0,0.0,0.0,0.0,0.0,0.0,0.0,0.0,0.0,0.0,0.0,0.0,0.0,0.0,0.0,0.0,0.0,0.0,-3.2669,-3.2669,-3.2669,0.0,-3.2669,-3.2669,-3.2669,-3.2669,-3.2669,-3.2669,-3.2669,-3.2669,-3.2612,-3.2363,-3.2248,-3.219,-3.1845,-3.173,-3.173,-3.173,-3.1556,-3.1325,0.0,0.0,0.0,0.0,0.0,0.0,0.0,0.0,0.0,0.0,0.0,0.0,0.0,0.0,0.0,0.0,0.0,0.0,0.0,-1.9015,-1.9153,-1.9766,-1.9687,-1.959,-1.9512,-1.933,-1.9134,-1.8934,-1.8811,-1.8961,-1.9318,-2.0021,-2.0281,-2.0202,-2.0631,-2.039,-1.9555,-1.9426,-1.9092,-1.8664,-1.8624,-1.8282,-1.7747,-1.7739,-1.7318,0.0,0.0,0.0,0.0,0.0,0.0,0.0,-1.6402,-1.6402,-1.6431,-1.6552,-1.7639,-1.8859,-1.9368,-2.1644,-2.4011,-2.4661,-2.6364,-2.8056,-2.8504,-2.9249,-2.987,-2.9973,-3.0077,-3.0408,-3.1236,0.0,0.0,0.0,0.0,0.0,0.0,0.0,0.0,0.0,0.0,0.0,0.0,0.0,0.0,0.0,0.0,0.0,0.0,0.0,0.0,0.0,0.0,-3.2669,-3.2669,-3.2669,-3.2669,0.0,-3.2669,-3.2669,-3.2669,-3.2669,-3.2669,-3.2669,-3.2669,-3.2555,-3.2363,-3.2018,-3.173,-3.1498,-3.1228,-3.1228,-3.1383,-3.117,-3.117,-3.1267,0.0,0.0,0.0,0.0,0.0,0.0,0.0,0.0,0.0,0.0,0.0,0.0,0.0,0.0,0.0,0.0,0.0,0.0,0.0,0.0,-1.9673,-2.0215,-1.9844,-1.9609,-1.9609,-1.9163,-1.8834,-1.8636,-1.8398,-1.8448,-1.8831,-1.9492,-1.9851,-1.9855,-2.0398,-2.0236,-1.9512,-1.9296,-1.8908,-1.8394,-1.8355,-1.8107,-1.7707,-1.7501,-1.7146,-1.6751,-1.6581,0.0,0.0,0.0,0.0,0.0,0.0,0.0,-1.6431,-1.6552,-1.7332,-1.847,-2.0204,-2.2117,-2.399,-2.5576,-2.7289,-2.8607,-2.8607,-2.9332,-2.9994,-2.9994,-2.9994,-3.0284,0.0,0.0,0.0,0.0,0.0,0.0,0.0,0.0,0.0,0.0,0.0,0.0,0.0,0.0,0.0,0.0,0.0,0.0,0.0,0.0,0.0,0.0,-3.2669,-3.2669,-3.2669,-3.2669,-3.2669,-3.2669,-3.2669,-3.2669,-3.2669,-3.2669,-3.2669,-3.2669,-3.2669,-3.2555,-3.2248,-3.196,-3.1614,-3.1267,-3.0995,-3.0995,-3.1112,-3.0937,-3.0995,-3.1112,0.0,0.0,0.0,0.0,0.0,0.0,0.0,0.0,0.0,0.0,0.0,0.0,0.0,0.0,0.0,0.0,0.0,0.0,0.0,0.0,0.0,-2.037,-1.9668,-1.9241,-1.9297,-1.8831,-1.8422,-1.8091,-1.8013,-1.8056,-1.8361,-1.9075,-1.9479,-1.9713,-2.0207,-2.0123,-1.9566,-1.92,-1.8705,-1.8197,-1.8218,-1.8099,-1.7839,-1.7461,-1.7119,-1.6807,-1.6573,-1.6459,-1.6431,-1.6402,0.0,0.0,0.0,0.0,-1.6459,-1.6581,-1.6927,-1.7917,-2.0764,-2.2138,-2.3482,-2.6526,-2.7945,-2.8607,-2.8607,-2.9332,-2.9994,-2.9994,-2.9994,0.0,0.0,0.0,0.0,0.0,0.0,0.0,0.0,0.0,0.0,0.0,0.0,0.0,0.0,0.0,0.0,0.0,0.0,0.0,0.0,0.0,-3.2669,-3.2669,-3.2669,-3.2669,-3.2669,-3.2669,-3.2669,-3.2669,-3.2669,-3.2669,-3.2669,-3.2669,-3.2669,-3.2669,-3.2669,-3.2498,-3.219,-3.1845,-3.1498,-3.1228,-3.0995,-3.0898,-3.0898,-3.0898,-3.0898,-3.0898,0.0,0.0,0.0,0.0,0.0,0.0,0.0,0.0,0.0,0.0,-1.911,-1.9219,0.0,0.0,0.0,0.0,0.0,0.0,0.0,0.0,0.0,-1.9473,-1.9209,-1.9114,-1.9297,-1.8831,-1.8578,-1.852,-1.7992,-1.7681,-1.7651,-1.8577,-1.9061,-1.9202,-1.963,-1.9297,-1.8403,-1.8348,-1.7994,-1.7425,-1.7262,-1.7296,-1.7394,-1.7309,-1.7182,-1.6955,-1.6807,-1.6666,-1.6552,-1.6431,-1.6402,0.0,0.0,0.0,-1.6581,-1.6581,-1.7814,-1.9253,-1.9728,-2.2096,-2.4932,-2.6838,-2.7945,-2.8607,-2.8607,-2.9332,-2.9994,0.0,0.0,0.0,0.0,0.0,0.0,0.0,0.0,0.0,0.0,0.0,0.0,0.0,0.0,0.0,0.0,0.0,0.0,0.0,0.0,0.0,0.0,-3.2669,-3.2669,-3.2669,-3.2669,-3.2669,-3.2669,-3.2669,-3.2669,-3.2669,-3.2669,-3.2669,-3.2669,-3.244,-3.2498,-3.2669,-3.242,-3.219,-3.1845,-3.1498,-3.1228,-3.0937,-3.0898,-3.0898,-3.0898,-3.0898,-3.0898,-3.0898,0.0,0.0,0.0,0.0,0.0,0.0,0.0,0.0,0.0,0.0,0.0,-1.9727,0.0,0.0,0.0,0.0,0.0,0.0,0.0,0.0,0.0,-1.9277,-1.8757,-1.8585,-1.889,-1.8461,-1.8247,-1.8247,-1.7983,-1.7784,-1.7632,-1.8149,-1.837,-1.8327,-1.8934,-1.8754,-1.8027,-1.8037,-1.7688,-1.7117,-1.687,-1.7483,-1.8407,-1.7327,-1.7533,-1.8242,-1.7082,-1.6666,-1.6581,-1.6459,-1.6402,-1.6402,-1.6402,0.0,0.0,0.0,-1.7198,-1.8426,-2.049,-2.2874,-2.5182,-2.69,-2.7945,-2.8607,-2.8607,-2.9332,-2.9994,-2.9994,0.0,0.0,0.0,0.0,0.0,0.0,0.0,0.0,0.0,0.0,0.0,0.0,0.0,0.0,0.0,0.0,0.0,0.0,0.0,0.0,-3.2669,-3.2669,-3.2669,-3.2669,-3.2669,-3.2669,-3.2669,-3.2669,-3.2612,-3.2498,-3.2498,-3.2498,-3.2477,-3.2363,-3.2363,-3.244,-3.2133,-3.1845,-3.1498,-3.1383,-3.117,-3.0898,-3.0898,-3.0898,-3.0898,-3.0898,-3.0898,-3.0898,0.0,0.0,0.0,0.0,0.0,0.0,0.0,0.0,0.0,0.0,0.0,0.0,0.0,0.0,0.0,0.0,0.0,0.0,0.0,0.0,0.0,-1.8965,-1.8305,-1.8076,-1.8442,-1.813,-1.8008,-1.8008,-1.794,-1.7837,-1.7647,-1.7769,-1.7716,-1.7681,-1.8395,-1.8467,-1.8051,-1.7925,-1.7633,-1.7198,-1.7302,-1.8246,-1.9413,-1.8047,-1.8458,-1.9498,-1.7539,-1.6835,-1.6785,-1.6558,-1.6431,-1.6402,-1.6402,-1.6431,0.0,0.0,0.0,-1.7501,-2.0772,-2.2569,-2.4032,-2.6135,-2.7309,-2.8097,-2.8504,0.0,-2.9994,0.0,0.0,0.0,0.0,0.0,0.0,0.0,0.0,0.0,0.0,0.0,0.0,0.0,0.0,0.0,0.0,0.0,0.0,0.0,0.0,0.0,-3.2669,-3.2669,-3.2669,-3.2669,-3.2669,-3.2669,-3.2669,-3.2612,-3.244,-3.219,-3.219,-3.219,-3.219,-3.2076,-3.2076,-3.2018,-3.1787,-3.1556,-3.1267,-3.1228,-3.1112,-3.0898,-3.0898,-3.0898,-3.0898,-3.0898,-3.0898,-3.0898,0.0,0.0,0.0,0.0,0.0,0.0,0.0,0.0,0.0,0.0,0.0,0.0,-2.0605,-2.0195,-1.9885,-1.9753,-1.933,0.0,0.0,0.0,0.0,-1.8086,-1.7837,0.0,-1.8047,-1.8027,-1.8008,-1.8008,-1.7818,-1.7647,-1.7495,-1.7323,-1.7358,-1.7529,-1.8212,-1.852,-1.8511,-1.8072,-1.7823,-1.775,-1.8892,-1.9509,-1.979,-1.9944,-2.019,-2.0175,-1.8169,-1.7437,-1.7352,-1.6764,-1.6495,-1.6402,-1.6402,-1.6488,-1.6552,0.0,0.0,0.0,-1.9362,-1.9994,-2.082,-2.4115,-2.5578,-2.666,0.0,0.0,0.0,0.0,0.0,0.0,0.0,0.0,0.0,0.0,0.0,0.0,0.0,0.0,0.0,0.0,0.0,0.0,0.0,0.0,0.0,0.0,0.0,0.0,-3.2669,-3.2669,-3.2669,-3.2669,-3.2669,-3.2669,-3.2669,-3.244,-3.2133,-3.1845,-3.1845,-3.1845,-3.1845,-3.1498,-3.1325,-3.1325,-3.1325,-3.1325,-3.1267,-3.0995,-3.0898,-3.0898,-3.0898,-3.0898,-3.0898,-3.0898,-3.0898,-3.0898,0.0,0.0,0.0,0.0,0.0,0.0,0.0,0.0,0.0,0.0,0.0,0.0,0.0,-2.0,-1.9767,-1.9477,-1.9013,0.0,0.0,0.0,0.0,-1.8008,-1.794,-1.794,-1.8008,-1.8008,-1.8008,-1.8008,-1.7784,-1.7613,-1.7495,-1.727,-1.7304,-1.7514,-1.7974,-1.8241,-1.8265,-1.803,-1.7784,-1.7667,-1.8881,-2.0133,-2.1159,-2.0525,-2.1506,-2.291,-2.0249,0.0,-1.8458,-1.8027,-1.7144,-1.6153,-1.5865,-1.5931,-1.6104,-1.5951,-1.6181,-1.6834,-1.8589,-1.9417,-2.03,-2.2363,-2.4513,-2.6243,-2.6863,-2.8533,0.0,0.0,0.0,0.0,0.0,0.0,0.0,0.0,0.0,0.0,0.0,0.0,0.0,0.0,0.0,0.0,0.0,0.0,0.0,0.0,0.0,0.0,-3.2669,-3.2555,-3.244,-3.244,-3.2248,-3.2133,-3.2133,-3.1787,-3.1614,-3.1498,-3.1498,-3.1498,-3.1498,-3.1325,-3.1325,-3.1267,-3.1112,-3.1054,-3.1054,-3.0937,-3.0898,-3.0898,-3.0898,-3.0898,-3.0898,-3.0898,-3.0898,-3.0898,0.0,0.0,0.0,0.0,0.0,0.0,0.0,0.0,0.0,-2.0275,0.0,0.0,0.0,0.0,-1.9134,-1.8727,-1.8418,-1.8058,-1.7666,-1.7872,-1.7974,-1.7906,-1.7974,-1.8008,-1.8008,-1.8008,-1.8008,-1.8008,-1.775,-1.7613,-1.7564,-1.7304,-1.7282,-1.7388,-1.7591,-1.775,-1.7878,-1.7924,-1.7727,-1.7522,-1.959,-2.112,-2.2059,-2.1487,-2.2541,-2.4011,0.0,0.0,0.0,-1.9594,-1.8832,-1.7702,-1.6682,-1.6059,-1.57,-1.5613,-1.5816,-1.6311,-1.7448,-1.8154,-1.8922,-2.0545,-2.2362,-2.4197,-2.5636,0.0,0.0,0.0,0.0,0.0,0.0,0.0,0.0,0.0,0.0,0.0,0.0,0.0,0.0,0.0,0.0,0.0,0.0,0.0,0.0,0.0,0.0,0.0,-3.2383,-3.2248,-3.2133,-3.2133,-3.1903,-3.173,-3.1614,-3.1383,-3.1267,-3.117,-3.117,-3.117,-3.117,-3.117,-3.117,-3.117,-3.0995,-3.0898,-3.0898,-3.0898,-3.0898,-3.0898,-3.0898,-3.0898,-3.0898,-3.0898,-3.0898,-3.0898,0.0,0.0,0.0,0.0,0.0,0.0,0.0,0.0,-1.9582,-1.9563,0.0,0.0,0.0,0.0,0.0,-1.7533,-1.7495,-1.7495,-1.7495,-1.7803,-1.7906,-1.7716,0.0,0.0,-1.8008,-1.7974,-1.7974,-1.7974,-1.7666,-1.7564,-1.7662,-1.7339,-1.7166,-1.7067,-1.7067,-1.7199,-1.7409,-1.7878,-1.7677,-1.7367,-2.1193,-2.258,-2.2442,-2.3035,-2.3409,0.0,-2.1502,-2.0854,0.0,-2.1497,0.0,0.0,-1.8825,-1.6853,-1.541,-1.5526,-1.5584,-1.5642,0.0,0.0,0.0,-1.8583,0.0,0.0,-2.4486,0.0,0.0,0.0,0.0,0.0,0.0,0.0,0.0,0.0,0.0,0.0,0.0,0.0,0.0,0.0,0.0,0.0,0.0,0.0,0.0,0.0,0.0,-3.1787,-3.1787,-3.1787,-3.1787,-3.1787,-3.1787,-3.1614,-3.1267,-3.1267,-3.117,-3.0898,-3.0898,-3.0898,-3.0898,-3.0898,-3.0898,-3.0898,-3.0898,-3.0898,-3.0898,-3.0898,-3.0898,-3.0898,-3.0898,-3.0898,-3.0898,-3.0898,-3.0898,-3.0898,0.0,0.0,0.0,0.0,0.0,-2.0197,-1.9908,-1.9602,-1.9298,0.0,0.0,0.0,-1.8383,-1.7948,-1.7628,-1.7514,-1.7598,-1.7647,-1.7647,-1.7872,-1.7974,-1.794,-1.7974,-1.8008,-1.8008,-1.7852,-1.7784,-1.7784,-1.7442,-1.7304,-1.7339,-1.7097,-1.6973,-1.6949,-1.6949,-1.6966,-1.701,-1.746,-1.7727,-1.8171,-2.1782,-2.3383,-2.378,-2.5265,0.0,0.0,0.0,-2.4308,-2.3614,0.0,-2.193,-1.9821,-1.7421,-1.5781,-1.4773,-1.4803,-1.5049,-1.5323,-1.5313,0.0,0.0,0.0,0.0,0.0,0.0,0.0,0.0,0.0,0.0,0.0,0.0,0.0,0.0,0.0,0.0,0.0,0.0,0.0,0.0,0.0,0.0,0.0,0.0,0.0,0.0,0.0,-3.1361,-3.1445,-3.1767,-3.1556,-3.1325,-3.117,-3.117,-3.1112,-3.0995,-3.0995,-3.0937,-3.0898,-3.0898,-3.0898,-3.0898,-3.0898,-3.0898,-3.0898,-3.0898,-3.0898,-3.0898,-3.0898,-3.0898,-3.0898,-3.0898,-3.0898,-3.0898,-3.0898,-3.0898,-3.0898,0.0,0.0,0.0,0.0,0.0,-1.9735,-1.9793,-1.9298,-1.8826,0.0,0.0,0.0,-1.7628,-1.7404,-1.7289,-1.7358,-1.7442,-1.7545,-1.7613,-1.7784,-1.7852,-1.7852,-1.7974,-1.8008,-1.8008,-1.7958,-1.795,-1.795,-1.7602,-1.7497,-1.7567,-1.719,-1.6954,-1.6754,-1.6754,-1.6615,-1.637,-1.696,-1.746,-1.825,-2.2063,-2.3699,-2.4033,-2.5993,-2.7076,0.0,0.0,0.0,-2.5398,-2.5491,-2.3387,0.0,0.0,-1.7078,-1.5536,-1.5124,-1.5359,-1.573,-1.5437,-1.557,-1.5772,-1.5767,0.0,0.0,-2.0269,-2.1769,0.0,0.0,0.0,0.0,0.0,0.0,0.0,0.0,0.0,0.0,0.0,0.0,0.0,0.0,0.0,0.0,0.0,0.0,0.0,0.0,-3.0664,-3.0906,-3.1363,-3.1228,-3.1054,-3.0898,-3.0898,-3.0898,-3.0898,-3.0898,-3.0898,-3.0898,-3.0898,-3.0898,-3.0898,-3.0898,-3.0898,-3.0898,-3.0898,-3.0898,-3.0898,-3.0898,-3.0898,-3.0898,-3.0898,-3.0898,-3.0898,-3.0898,-3.0898,-3.0898,0.0,0.0,-1.9317,-1.9601,-1.9279,-1.9162,-1.9731,-1.8976,-1.836,0.0,-1.7651,-1.7116,-1.6963,-1.6963,-1.7051,-1.7297,-1.7332,-1.742,-1.7612,-1.7732,-1.7816,-1.7816,-1.7973,-1.8095,-1.8095,-1.8254,-1.8304,-1.8304,-1.7962,-1.7872,-1.8031,-1.7441,-1.698,-1.6678,-1.6645,-1.6355,-1.5975,-1.6628,-1.7311,-1.8214,-2.228,-2.3784,0.0,0.0,-2.6904,-2.681,-2.681,-2.6668,-2.6547,-2.7341,-2.5208,0.0,0.0,0.0,0.0,0.0,-1.6373,-1.6805,-1.6248,-1.5856,-1.5651,-1.5936,0.0,0.0,-2.0478,-2.1516,-2.2748,0.0,0.0,0.0,0.0,0.0,0.0,0.0,0.0,0.0,0.0,0.0,0.0,0.0,0.0,0.0,0.0,0.0,-2.9133,-2.9806,-3.0052,-3.0332,-3.0781,-3.082,-3.084,-3.0898,-3.0898,-3.0898,-3.0898,-3.0898,-3.0898,-3.0898,-3.0898,-3.0898,-3.0898,-3.0898,-3.0898,-3.0898,-3.0898,-3.0898,-3.0898,-3.0898,-3.0898,-3.0898,-3.0898,-3.0898,-3.0898,-3.0898,-3.0898,-3.0898,0.0,-1.8805,-1.8919,-1.9317,-1.9164,-1.903,-1.9162,-1.8619,-1.8027,-1.7733,-1.7272,-1.7053,-1.7348,-1.7385,-1.7585,-1.8136,-1.8173,-1.8246,-1.8447,-1.8483,-1.8501,-1.8501,-1.8556,-1.8556,-1.8556,-1.8431,-1.8395,-1.8395,-1.7841,-1.7567,-1.7603,-1.7162,-1.6991,-1.7089,-1.6917,-1.7017,-1.7316,-1.7685,-1.873,-2.0377,-2.2959,-2.4321,-2.5173,-2.795,-2.8695,-2.8301,-2.8301,-2.8145,-2.7759,-2.6695,-2.5232,-2.3377,0.0,0.0,0.0,-1.7628,0.0,0.0,0.0,0.0,0.0,0.0,0.0,0.0,-1.7777,-1.8171,-1.9064,0.0,0.0,0.0,0.0,0.0,0.0,0.0,0.0,0.0,0.0,0.0,0.0,0.0,0.0,0.0,0.0,0.0,-2.8594,-2.9078,-2.9509,-2.9883,-3.0312,-3.0332,-3.0508,-3.0879,-3.0898,-3.0898,-3.0898,-3.0898,-3.0898,-3.0898,-3.0898,-3.0898,-3.0898,-3.0898,-3.0898,-3.0898,-3.0898,-3.0898,-3.0898,-3.0898,-3.0898,-3.0898,-3.0898,-3.0898,-3.0898,-3.0898,-3.0898,-3.0898,-1.8209,-1.808,-1.8247,-1.8751,-1.8789,-1.8844,-1.9254,-1.886,-1.8489,-1.8267,-1.7897,-1.7731,-1.7934,-1.7953,-1.81,-1.8526,-1.8544,-1.8506,-1.8427,-1.8597,-1.8653,-1.8535,-1.8653,-1.8766,-1.8877,-1.8563,-1.8397,-1.8397,-1.7806,-1.7495,-1.7477,-1.7197,-1.7097,-1.7201,-1.7185,-1.7358,-1.7598,-1.7758,-1.8987,-2.1035,-2.3202,0.0,-2.6074,-2.8441,-2.9185,-2.8887,-2.8887,-2.8727,-2.8377,-2.7459,-2.581,0.0,0.0,-2.2351,-2.1381,0.0,-1.9639,-2.0177,0.0,0.0,0.0,-1.7449,0.0,0.0,0.0,-1.8389,-1.903,-2.1017,0.0,0.0,0.0,0.0,0.0,0.0,0.0,0.0,0.0,0.0,0.0,0.0,0.0,0.0,0.0,0.0,-2.8476,-2.8887,-2.9121,-2.9434,-2.9863,-3.0078,-3.0293,-3.0527,-3.0762,-3.0898,-3.0898,-3.0898,-3.0898,-3.0898,-3.0898,-3.0898,-3.0898,-3.0898,-3.0898,-3.0898,-3.0898,-3.0898,-3.0898,-3.0898,-3.0898,-3.0898,-3.0898,-3.0898,-3.0898,-3.0898,-3.0898,-3.0898,-1.7715,-1.766,-1.7843,-1.8415,-1.8527,-1.8769,-1.9494,-1.9234,-1.8936,-1.89,-1.8714,-1.8602,-1.8564,-1.8882,-1.9146,-1.9279,-1.9544,-1.9449,-1.888,-1.9146,-1.9107,-1.8701,-1.886,-1.8956,-1.9009,-1.8676,-1.849,-1.8397,-1.7842,-1.7567,-1.7584,-1.7372,-1.7326,-1.7436,-1.7839,-1.7929,-1.7796,-1.8007,-1.9373,-2.1546,0.0,-2.5119,-2.6723,-2.8553,-2.9233,-2.918,-2.918,-2.9073,-2.8785,-2.8262,-2.6575,-2.4746,-2.4794,-2.4006,0.0,0.0,0.0,0.0,0.0,0.0,0.0,0.0,0.0,-1.7637,0.0,0.0,0.0,-2.1237,0.0,0.0,0.0,0.0,0.0,0.0,0.0,0.0,0.0,0.0,0.0,0.0,0.0,0.0,0.0,0.0,-2.8164,-2.875,-2.8574,-2.873,-2.9414,-2.9766,-3.0019,-3.0195,-3.0566,-3.0801,-3.0898,-3.0898,-3.0898,-3.0898,-3.0898,-3.0898,-3.0898,-3.0898,-3.0898,-3.0898,-3.0898,-3.0898,-3.0898,-3.0898,-3.0898,-3.0898,-3.0898,-3.0898,-3.0898,-3.0898,-3.0898,-3.0898,-1.8064,-1.8193,-1.8434,-1.8863,-1.8937,-1.9086,-1.9532,-1.9097,-1.8653,-1.849,-1.8939,-1.9241,-1.9184,-2.0585,-2.1499,-2.1541,-2.2568,-2.272,-2.156,-2.1522,-2.0986,-1.979,-1.9732,-1.9504,-1.9013,-1.8975,-1.8751,-1.8397,-1.7969,-1.7872,-1.8031,-1.765,-1.7738,-1.8299,-1.9278,-1.9392,-1.891,-1.983,-2.1377,0.0,-2.3847,-2.5227,0.0,-2.9169,-2.9767,-2.9525,-2.9525,-2.9545,-2.9313,0.0,-2.7207,-2.648,0.0,-2.4392,-2.5352,-2.1176,0.0,0.0,0.0,0.0,0.0,0.0,-1.8527,0.0,0.0,0.0,-1.7948,-1.7834,0.0,0.0,0.0,0.0,0.0,0.0,0.0,0.0,0.0,0.0,0.0,0.0,0.0,0.0,0.0,0.0,0.0,-2.8281,-2.7324,-2.7363,-2.8906,-2.9043,-2.9414,-3.0176,-3.0254,-3.0469,-3.0879,-3.0898,-3.0898,-3.0898,-3.0898,-3.0898,-3.0898,-3.0898,-3.0898,-3.0898,-3.0898,-3.0898,-3.0898,-3.0898,-3.0898,-3.0898,-3.0898,-3.0898,-3.0898,-3.0898,-3.0898,-3.0898,-1.8341,-1.8341,-1.8564,-1.9089,-1.9297,-1.9506,-1.9728,-1.9692,-1.9542,-1.9296,-1.9659,-1.9927,-1.9889,-2.052,-2.131,-2.2186,0.0,-2.2684,0.0,0.0,-2.1361,-1.9851,-1.962,-1.9506,-1.9355,-1.8769,-1.8412,-1.8223,-1.7828,-1.7656,-1.7761,-1.7674,-1.7896,-1.8447,-1.9773,-2.0314,-2.0314,-2.1068,-2.2384,0.0,0.0,0.0,0.0,-2.9266,-2.9682,-2.9626,-2.9626,-2.9626,-2.9492,0.0,-2.7616,0.0,0.0,0.0,0.0,0.0,0.0,0.0,0.0,0.0,0.0,0.0,0.0,0.0,-1.875,0.0,-1.8244,0.0,0.0,0.0,0.0,0.0,0.0,0.0,0.0,0.0,0.0,0.0,0.0,0.0,0.0,0.0,0.0,0.0,0.0,0.0,0.0,-2.7031,-2.8476,-2.8789,-2.9199,-2.9805,-3.0078,-3.043,-3.0879,-3.0898,-3.0898,-3.0898,-3.0898,-3.0898,-3.0898,-3.0898,-3.0898,-3.0898,-3.0898,-3.0898,-3.0898,-3.0898,-3.0898,-3.0898,-3.0898,-3.0898,-3.0898,-3.0898,-3.0898,-3.0898,-1.8995,-1.892,-1.9071,-1.9487,-1.9736,-1.987,-1.9904,-2.0137,-2.0273,-2.0172,-2.0504,-2.0739,-2.0739,-2.1475,-2.233,-2.3276,-2.3926,-2.3783,0.0,0.0,-2.2113,-2.0527,0.0,0.0,0.0,-1.8877,-1.8249,-1.8002,-1.7716,-1.7564,-1.7632,-1.7716,-1.8016,-1.8518,-2.0079,-2.0996,-2.1424,-2.2246,-2.3574,-2.5195,-2.5957,-2.7148,-2.8574,-2.9551,-2.9941,-2.9941,-2.9941,-2.9941,-2.9883,-2.9456,-2.8058,0.0,-2.8155,0.0,0.0,0.0,0.0,0.0,-2.1427,0.0,0.0,0.0,0.0,0.0,0.0,0.0,0.0,0.0,0.0,0.0,0.0,0.0,0.0,-1.8676,0.0,0.0,0.0,0.0,0.0,0.0,0.0,0.0,0.0,0.0,0.0,0.0,0.0,0.0,-2.8203,-2.8574,-2.8945,-2.9375,-2.9805,-3.0234,-3.0703,-3.082,-3.0898,-3.0898,-3.0898,-3.0898,-3.0898,-3.0898,-3.0898,-3.0898,-3.0898,-3.0898,-3.0898,-3.0898,-3.0898,-3.0898,-3.0898,-3.0898,-3.0898,-3.0898,-3.0898,-3.0898,-2.0196,-2.0216,-2.0235,-2.0235,-2.0294,-2.0216,-1.9942,-2.0137,-2.0448,-2.0813,-2.144,0.0,0.0,0.0,0.0,0.0,0.0,-2.7656,-2.5137,0.0,-2.3789,0.0,0.0,-2.0664,0.0,0.0,-1.8581,-1.7735,-1.7716,-1.7784,-1.7974,-1.7974,-1.8208,-1.8676,-2.0411,-2.1465,-2.1973,-2.3633,-2.5332,-2.6973,-2.7422,-2.8125,-2.9043,0.0,-3.0859,-3.0859,-3.0859,0.0,0.0,-2.9153,-2.8559,0.0,0.0,0.0,0.0,0.0,0.0,0.0,0.0,0.0,0.0,-1.9777,0.0,0.0,0.0,0.0,-1.8156,0.0,0.0,0.0,0.0,0.0,-1.8861,-1.9468,-1.9256,0.0,0.0,0.0,0.0,0.0,0.0,0.0,0.0,0.0,0.0,0.0,0.0,0.0,-2.8144,-2.8301,-2.8496,-2.8926,-2.9355,-2.9785,-3.0215,-3.0664,-3.0898,-3.0898,-3.0898,-3.0898,-3.0898,-3.0898,-3.0898,-3.0898,-3.0898,-3.0898,-3.0898,-3.0898,-3.0898,-3.0898,-3.0898,-3.0898,-3.0898,-3.0898,-3.0898,-3.0898,-2.0489,-2.0489,-2.0489,-2.0489,-2.0489,-2.045,0.0,-2.0663,0.0,0.0,-2.2828,0.0,0.0,-2.5352,-2.625,0.0,0.0,-2.748,-2.6035,-2.5527,0.0,0.0,0.0,-2.1444,0.0,0.0,0.0,-1.9149,-1.8877,-1.8776,-1.8848,-1.8848,-1.9082,-1.9514,-2.1268,-2.2793,0.0,0.0,0.0,0.0,0.0,-2.791,-2.8965,0.0,0.0,-2.9707,-3.0586,-3.0898,0.0,-3.0314,-2.9536,-2.8875,-2.9167,-2.8261,-2.7135,-2.7458,-2.6929,0.0,0.0,0.0,-2.4985,-2.2422,0.0,0.0,0.0,0.0,0.0,0.0,0.0,0.0,0.0,0.0,-1.9506,-1.9563,-1.9617,-1.9401,0.0,0.0,0.0,0.0,0.0,0.0,0.0,0.0,0.0,0.0,0.0,0.0,0.0,-2.8301,-2.8476,-2.8906,-2.9355,-2.9766,-3.0195,-3.0664,-3.0898,-3.0898,-3.0898,-3.0898,-3.0898,-3.0898,-3.0898,-3.0898,-3.0898,-3.0898,-3.0898,-3.0898,-3.0898,-3.0898,-3.0898,-3.0898,-3.0898,-3.0898,-3.0898,-3.0898,-2.1075,-2.1075,-2.0977,-2.0664,-2.0742,0.0,0.0,0.0,0.0,0.0,-2.3984,0.0,-2.6005,0.0,-2.7207,0.0,-2.8398,-2.7949,-2.6484,-2.6406,0.0,-2.4894,-2.353,0.0,0.0,0.0,0.0,0.0,-2.0098,-1.9668,-1.9512,-1.9512,-1.957,-1.9746,-2.1191,-2.2949,-2.4902,-2.5937,-2.7383,0.0,0.0,-2.75,0.0,0.0,-2.8516,-2.9101,0.0,-3.0898,-3.0898,-3.0898,-3.0332,-2.9766,-3.0625,-2.9634,-2.8339,-2.9172,-2.8501,-2.7429,-2.6883,-2.7141,0.0,-2.4612,-2.4479,0.0,-2.2016,0.0,0.0,0.0,0.0,0.0,0.0,0.0,-2.012,-1.9962,-1.9922,-1.9609,0.0,-1.8703,0.0,0.0,0.0,0.0,0.0,0.0,0.0,0.0,-2.5605,0.0,0.0,0.0,-2.8418,-2.8691,-2.9121,-2.9551,-2.9961,-3.041,-3.0723,-3.0898,-3.0898,-3.0898,-3.0898,-3.0898,-3.0898,-3.0898,-3.0898,-3.0898,-3.0898,-3.0898,-3.0898,-3.0898,-3.0898,-3.0898,-3.0898,-3.0898,-3.0898,-3.0898,-2.1894,-2.1894,-2.1662,0.0,-2.0996,0.0,0.0,0.0,-2.3027,0.0,-2.4902,-2.5703,-2.7051,-2.8301,-2.9043,-2.9023,-2.9785,-2.9199,-2.6699,-2.7285,0.0,0.0,-2.5791,-2.6161,-2.709,0.0,0.0,0.0,0.0,-2.041,-1.998,-2.0,-1.9785,-1.9414,-2.0312,-2.2051,-2.4492,-2.5781,-2.7754,-2.9863,-2.7832,-2.7012,-2.7031,-2.709,0.0,-2.9101,-3.041,-3.0898,-3.0898,-3.0898,-3.0898,-3.0898,-3.0898,-3.0898,-3.0898,-3.0898,-3.0898,-3.0567,-2.9097,-2.8404,-2.7752,-2.6238,0.0,0.0,0.0,0.0,-2.2039,0.0,0.0,0.0,0.0,0.0,0.0,-2.0587,-2.0205,-1.9592,-1.8773,0.0,0.0,0.0,0.0,0.0,0.0,0.0,-2.1055,-2.3633,-2.418,-2.4824,0.0,0.0,0.0,-2.8301,-2.8711,-2.9121,-2.9626,-2.998,-3.043,-3.0898,-3.0898,-3.0898,-3.0898,-3.0898,-3.0898,-3.0898,-3.0898,-3.0898,-3.0898,-3.0898,-3.0898,-3.0898,-3.0898,-3.0898,-3.0898,-3.0898,-3.0898,-3.0898,-2.1894,-2.1894,-2.1914,0.0,-2.1855,-2.1758,0.0,0.0,0.0,0.0,-2.6543,-2.7734,-2.9687,-3.0469,-3.0723,-3.041,-3.0859,0.0,0.0,0.0,0.0,-2.8594,-2.7363,-2.7226,-2.8398,-2.5586,0.0,-2.3926,0.0,-2.1328,-2.0859,-2.123,-2.1152,-2.0742,-2.1621,-2.291,-2.4453,-2.5117,-2.6348,-2.7793,-2.7226,-2.7012,0.0,0.0,-2.8633,-2.9101,-3.041,-3.0898,-3.0898,-3.0898,-3.0898,-3.0898,-3.0898,-3.0898,-3.0898,-3.0898,-3.0898,-3.082,-3.0431,-3.0255,-2.9809,-2.8215,-2.7526,-2.6891,0.0,0.0,0.0,0.0,0.0,0.0,0.0,0.0,0.0,-2.0741,-2.0213,-1.9844,0.0,0.0,0.0,0.0,0.0,0.0,0.0,-2.0527,-2.1836,-2.4082,-2.4062,-2.5019,0.0,0.0,0.0,-2.8262,-2.8711,-2.9121,-2.9626,-2.998,-3.043,-3.0898,-3.0898,-3.0898,-3.0898,-3.0898,-3.0898,-3.0898,-3.0898,-3.0898,-3.0898,-3.0898,-3.0898,-3.0898,-3.0898,-3.0898,-3.0898,-3.0898,-3.0898,-3.0898,-2.2441,-2.2441,0.0,-2.2711,0.0,0.0,-2.3325,0.0,0.0,-2.666,-2.7695,0.0,-3.041,-3.1309,-3.1699,-3.1465,-3.166,0.0,-2.9922,0.0,0.0,-2.959,-2.9199,-2.9238,-2.9766,-2.7559,0.0,-2.5547,0.0,-2.2773,-2.1756,-2.2051,-2.1934,-2.1543,-2.2207,-2.3223,-2.4512,-2.6094,-2.6855,-2.707,-2.7617,0.0,0.0,-2.8926,-2.9668,-3.043,-3.1191,-3.1211,-3.0898,-3.0898,-3.0898,-3.0898,-3.0898,-3.0898,-3.0898,-3.0898,-3.0898,-3.0898,-3.0898,-3.0898,-3.0723,-2.981,-2.9441,-2.8862,-2.73,-2.6634,-2.6116,0.0,0.0,0.0,0.0,0.0,0.0,-2.082,-2.0448,0.0,0.0,0.0,0.0,0.0,0.0,0.0,0.0,0.0,-2.0956,-2.3144,-2.3086,0.0,0.0,0.0,0.0,-2.7441,-2.7871,-2.8574,-2.9607,-2.9434,-2.9883,-3.0898,-3.0898,-3.0898,-3.0898,-3.0898,-3.0898,-3.0898,-3.0898,-3.0898,-3.0898,-3.0898,-3.0898,-3.0898,-3.0898,-3.0898,-3.0898,-3.0898,-3.0898,-3.0898,-2.3101,0.0,0.0,0.0,0.0,0.0,0.0,-2.5176,0.0,-2.7734,0.0,-2.9512,-3.0351,-3.1523,-3.2226,-3.2168,0.0,-3.1738,-3.0527,-3.1523,-3.1484,-3.0037,-3.0996,-3.1406,-3.0976,-2.9687,-2.8359,0.0,0.0,-2.4199,-2.2519,-2.2559,-2.2363,-2.1992,-2.2402,-2.3301,0.0,-2.7305,-2.791,-2.7207,-2.8496,-2.9258,-2.9668,-2.9844,-3.0859,-3.2229,-3.2229,-3.1699,-3.1055,-3.0996,-3.0976,-3.0957,-3.0918,-3.0898,-3.0898,-3.0898,-3.0898,-3.0898,-3.0898,-3.0898,-3.0898,-3.0898,-3.0898,-3.0528,-2.923,-2.8633,-2.8033,-2.6821,-2.5971,0.0,0.0,0.0,0.0,0.0,0.0,0.0,0.0,0.0,0.0,0.0,0.0,0.0,0.0,0.0,0.0,-2.176,-2.176,0.0,0.0,0.0,0.0,0.0,-2.6992,0.0,-2.9394,0.0,-2.9219,-3.0723,-3.084,-3.0898,-3.0898,-3.0898,-3.0898,-3.0898,-3.0898,-3.0898,-3.0898,-3.0898,-3.0898,-3.0898,-3.0898,-3.0898,-3.0898,-3.0898,-3.0898,-3.0898,-2.3101,0.0,0.0,0.0,0.0,-2.6504,-2.7559,-2.7656,-2.8125,-2.957,-3.0215,-3.0879,-3.1719,-3.2344,-3.2539,-3.2268,-3.248,0.0,0.0,0.0,0.0,-3.1779,-3.1934,-3.1855,-3.1406,-3.0117,-2.8652,0.0,0.0,-2.4199,-2.2519,-2.2828,-2.2769,-2.2422,-2.2808,-2.375,-2.498,-2.5556,0.0,-2.7708,-2.8945,-2.9707,-3.0215,-3.1309,-3.1894,-3.2229,-3.2229,-3.207,-3.1894,-3.1523,-3.1406,-3.1348,-3.0996,-3.0898,-3.0898,-3.0898,-3.0898,-3.0898,-3.0898,-3.0898,-3.0898,-3.0898,-3.0898,-3.084,-3.0548,-3.0431,-3.0216,-2.9592,-2.9339,-2.8715,-2.6992,0.0,0.0,0.0,0.0,0.0,0.0,0.0,0.0,0.0,0.0,0.0,0.0,0.0,0.0,0.0,0.0,0.0,0.0,0.0,0.0,0.0,0.0,0.0,0.0,0.0,0.0,-2.9805,-3.0547,-3.0898,-3.0898,-3.0898,-3.0898,-3.0898,-3.0898,-3.0898,-3.0898,-3.0898,-3.0898,-3.0898,-3.0898,-3.0898,-3.0898,-3.0898,-3.0898,-3.0898,-2.3764,0.0,0.0,0.0,0.0,0.0,0.0,-3.0527,0.0,-3.0586,-3.1133,-3.1719,-3.2129,-3.3125,-3.3711,-3.3496,-3.3672,-3.3613,-3.3184,-3.3227,-3.2949,-3.2519,-3.25,0.0,-3.1875,-3.125,-2.9863,-2.7676,0.0,0.0,-2.3164,-2.3101,-2.2984,-2.2847,-2.3958,-2.4797,0.0,0.0,0.0,-2.9101,-3.0391,-3.1172,-3.1621,-3.2246,-3.2637,-3.2812,-3.2812,-3.2812,-3.2715,-3.207,-3.1855,-3.1777,-3.1348,-3.1211,-3.1172,-3.0957,-3.0898,-3.0898,-3.0898,-3.0898,-3.0898,-3.0898,-3.0898,-3.0898,-3.0898,-3.0898,-3.082,-3.0605,-3.0371,-2.9551,-2.7402,-2.5078,0.0,0.0,0.0,0.0,0.0,0.0,0.0,0.0,0.0,0.0,0.0,0.0,0.0,0.0,0.0,0.0,0.0,0.0,0.0,0.0,0.0,0.0,0.0,0.0,0.0,-3.0254,-3.0684,-3.0898,-3.0898,-3.0898,-3.0898,-3.0898,-3.0898,-3.0898,-3.0898,-3.0898,-3.0898,-3.0898,-3.0898,-3.0898,-3.0898,-3.0898,-3.0898,-3.0898,0.0,-2.4844,0.0,0.0,-2.8125,0.0,-3.1504,-3.2871,-3.3203,-3.1875,-3.2285,-3.2715,-3.2715,-3.3906,-3.4707,-3.4707,-3.4707,-3.4551,-3.4219,-3.4199,-3.3867,-3.3105,-3.3066,-3.2832,-3.2305,-3.2305,-3.1113,0.0,0.0,0.0,-2.4199,-2.3652,-2.351,0.0,0.0,0.0,0.0,0.0,-3.041,-3.084,-3.1875,-3.2559,-3.293,-3.293,-3.3125,-3.3418,-3.3418,-3.3418,-3.332,-3.2656,-3.2383,-3.2226,-3.1797,-3.1601,-3.1445,-3.1113,-3.0957,-3.0898,-3.0898,-3.0898,-3.0898,-3.0898,-3.0898,-3.0898,-3.0898,-3.0898,-3.0898,-3.0898,-3.0527,-2.9609,-2.7656,-2.6016,0.0,0.0,0.0,0.0,0.0,0.0,0.0,0.0,0.0,0.0,0.0,0.0,0.0,0.0,0.0,0.0,0.0,0.0,0.0,0.0,0.0,-2.7669,-2.8941,0.0,-2.9336,0.0,-3.0801,-3.0898,-3.0898,-3.0898,-3.0898,-3.0898,-3.0898,-3.0898,-3.0898,-3.0898,-3.0898,-3.0898,-3.0898,-3.0898,-3.0898,-3.0898,-3.0898,-3.0898,0.0,0.0,0.0,0.0,0.0,0.0,0.0,-3.375,-3.4512,-3.4355,-3.4414,-3.4473,-3.4473,-3.4609,-3.4707,-3.4707,-3.4707,-3.4687,-3.4648,-3.4648,-3.4434,-3.3965,-3.3945,-3.3574,-3.2754,-3.2734,-3.1836,0.0,0.0,0.0,0.0,0.0,0.0,0.0,0.0,0.0,0.0,-3.0078,-3.1113,-3.2559,-3.2676,-3.2988,-3.3359,-3.3359,-3.3379,-3.3418,-3.3418,-3.3418,-3.3418,-3.332,-3.3047,-3.2656,-3.2246,-3.1836,-3.1504,-3.1465,-3.1191,-3.0898,-3.0898,-3.0898,-3.0898,-3.0898,-3.0898,-3.0898,-3.0898,-3.0898,-3.0898,-3.0898,-3.0527,-2.9785,-2.8418,-2.7402,-2.6387,0.0,0.0,0.0,0.0,0.0,0.0,0.0,0.0,0.0,0.0,0.0,0.0,0.0,0.0,0.0,0.0,0.0,0.0,-2.6348,0.0,-2.7097,-2.668,-2.8906,0.0,-2.9707,-3.0508,-3.0898,-3.0898,-3.0898,-3.0898,-3.0898,-3.0898,-3.0898,-3.0898,-3.0898,-3.0898,-3.0898,-3.0898,-3.0898,-3.0898,-3.0898,-3.0898,-3.0898,0.0,0.0,0.0,0.0,0.0,0.0,0.0,-3.4785,-3.5215,-3.5449,-3.5273,-3.5117,-3.5117,-3.5351,-3.5488,-3.5488,-3.5488,-3.5391,-3.5137,-3.5117,-3.4922,-3.4473,-3.4453,-3.418,-3.3574,-3.3555,-3.2715,0.0,0.0,0.0,0.0,0.0,0.0,0.0,0.0,-2.9648,-3.0684,-3.1699,-3.2539,-3.3164,-3.3164,-3.3281,-3.3418,-3.3418,-3.3418,-3.3418,-3.3418,-3.3418,-3.3418,-3.3418,-3.3301,-3.3105,-3.2676,-3.2422,-3.2187,-3.166,-3.1406,-3.1211,-3.0957,-3.0898,-3.0898,-3.0898,-3.0898,-3.0898,-3.0898,-3.0898,-3.0898,-3.0898,-3.0742,-3.0371,-2.959,-2.832,-2.748,0.0,0.0,0.0,0.0,0.0,0.0,0.0,0.0,0.0,0.0,0.0,0.0,0.0,0.0,0.0,0.0,0.0,0.0,-2.5195,0.0,-2.7885,-2.7219,-2.918,-3.0254,-3.0371,-3.0723,-3.0898,-3.0898,-3.0898,-3.0898,-3.0898,-3.0898,-3.0898,-3.0898,-3.0898,-3.0898,-3.0898,-3.0898,-3.0898,-3.0898,-3.0898,-3.0898,-3.0898,-3.1387,0.0,-3.1758,0.0,-3.3437,-3.3848,-3.5351,-3.5586,-3.5684,-3.5976,-3.5762,-3.5586,-3.5586,-3.584,-3.6016,-3.6016,-3.6016,-3.5898,-3.5605,-3.5586,-3.5371,-3.4922,-3.4902,0.0,-3.4258,-3.4258,-3.3613,-3.2266,-3.0664,0.0,0.0,0.0,0.0,0.0,-3.0527,-3.1289,-3.1719,-3.291,-3.3418,-3.3418,-3.3418,-3.3418,-3.3418,-3.3418,-3.3418,-3.3418,-3.3418,-3.3418,-3.3418,-3.3418,-3.3418,-3.3379,-3.3066,-3.2891,-3.2676,-3.207,-3.1719,-3.1445,-3.1152,-3.0996,-3.0898,-3.0898,-3.0898,-3.0898,-3.0898,-3.0898,-3.0898,-3.0898,-3.0898,-3.0801,-3.0469,-2.9316,-2.8628,-2.9101,0.0,0.0,0.0,0.0,0.0,0.0,-2.4446,-2.3789,-2.4492,0.0,0.0,0.0,0.0,0.0,0.0,0.0,0.0,0.0,0.0,0.0,0.0,-2.9551,-3.0566,-3.0898,-3.0898,-3.0898,-3.0898,-3.0898,-3.0898,-3.0898,-3.0898,-3.0898,-3.0898,-3.0898,-3.0898,-3.0898,-3.0898,-3.0898,-3.0898,-3.0898,-3.0645,-3.0392,-3.2519,-3.2441,-3.2832,-3.498,-3.498,-3.498,-3.5879,-3.6016,-3.6016,-3.6016,-3.6016,-3.6016,-3.6016,-3.6016,-3.6016,-3.6016,-3.6016,-3.6016,-3.6016,-3.6016,-3.582,0.0,0.0,-3.5176,-3.4707,-3.4687,-3.4473,-3.4043,0.0,0.0,-3.082,0.0,-2.9824,-3.1484,-3.1504,-3.2207,-3.3398,-3.3418,-3.3418,-3.3418,-3.3418,-3.3418,-3.3418,-3.3418,-3.3418,-3.3418,-3.3418,-3.3418,-3.3418,-3.3418,-3.3418,-3.3418,-3.3418,-3.3125,-3.2793,-3.2793,-3.2187,-3.1523,-3.1504,-3.1211,-3.0898,-3.0898,-3.0898,-3.0898,-3.0898,-3.0898,-3.0898,-3.0898,-3.0898,-3.0898,-3.0879,-3.0488,-2.9766,-2.8516,0.0,0.0,0.0,0.0,0.0,0.0,-2.5215,-2.4922,-2.623,0.0,0.0,0.0,0.0,0.0,0.0,0.0,0.0,-2.6934,-2.7648,0.0,-2.8281,-3.0019,-3.0879,-3.0898,-3.0898,-3.0898,-3.0898,-3.0898,-3.0898,-3.0898,-3.0898,-3.0898,-3.0898,-3.0898,-3.0898,-3.0898,-3.0898,-3.0898,-3.0898,-3.0898,-3.0079,-2.9098,-3.4922,-3.4883,-3.5019,-3.5703,-3.5703,-3.5684,-3.5976,-3.6016,-3.6016,-3.6016,-3.6016,-3.6016,-3.6016,-3.6016,-3.6016,0.0,-3.6016,-3.6016,0.0,-3.6016,-3.5957,-3.582,-3.582,-3.5605,-3.5176,-3.5176,-3.4941,-3.4492,0.0,0.0,0.0,-3.1328,-3.1738,-3.2812,-3.2812,-3.3047,-3.3418,-3.3418,-3.3418,-3.3418,-3.3418,-3.3418,-3.3418,-3.3418,-3.3418,-3.3418,-3.3418,-3.3418,-3.3418,-3.3418,-3.3418,-3.3418,-3.3418,-3.332,-3.3164,-3.2871,-3.2598,-3.2266,-3.168,-3.1426,-3.125,-3.0957,-3.0898,-3.0898,-3.0898,-3.0898,-3.0898,-3.0898,-3.0898,-3.0898,-3.0898,-3.0762,-3.0527,-3.0137,0.0,0.0,0.0,0.0,0.0,0.0,-2.3906,-2.3516,0.0,-2.3197,0.0,0.0,0.0,0.0,0.0,0.0,0.0,0.0,-2.8139,0.0,-2.8301,-3.0019,-3.0898,-3.0898,-3.0898,-3.0898,-3.0898,-3.0898,-3.0898,-3.0898,-3.0898,-3.0898,-3.0898,-3.0898,-3.0898,-3.0898,-3.0898,-3.0898,-3.0898,-3.0898,-3.002,-2.8979,-3.6016,-3.6016,-3.6016,-3.6016,-3.6016,-3.6016,-3.6016,-3.6016,-3.6016,-3.6016,-3.6016,-3.6016,-3.6016,-3.6016,0.0,-3.6016,-3.6016,-3.6016,-3.6016,-3.6016,-3.6016,-3.6016,-3.6016,-3.5898,-3.5625,0.0,0.0,-3.4961,-3.3984,-3.3379,-3.3125,-3.3125,-3.3398,-3.3906,-3.3906,-3.3906,-3.3906,-3.3906,-3.3906,-3.3887,-3.373,-3.3672,-3.3652,-3.3496,-3.3418,-3.3418,-3.3418,-3.3418,-3.3418,-3.3418,-3.3418,-3.3418,-3.3418,-3.3418,-3.3379,-3.3105,-3.293,-3.2676,-3.2148,-3.1758,-3.1445,-3.1191,-3.0996,-3.0898,-3.0898,-3.0898,-3.0898,-3.0898,-3.0898,-3.0898,-3.0898,-3.0898,-3.0898,-3.0898,0.0,-3.0234,-2.957,0.0,0.0,0.0,0.0,0.0,0.0,-2.465,0.0,0.0,0.0,0.0,0.0,0.0,0.0,-2.6973,-2.9082,0.0,-2.9277,-3.0351,-3.0898,-3.0898,-3.0898,-3.0898,-3.0898,-3.0898,-3.0898,-3.0898,-3.0898,-3.0898,-3.0898,-3.0898,-3.0898,-3.0898,-3.0898,-3.0587,-3.0157,-3.0157,-2.8998,-2.7529,-3.6016,-3.6016,0.0,0.0,-3.6016,0.0,-3.6016,-3.6016,-3.6016,-3.6016,-3.6016,-3.6016,-3.6016,-3.6016,-3.6016,-3.6016,0.0,0.0,0.0,-3.6016,-3.6016,-3.6016,-3.6016,-3.6016,-3.6016,-3.6016,-3.582,-3.543,-3.5,-3.4766,-3.4746,-3.4746,-3.4726,-3.4707,-3.4707,-3.4707,-3.4707,-3.4707,-3.4707,-3.4668,-3.4277,-3.4121,-3.4062,-3.3633,-3.3476,-3.3457,-3.3437,-3.3418,-3.3418,-3.3418,-3.3418,-3.3418,-3.3418,-3.3418,-3.3418,-3.3418,-3.3144,-3.2832,-3.2793,-3.2207,-3.1601,-3.1543,-3.1211,-3.0898,-3.0898,-3.0898,-3.0898,-3.0898,-3.0898,-3.0898,-3.0898,-3.0898,-3.0898,-3.0898,-3.082,-3.0176,-2.8555,0.0,0.0,0.0,0.0,0.0,0.0,-2.7728,-2.8217,0.0,0.0,0.0,0.0,0.0,-2.6797,-3.0098,-3.0234,-3.0449,-3.0879,-3.0898,-3.0898,-3.0898,-3.0898,-3.0898,-3.0898,-3.0898,-3.0898,-3.0898,-3.0898,-3.0898,-3.0898,-3.0898,-3.0898,-3.0898,-3.0898,-3.0079,-2.892,-2.892,-2.7306,-2.5256,0.0,0.0,-3.6016,-3.6016,-3.6016,-3.6016,-3.6016,-3.6016,-3.6016,-3.6016,-3.6016,-3.6016,-3.6016,-3.6016,-3.6016,-3.6016,-3.6016,-3.6016,-3.6016,-3.6016,-3.6016,-3.6016,-3.6016,-3.6016,-3.6016,-3.6016,-3.5976,-3.5879,-3.5762,-3.5547,-3.5234,-3.5234,-3.5039,-3.4707,-3.4707,-3.4707,-3.4707,-3.4707,-3.4707,-3.4687,-3.459,-3.4551,-3.4512,-3.4082,-3.3926,-3.3887,-3.3535,-3.3418,-3.3418,-3.3418,-3.3418,-3.3418,-3.3418,-3.3418,-3.3418,-3.3418,-3.3359,-3.3203,-3.2871,-3.2656,-3.2344,-3.168,-3.1211,-3.0898,-3.0898,-3.0898,-3.0898,-3.0898,-3.0898,-3.0898,-3.0898,-3.0898,-3.0898,-3.0898,-3.0039,-2.9238,-2.8828,-2.793,0.0,0.0,-2.623,-2.6621,-2.763,-2.7728,-2.7845,0.0,0.0,0.0,0.0,0.0,-2.8359,-3.0137,-3.0547,-3.0781,-3.0898,-3.0898,-3.0898,-3.0898,-3.0898,-3.0898,-3.0898,-3.0898,-3.0898,-3.0898,-3.0898,-3.0898,-3.0898,-3.0898,-3.0898,-3.0898,-3.0898,-3.0079,-2.892,-2.892,-2.7306,-2.5133,-3.6016,-3.6016,-3.6016,-3.6016,-3.6016,-3.6016,-3.6016,-3.6016,-3.6016,-3.6016,-3.6016,-3.6016,-3.6016,-3.6016,-3.6016,-3.6016,-3.6016,-3.6016,-3.6016,-3.6016,-3.6016,-3.6016,-3.6016,-3.6016,-3.6016,-3.6016,-3.6016,-3.6016,-3.6016,-3.5898,-3.5684,-3.5684,-3.5547,-3.5293,-3.5293,-3.5293,-3.5293,-3.5293,-3.5293,-3.5293,-3.5098,-3.5019,-3.4961,-3.4531,-3.4355,-3.4297,-3.3867,-3.3711,-3.3691,-3.3496,-3.3418,-3.3418,-3.3418,-3.3418,-3.3418,-3.3418,-3.3418,-3.3379,-3.3144,-3.2949,-3.2598,-3.1738,-3.1348,-3.1133,-3.0937,-3.0898,-3.0898,-3.0898,-3.0898,-3.0898,-3.0898,-3.0898,-3.0898,-3.0898,-2.9785,-2.8926,-2.8926,-2.7812,0.0,-2.75,-2.7539,-2.7969,-2.9043,-2.9141,-2.9141,-2.9141,0.0,0.0,-2.9473,-2.9473,-2.9805,-3.0488,-3.0762,-3.0898,-3.0898,-3.0898,-3.0898,-3.0898,-3.0898,-3.0898,-3.0898,-3.0898,-3.0898,-3.0898,-3.0898,-3.0898,-3.0898,-3.0898,-3.0898,-3.084,-3.0216,-2.9176,-2.7966,-2.7366,-2.5912,-2.4209,-3.6016,-3.6016,-3.6016,-3.6016,-3.6016,-3.6016,-3.6016,-3.6016,-3.6016,-3.6016,-3.6016,-3.6016,-3.6016,-3.6016,-3.6016,-3.6016,-3.6016,-3.6016,-3.6016,-3.6016,-3.6016,-3.6016,-3.6016,-3.6016,-3.6016,-3.6016,-3.6016,-3.6016,-3.6016,-3.6016,-3.6016,-3.6016,-3.6016,-3.6016,-3.6016,-3.6016,-3.6016,-3.6016,-3.6016,-3.5996,-3.5625,-3.5488,-3.543,-3.498,-3.4805,-3.4746,-3.4316,-3.416,-3.4101,-3.3672,-3.3516,-3.3516,-3.3437,-3.3418,-3.3418,-3.3418,-3.3418,-3.3418,-3.3418,-3.3105,-3.2617,-3.1894,-3.1621,-3.1426,-3.1074,-3.0937,-3.0898,-3.0898,-3.0898,-3.0898,-3.0898,-3.0898,-3.082,-3.0625,-2.9492,-2.8633,-2.8633,0.0,-2.748,-2.8769,-2.9101,-2.9648,-3.0781,-3.0898,-3.0898,-3.0898,-3.0898,0.0,0.0,-3.0898,-3.0898,-3.0898,-3.0898,-3.0898,-3.0898,-3.0898,-3.0898,-3.0898,-3.0898,-3.0898,-3.0898,-3.0898,-3.0898,-3.0898,-3.0898,-3.0762,-3.0587,-3.0587,-3.047,-3.0216,-2.9057,-2.7847,-2.6598,-2.5501,-2.427,-2.3106,-3.6016,-3.6016,-3.6016,-3.6016,-3.6016,-3.6016,-3.6016,-3.6016,-3.6016,-3.6016,-3.6016,-3.6016,-3.6016,-3.6016,-3.6016,-3.6016,-3.6016,-3.6016,-3.6016,-3.6016,-3.6016,-3.6016,-3.6016,-3.6016,-3.6016,-3.6016,-3.6016,-3.6016,-3.6016,-3.6016,-3.6016,-3.6016,-3.6016,-3.6016,-3.6016,-3.6016,-3.6016,-3.6016,-3.6016,-3.6016,-3.5957,-3.5918,-3.5879,-3.5449,-3.5293,-3.5234,-3.4766,-3.4609,-3.4531,-3.4121,-3.3965,-3.3906,-3.3535,-3.3418,-3.3418,-3.3418,-3.3418,-3.3418,-3.3418,-3.3105,-3.2773,-3.2637,-3.2051,-3.1504,-3.1445,-3.1152,-3.0898,-3.0898,-3.0898,-3.0898,-3.0898,-3.0898,-3.0527,-2.9414,-2.8144,-2.7305,-2.7305,0.0,-2.748,-2.8769,-2.9902,-3.0664,-3.0879,-3.0898,-3.0898,-3.0898,-3.0898,-3.0898,-3.0898,-3.0898,-3.0898,-3.0898,-3.0898,-3.0898,-3.0898,-3.0898,-3.0898,-3.0898,-3.0898,-3.0898,-3.0898,-3.0898,-3.0898,-3.0898,-3.0898,-3.0274,-2.9235,-2.9235,-2.8564,-2.7564,-2.7383,-2.652,-2.5378,-2.5194,-2.427,-2.3106,-3.6016,-3.6016,-3.6016,-3.6016,-3.6016,-3.6016,-3.6016,-3.6016,-3.6016,-3.6016,-3.6016,-3.6016,-3.6016,-3.6016,-3.6016,-3.6016,-3.6016,-3.6016,-3.6016,-3.6016,-3.6016,-3.6016,-3.6016,-3.6016,-3.6016,-3.6016,-3.6016,-3.6016,-3.6016,-3.6016,-3.6016,-3.6016,-3.6016,-3.6016,-3.6016,-3.6016,-3.6016,-3.6016,-3.6016,-3.6016,-3.6016,-3.6016,-3.5996,-3.5801,-3.5723,-3.5664,-3.5234,-3.5078,-3.5,-3.4551,-3.4258,-3.4043,-3.3828,-3.3613,-3.3418,-3.3418,-3.3418,-3.3418,-3.3418,-3.3281,-3.3086,-3.2851,-3.25,-3.209,-3.1621,-3.1367,-3.1172,-3.0937,-3.0898,-3.0898,-3.0898,-3.0898,-3.0449,-2.9141,-2.8418,0.0,0.0,-2.8047,-2.8516,-2.9824,-3.0527,-3.0898,-3.0898,-3.0898,-3.0898,-3.0898,-3.0898,-3.0898,-3.0898,-3.0898,-3.0898,-3.0898,-3.0898,-3.0898,-3.0898,-3.0898,-3.0898,-3.0898,-3.0157,-2.9844,-2.9785,-2.9135,-2.9194,-2.9844,-2.9844,-2.9471,-2.892,-2.892,-2.8146,-2.6961,-2.6233,-2.5623,-2.501,-2.427,-2.3604,-2.3106,-3.6016,-3.6016,-3.6016,-3.6016,-3.6016,-3.6016,-3.6016,-3.6016,-3.6016,-3.6016,-3.6016,-3.6016,-3.6016,-3.6016,-3.6016,-3.6016,-3.6016,-3.6016,-3.6016,-3.6016,-3.6016,-3.6016,-3.5947,-3.5947,-3.6016,-3.5947,-3.5947,-3.6016,-3.6016,-3.6016,-3.6016,-3.6016,-3.6016,-3.6016,-3.6016,-3.6016,-3.6016,-3.6016,-3.6016,-3.6016,-3.6016,-3.6016,-3.6016,-3.6016,-3.6016,-3.5976,-3.5664,-3.5547,-3.5469,-3.5019,-3.4648,-3.4336,-3.4141,-3.3848,-3.3555,-3.3457,-3.3418,-3.3418,-3.3418,-3.3418,-3.334,-3.3027,-3.2871,-3.2617,-3.1973,-3.166,-3.1426,-3.1094,-3.0957,-3.0898,-3.0898,-3.0898,-3.0449,-2.9141,0.0,0.0,0.0,-2.8926,-2.9414,-3.0742,-3.0898,-3.0898,-3.0898,-3.0898,-3.0898,-3.0898,-3.0898,-3.0898,-3.0898,-3.0898,-3.0898,-3.0898,-3.0898,-3.0898,-3.0898,-3.0898,-3.0762,-3.0392,-2.9412,-2.8742,-2.8444,-2.7444,-2.7547,-2.8444,-2.8742,-2.8564,-2.8026,-2.8325,-2.7547,-2.5973,-2.501,-2.4641,-2.4517,-2.3479,-2.3106,-2.3106,-3.6016,-3.6016,-3.6016,-3.6016,-3.6016,-3.6016,-3.6016,-3.6016,-3.6016,-3.6016,-3.6016,-3.6016,-3.6016,-3.6016,-3.6016,-3.6016,-3.6016,-3.6016,-3.6016,-3.6016,-3.6016,-3.6016,-3.5675,-3.5675,-3.6016,-3.5675,-3.5675,-3.6016,-3.6016,-3.6016,-3.6016,-3.6016,-3.6016,-3.6016,-3.6016,-3.6016,-3.6016,-3.6016,-3.6016,-3.6016,-3.6016,-3.6016,-3.6016,-3.6016,-3.6016,-3.6016,-3.5996,-3.5976,-3.5918,-3.5488,-3.5332,-3.5156,-3.4336,-3.4043,-3.3945,-3.3535,-3.3418,-3.3418,-3.3418,-3.3418,-3.3418,-3.3379,-3.3086,-3.2773,-3.2715,-3.209,-3.1504,-3.1484,-3.1172,-3.0898,-3.0898,-3.0898,-3.0449,-2.9141,0.0,0.0,-2.8926,-2.8926,-2.9414,-3.0742,-3.0898,-3.0898,-3.0898,-3.0898,-3.0898,-3.0898,-3.0898,-3.0898,-3.0898,-3.0898,-3.0898,-3.0898,-3.0898,-3.0898,-3.0898,-3.0898,-3.0274,-2.9039,-2.892,-2.8265,-2.7142,-2.7021,-2.7082,-2.7203,-2.8385,-2.7529,-2.5501,-2.6641,-2.5668,-2.3355,-2.3293,-2.323,-2.323,-2.3168,-2.3106,-2.3106,-3.6016,-3.6016,-3.6016,-3.6016,-3.6016,-3.6016,-3.6016,-3.6016,-3.6016,-3.6016,-3.6016,-3.6016,-3.6016,-3.6016,-3.6016,-3.6016,-3.6016,-3.6016,-3.6016,-3.5811,-3.5675,-3.5675,-3.5333,-3.5196,-3.5333,-3.5401,-3.5538,-3.5675,-3.5879,-3.6016,-3.6016,-3.6016,-3.6016,-3.6016,-3.6016,-3.6016,-3.6016,-3.6016,-3.6016,-3.6016,-3.6016,-3.6016,-3.6016,-3.6016,-3.6016,-3.6016,-3.6016,-3.6016,-3.5996,-3.584,-3.5605,-3.5332,-3.5,-3.4512,-3.3984,-3.3555,-3.3418,-3.3418,-3.3418,-3.3418,-3.3418,-3.3418,-3.3301,-3.3105,-3.2851,-3.2539,-3.2148,-3.1621,-3.1387,-3.1191,-3.0937,-3.0898,-3.0449,-2.9141,0.0,-2.9863,-2.9043,-2.9629,-3.0332,-3.084,-3.0898,-3.0898,-3.0898,-3.0898,-3.0898,-3.0898,-3.0898,-3.0898,-3.0898,-3.0898,-3.0898,-3.0898,-3.0898,-3.0898,-3.0898,-3.0079,-2.9412,-2.8861,-2.7289,-2.6277,-2.5806,-2.4949,-2.5071,-2.5867,-2.6338,-2.5973,-2.5133,-2.5623,-2.4764,-2.3106,-2.3106,-2.3106,-2.3106,-2.3106,-2.3106,-2.3106,-3.6016,-3.6016,-3.6016,-3.6016,-3.6016,-3.6016,-3.6016,-3.6016,-3.6016,-3.6016,-3.5879,-3.5879,-3.6016,-3.5879,-3.5879,-3.6016,-3.5879,-3.5811,-3.5811,-3.5401,-3.5196,-3.5333,-3.4921,-3.4784,-3.4921,-3.5059,-3.5196,-3.5333,-3.5538,-3.5743,-3.5811,-3.5811,-3.5879,-3.6016,-3.6016,-3.6016,-3.6016,-3.6016,-3.6016,-3.6016,-3.6016,-3.6016,-3.6016,-3.6016,-3.6016,-3.6016,-3.6016,-3.6016,-3.6016,-3.6016,-3.582,-3.5566,-3.543,-3.4785,-3.4023,-3.3711,-3.3535,-3.3418,-3.3418,-3.3418,-3.3418,-3.3418,-3.3418,-3.334,-3.3066,-3.2891,-3.2637,-3.2031,-3.1816,-3.1601,-3.1172,-3.1094,-3.0742,-2.9707,-3.0293,-3.0566,-2.9668,-3.0312,-3.0898,-3.0898,-3.0898,-3.0898,-3.0898,-3.0898,-3.0898,-3.0898,-3.0898,-3.0898,-3.0898,-3.0528,-3.045,-3.0898,-3.0898,-3.0898,-3.0898,-2.9589,-2.8683,-2.8247,-2.6156,-2.4887,-2.4456,-2.3542,-2.3604,-2.4517,-2.4949,-2.4887,-2.4517,-2.4949,-2.4332,-2.3106,-2.3106,-2.3106,-2.3106,-2.3106,-2.3106,-2.3106,-3.6016,-3.6016,-3.6016,-3.6016,-3.6016,-3.6016,-3.6016,-3.6016,-3.6016,-3.6016,-3.5694,-3.5606,-3.5947,-3.5675,-3.5606,-3.5947,-3.5675,-3.547,-3.547,-3.4784,-3.4577,-3.4853,-3.4577,-3.4577,-3.4853,-3.4577,-3.4577,-3.4921,-3.4921,-3.5127,-3.5489,-3.5489,-3.5675,-3.6016,-3.6016,-3.6016,-3.6016,-3.6016,-3.6016,-3.6016,-3.6016,-3.6016,-3.6016,-3.6016,-3.6016,-3.6016,-3.6016,-3.6016,-3.6016,-3.6016,-3.6016,-3.5957,-3.5527,-3.4785,-3.4082,-3.4082,-3.3769,-3.3437,-3.3437,-3.3418,-3.3418,-3.3418,-3.3418,-3.3418,-3.3418,-3.3105,-3.2793,-3.2793,-3.2461,-3.2031,-3.1601,-3.1523,-3.1387,-3.0957,-3.0898,-3.0898,-3.0898,-3.0898,-3.0898,-3.0898,-3.0898,-3.0898,-3.0898,-3.0898,-3.0898,-3.0898,-3.0898,-3.0898,-3.0898,-2.9589,-2.9471,-3.084,-3.0898,-3.0898,-3.0898,-2.953,-2.8247,-2.697,-2.5729,-2.4394,-2.3106,-2.3106,-2.3106,-2.3168,-2.4517,-2.4332,-2.323,-2.4517,-2.427,-2.3106,-2.3106,-2.3106,-2.3106,-2.3106,-2.3106,-2.3106,-3.6016,-3.6016,-3.6016,-3.6016,-3.6016,-3.6016,-3.6016,-3.6016,-3.6016,-3.6016,-3.5694,-3.5557,-3.5626,-3.5333,-3.5127,-3.5196,-3.5127,-3.499,-3.4715,-3.4508,-3.4301,-3.4163,-3.4024,-3.4024,-3.4163,-3.4301,-3.4439,-3.4577,-3.4784,-3.499,-3.5059,-3.5333,-3.5557,-3.5675,-3.5879,-3.6016,-3.6016,-3.6016,-3.6016,-3.6016,-3.6016,-3.6016,-3.6016,-3.6016,-3.5811,-3.5675,-3.5675,-3.547,-3.5264,-3.5264,-3.5264,-3.5188,-3.5037,-3.4996,-3.4941,-3.4609,-3.4219,-3.3887,-3.3887,-3.3652,-3.3418,-3.3418,-3.3418,-3.3418,-3.3418,-3.332,-3.3144,-3.2851,-3.2695,-3.248,-3.2051,-3.1973,-3.1836,-3.1406,-3.1328,-3.123,-3.0937,-3.0898,-3.0898,-3.0898,-3.0898,-3.0898,-3.0898,-3.0898,-3.0898,-3.0898,-3.002,-2.9471,-2.9471,-2.8265,-2.8146,-2.9471,-2.9471,-2.9962,-3.0898,-2.8701,-2.7366,-2.6944,-2.4748,-2.3479,-2.3106,-2.3106,-2.3106,-2.3106,-2.3542,-2.3479,-2.3106,-2.3542,-2.3479,-2.3106,-2.3106,-2.3106,-2.3106,-2.3106,-2.3106,-2.3135,-3.6016,-3.6016,-3.6016,-3.6016,-3.6016,-3.6016,-3.6016,-3.6016,-3.6016,-3.6016,-3.5538,-3.5333,-3.5489,-3.499,-3.4784,-3.4921,-3.4784,-3.4577,-3.4163,-3.4163,-3.4024,-3.3817,-3.3817,-3.3817,-3.3817,-3.4024,-3.4163,-3.4163,-3.437,-3.4577,-3.4715,-3.4921,-3.5127,-3.5264,-3.547,-3.5538,-3.5538,-3.5538,-3.5538,-3.5538,-3.5538,-3.5538,-3.5538,-3.5538,-3.547,-3.5264,-3.5264,-3.5127,-3.4921,-3.4921,-3.4921,-3.4952,-3.5026,-3.5124,-3.5131,-3.4992,-3.4668,-3.4277,-3.4121,-3.3823,-3.3442,-3.3394,-3.3418,-3.3418,-3.3418,-3.3418,-3.334,-3.3105,-3.3047,-3.291,-3.25,-3.2422,-3.2266,-3.1836,-3.1777,-3.168,-3.1426,-3.125,-3.1133,-3.1133,-3.0996,-3.0898,-3.0898,-3.0392,-2.9903,-2.9372,-2.8641,-2.8146,-2.8146,-2.6944,-2.6823,-2.8086,-2.8146,-2.8522,-2.9372,-2.7323,-2.652,-2.7004,-2.4871,-2.3604,-2.3106,-2.3106,-2.3106,-2.3106,-2.3106,-2.3106,-2.3106,-2.3106,-2.3106,-2.3106,-2.3106,-2.3106,-2.3106,-2.3106,-2.3106,-2.3164,-3.6016,-3.6016,-3.6016,-3.6016,-3.6016,-3.6016,-3.6016,-3.6016,-3.6016,-3.5947,-3.5333,-3.5059,-3.5333,-3.4784,-3.4439,-3.4784,-3.4508,-3.4163,-3.3817,-3.3817,-3.3817,-3.3817,-3.3817,-3.3817,-3.3817,-3.3817,-3.3817,-3.3817,-3.3817,-3.3955,-3.437,-3.437,-3.4577,-3.4853,-3.4921,-3.4921,-3.4921,-3.4921,-3.4921,-3.4921,-3.4921,-3.4921,-3.4921,-3.4921,-3.4853,-3.4853,-3.4853,-3.4853,-3.4784,-3.4784,-3.4853,-3.4921,-3.5264,-3.5152,-3.496,-3.5315,-3.5051,-3.4602,-3.4297,-3.3902,-3.3572,-3.3403,-3.335,-3.335,-3.3355,-3.3355,-3.3355,-3.3418,-3.3418,-3.3238,-3.2786,-3.2665,-3.251,-3.2102,-3.2044,-3.2085,-3.2107,-3.1816,-3.1582,-3.1582,-3.125,-3.1016,-3.1016,-2.9801,-2.8439,-2.7116,-2.6918,-2.684,-2.684,-2.5623,-2.5501,-2.6779,-2.684,-2.69,-2.7021,-2.5867,-2.579,-2.6806,-2.5546,-2.427,-2.3106,-2.3106,-2.3106,-2.3106,-2.3106,-2.3106,-2.3106,-2.3106,-2.3106,-2.3106,-2.3106,-2.3106,-2.3106,-2.3106,-2.3135,-2.3208,-3.6016,-3.6016,-3.6016,-3.6016,-3.6016,-3.6016,-3.6016,-3.6016,-3.5879,-3.5606,-3.5196,-3.4853,-3.4646,-3.4232,-3.3955,-3.4024,-3.3955,-3.3886,-3.3817,-3.3817,-3.3817,-3.3817,-3.3817,-3.3817,-3.3817,-3.3817,-3.3817,-3.3817,-3.3817,-3.3817,-3.3955,-3.4232,-3.4439,-3.4508,-3.4784,-3.4921,-3.4921,-3.4921,-3.4921,-3.4921,-3.4921,-3.4921,-3.4921,-3.4921,-3.4715,-3.4508,-3.4508,-3.4301,-3.4024,-3.4024,-3.4232,-3.4508,-3.4577,-3.5002,-3.5335,-3.5471,-3.5162,-3.4748,-3.4652,-3.4117,-3.3491,-3.3203,-3.3089,-3.3123,-3.3369,-3.3165,-3.3102,-3.3355,-3.3418,-3.3063,-3.1851,-3.1641,-3.1384,-3.0744,-3.0858,-3.1202,-3.1639,-3.1888,-3.2031,-3.2031,-3.1953,-3.1894,-3.1894,-3.0404,-2.8913,-2.7494,-2.6199,-2.5501,-2.5501,-2.427,-2.4147,-2.5501,-2.5501,-2.5989,-2.7021,-2.6719,-2.6233,-2.5485,-2.4147,-2.3355,-2.3106,-2.3106,-2.3106,-2.3106,-2.3106,-2.3106,-2.3106,-2.3106,-2.3106,-2.3106,-2.3106,-2.3106,-2.3106,-2.3106,-2.3267,-2.351,-3.6016,-3.6016,-3.6016,-3.6016,-3.6016,-3.6016,-3.6016,-3.6016,-3.5879,-3.5538,-3.5127,-3.4784,-3.4439,-3.4024,-3.3817,-3.3817,-3.3817,-3.3817,-3.3817,-3.3817,-3.3817,-3.3817,-3.3817,-3.3817,-3.3817,-3.3817,-3.3817,-3.3817,-3.3817,-3.3817,-3.3817,-3.4024,-3.4094,-3.4094,-3.4301,-3.437,-3.437,-3.437,-3.437,-3.437,-3.437,-3.437,-3.437,-3.437,-3.4301,-3.4094,-3.4094,-3.3955,-3.3817,-3.3817,-3.3955,-3.4163,-3.4301,-3.4646,-3.499,-3.5196,-3.4546,-3.3687,-3.3502,-3.2517,-3.1587,-3.2065,-3.1975,-3.1943,-3.2727,-3.2804,-3.274,-3.3102,-3.2638,-3.1982,-3.1387,-3.0743,-3.0154,-2.9573,-3.0181,-3.081,-3.0925,-3.1713,-3.1969,-3.1332,-3.1205,-3.0704,-2.9386,-2.9004,-2.8013,-2.6008,-2.5659,-2.525,-2.4636,-2.3955,-2.3892,-2.4573,-2.4636,-2.4952,-2.5627,-2.5627,-2.525,-2.4636,-2.4237,-2.3728,-2.3106,-2.3106,-2.3106,-2.3106,-2.3106,-2.3106,-2.3106,-2.3106,-2.3106,-2.3106,-2.3106,-2.3106,-2.3135,-2.3281,-2.3519,-2.384,-3.6016,-3.6016,-3.6016,-3.6016,-3.6016,-3.6016,-3.6016,-3.6016,-3.5879,-3.547,-3.5127,-3.4784,-3.4301,-3.4024,-3.3817,-3.3817,-3.3817,-3.3817,-3.3817,-3.3817,-3.3817,-3.3817,-3.3817,-3.3817,-3.3817,-3.3817,-3.3817,-3.3817,-3.3817,-3.3817,-3.3817,-3.3817,-3.3817,-3.3817,-3.3817,-3.3817,-3.3817,-3.3817,-3.3817,-3.3817,-3.3817,-3.3817,-3.3817,-3.3817,-3.3817,-3.3817,-3.3817,-3.359,-3.3451,-3.3747,-3.359,-3.3521,-3.4094,-3.4301,-3.4439,-3.4715,-3.3692,-3.2472,-3.2085,-3.0664,-2.9465,-3.0549,-3.0395,-3.0292,-3.14,-3.1847,-3.2177,-3.2485,-3.1405,-3.0484,-3.0466,-2.9557,-2.8592,-2.8246,-2.9165,-2.9947,-2.9882,-3.0856,-3.118,-3.0084,-2.9969,-2.8955,-2.6408,-2.7175,-2.676,-2.4355,-2.5123,-2.5221,-2.4151,-2.4086,-2.4086,-2.4086,-2.4086,-2.4086,-2.4086,-2.4086,-2.4086,-2.4136,-2.4653,-2.433,-2.3281,-2.3281,-2.3281,-2.3267,-2.3208,-2.3131,-2.3131,-2.3072,-2.2981,-2.2995,-2.3116,-2.3131,-2.3112,-2.349,-2.371,-2.3837,-3.6016,-3.6016,-3.6016,-3.6016,-3.6016,-3.6016,-3.6016,-3.6016,-3.5743,-3.5059,-3.4921,-3.4646,-3.3955,-3.3817,-3.3817,-3.3817,-3.3817,-3.3817,-3.3817,-3.3817,-3.3817,-3.3817,-3.3817,-3.3817,-3.3817,-3.3817,-3.3817,-3.3817,-3.3817,-3.3817,-3.3817,-3.3817,-3.3817,-3.3817,-3.3817,-3.3817,-3.3817,-3.3817,-3.3817,-3.3817,-3.3817,-3.3817,-3.3817,-3.3817,-3.3817,-3.3817,-3.3817,-3.2945,-3.2018,-3.3381,-3.2876,-3.2088,-3.3451,-3.4094,-3.4439,-3.4439,-3.3363,-3.2123,-3.2071,-3.0701,-2.9131,-2.8991,-2.8911,-2.8798,-2.862,-2.9648,-3.0733,-3.1027,-2.9965,-2.8641,-2.7469,-2.707,-2.6737,-2.6017,-2.6404,-2.6988,-2.785,-2.8393,-2.8753,-2.8901,-2.9128,-2.8702,-2.7142,-2.6936,-2.6239,-2.4628,-2.4428,-2.4266,-2.4086,-2.4086,-2.4086,-2.4086,-2.4086,-2.4086,-2.4086,-2.4086,-2.4086,-2.4086,-2.4192,-2.4148,-2.3954,-2.3954,-2.3954,-2.394,-2.3647,-2.3403,-2.307,-2.2783,-2.2668,-2.2697,-2.2984,-2.3085,-2.3156,-2.3417,-2.3353,-2.313,-3.6016,-3.6016,-3.6016,-3.6016,-3.6016,-3.6016,-3.6016,-3.6016,-3.5811,-3.5333,-3.5059,-3.4715,-3.4163,-3.3955,-3.3817,-3.3817,-3.3817,-3.3817,-3.3817,-3.3817,-3.3817,-3.3817,-3.3817,-3.3817,-3.3817,-3.3817,-3.3817,-3.3817,-3.3817,-3.3817,-3.3817,-3.3817,-3.3817,-3.3817,-3.3817,-3.3817,-3.3817,-3.3817,-3.3817,-3.3817,-3.3817,-3.3817,-3.3817,-3.3817,-3.3817,-3.3678,-3.2806,-3.2088,-3.1508,-3.1296,-3.0785,-3.0501,-3.2018,-3.2648,-3.2788,-3.2788,-3.1719,-3.0288,-2.9433,-2.7924,-2.6823,-2.747,-2.7655,-2.7778,-2.8201,-2.8275,-2.8482,-2.9329,-2.829,-2.7087,-2.6614,-2.5802,-2.4955,-2.4413,-2.5143,-2.5868,-2.6136,-2.7121,-2.7718,-2.732,-2.6871,-2.6352,-2.5697,-2.5777,-2.5568,-2.4914,-2.4701,-2.4627,-2.4627,-2.4428,-2.4347,-2.4347,-2.4147,-2.4147,-2.4347,-2.4347,-2.4428,-2.4627,-2.4627,-2.4437,-2.4086,-2.4086,-2.4086,-2.4071,-2.3925,-2.3673,-2.3336,-2.3128,-2.3007,-2.2829,-2.297,-2.3125,-2.3323,-2.3458,-2.3333,-2.3229]},{"header":{"parameterUnit":"m.s-1","parameterCategory":1,"la1":30.6,"la2":28.766,"lo1":-90.7593,"lo2":-88.6598,"dy":0.0162,"dx":0.0183,"nx":116,"ny":114,"refTime":"2023-05-06T12:00:00:Z","depth":0,"parameterNumber":3,"parameterNumberName":"V-component_of_WINDS"},"data":[0.0,0.0,0.0,0.0,0.0,0.0,0.0,0.0,0.0,0.0,0.0,0.0,0.0,0.0,0.0,0.0,0.0,0.0,0.0,0.0,0.0,0.0,0.0,0.0,0.0,0.0,0.0,0.0,0.0,0.0,0.0,0.0,0.0,0.0,0.0,0.0,0.0,0.0,0.0,0.0,0.0,0.0,0.0,0.0,0.0,0.0,0.0,0.0,0.0,0.0,0.0,0.0,0.0,0.0,0.0,0.0,0.0,0.0,0.0,0.0,0.0,0.0,0.0,0.0,0.0,0.0,0.0,0.0,0.0,0.0,0.0,0.0,0.0,0.0,0.0,0.0,0.0,0.0,0.0,0.0,0.0,0.0,0.0,0.0,0.0,0.0,0.0,0.0,0.0,0.0,0.0,0.0,0.0,0.0,0.0,0.0,0.0,0.0,0.0,0.0,0.0,0.0,0.0,0.0,0.0,0.0,0.0,0.0,0.0,0.0,0.0,0.0,0.0,0.0,0.0,0.0,0.0,0.0,0.0,0.0,0.0,0.0,0.0,0.0,0.0,0.0,0.0,0.0,0.0,0.0,0.0,0.0,0.0,0.0,0.0,0.0,0.0,0.0,0.0,0.0,0.0,0.0,0.0,0.0,0.0,0.0,0.0,0.0,0.0,0.0,0.0,0.0,0.0,0.0,0.0,0.0,0.0,0.0,0.0,0.0,0.0,0.0,0.0,0.0,0.0,0.0,0.0,0.0,0.0,0.0,0.0,0.0,0.0,0.0,0.0,0.0,0.0,0.0,0.0,0.0,0.0,0.0,0.0,0.0,0.0,0.0,0.0,0.0,0.0,0.0,0.0,0.0,0.0,0.0,0.0,0.0,0.0,0.0,0.0,0.0,0.0,0.0,0.0,0.0,0.0,0.0,0.0,0.0,0.0,0.0,0.0,0.0,0.0,0.0,0.0,0.0,0.0,0.0,0.0,0.0,0.0,0.0,0.0,0.0,0.0,0.0,0.0,0.0,0.0,0.0,0.0,0.0,0.0,0.0,0.0,0.0,0.0,0.0,0.0,0.0,0.0,0.0,0.0,0.0,0.0,0.0,0.0,0.0,0.0,0.0,0.0,0.0,0.0,0.0,0.0,0.0,0.0,0.0,0.0,0.0,0.0,0.0,0.0,0.0,0.0,0.0,0.0,0.0,0.0,0.0,0.0,0.0,0.0,0.0,0.0,0.0,0.0,0.0,0.0,0.0,0.0,0.0,0.0,0.0,0.0,0.0,0.0,0.0,0.0,0.0,0.0,0.0,0.0,0.0,0.0,0.0,0.0,0.0,0.0,0.0,0.0,0.0,0.0,0.0,0.0,0.0,0.0,0.0,0.0,0.0,0.0,0.0,0.0,0.0,0.0,0.0,0.0,0.0,0.0,0.0,0.0,0.0,0.0,0.0,0.0,0.0,0.0,0.0,0.0,0.0,0.0,0.0,0.0,0.0,0.0,0.0,0.0,0.0,0.0,0.0,0.0,0.0,0.0,0.0,0.0,0.0,0.0,0.0,0.0,0.0,0.0,0.0,0.0,0.0,0.0,0.0,0.0,0.0,0.0,0.0,0.0,0.0,0.0,0.0,0.0,0.0,0.0,0.0,0.0,0.0,0.0,0.0,0.0,0.0,0.0,0.0,0.0,0.0,0.0,0.0,0.0,0.0,0.0,0.0,0.0,0.0,0.0,0.0,0.0,0.0,0.0,0.0,0.0,0.0,0.0,0.0,0.0,0.0,0.0,0.0,0.0,0.0,0.0,0.0,0.0,0.0,0.0,0.0,0.0,0.0,0.0,0.0,0.0,0.0,0.0,0.0,0.0,0.0,0.0,0.0,0.0,0.0,0.0,0.0,0.0,0.0,0.0,0.0,0.0,0.0,0.0,0.0,0.0,0.0,0.0,0.0,0.0,0.0,0.0,0.0,0.0,0.0,0.0,0.0,0.0,0.0,0.0,0.0,0.0,0.0,0.0,0.0,0.0,0.0,0.0,0.0,0.0,0.0,0.0,0.0,0.0,0.0,0.0,0.0,0.0,0.0,0.0,0.0,0.0,0.0,0.0,0.0,0.0,0.0,0.0,0.0,0.0,0.0,0.0,0.0,0.0,0.0,0.0,0.0,0.0,0.0,0.0,0.0,0.0,0.0,0.0,0.0,0.0,0.0,0.0,0.0,0.0,0.0,0.0,0.0,0.0,0.0,0.0,0.0,0.0,0.0,0.0,0.0,0.0,0.0,0.0,0.0,0.0,0.0,0.0,0.0,0.0,0.0,0.0,0.0,0.0,0.0,0.0,0.0,0.0,0.0,0.0,0.0,0.0,0.0,0.0,0.0,0.0,0.0,0.0,0.0,0.0,0.0,0.0,0.0,0.0,0.0,0.0,0.0,0.0,0.0,0.0,0.0,0.0,0.0,0.0,0.0,0.0,0.0,0.0,0.0,0.0,0.0,0.0,0.0,0.0,0.0,0.0,0.0,0.0,0.0,0.0,0.0,0.0,0.0,0.0,0.0,0.0,0.0,0.0,0.0,0.0,0.0,0.0,0.0,0.0,0.0,0.0,0.0,0.0,0.0,0.0,0.0,0.0,0.0,0.0,0.0,0.0,0.0,0.0,0.0,0.0,0.0,0.0,0.0,0.0,0.0,0.0,0.0,0.0,0.0,0.0,0.0,0.0,0.0,0.0,0.0,0.0,0.0,0.0,0.0,0.0,0.0,0.0,0.0,0.0,0.0,0.0,0.0,0.0,0.0,0.0,0.0,0.0,0.0,0.0,0.0,0.0,0.0,0.0,0.0,0.0,0.0,0.0,0.0,0.0,0.0,0.0,0.0,0.0,0.0,0.0,0.0,0.0,0.0,0.0,0.0,0.0,0.0,0.0,0.0,0.0,0.0,0.0,0.0,0.0,0.0,0.0,0.0,0.0,0.0,0.0,0.0,0.0,0.0,0.0,0.0,0.0,0.0,0.0,0.0,0.0,0.0,0.0,0.0,0.0,0.0,0.0,0.0,0.0,0.0,0.0,0.0,0.0,0.0,0.0,0.0,0.0,0.0,0.0,0.0,0.0,0.0,0.0,0.0,0.0,0.0,0.0,0.0,0.0,0.0,0.0,0.0,0.0,0.0,0.0,0.0,0.0,0.0,0.0,0.0,0.0,0.0,0.0,0.0,0.0,0.0,0.0,0.0,0.0,0.0,0.0,0.0,0.0,0.0,0.0,0.0,0.0,0.0,0.0,0.0,0.0,0.0,0.0,0.0,0.0,0.0,0.0,0.0,0.0,0.0,0.0,0.0,0.0,0.0,0.0,0.0,0.0,0.0,0.0,0.0,0.0,0.0,0.0,0.0,0.0,0.0,0.0,0.0,0.0,0.0,0.0,0.0,0.0,0.0,0.0,0.0,0.0,0.0,0.0,0.0,0.0,0.0,0.0,0.0,0.0,0.0,0.0,0.0,0.0,0.0,0.0,0.0,0.0,0.0,0.0,0.0,0.0,0.0,0.0,0.0,0.0,0.0,0.0,0.0,0.0,0.0,0.0,0.0,0.0,0.0,0.0,0.0,0.0,0.0,0.0,0.0,0.0,0.0,0.0,0.0,0.0,0.0,0.0,0.0,0.0,0.0,0.0,0.0,0.0,0.0,0.0,0.0,0.0,0.0,0.0,0.0,0.0,0.0,0.0,0.0,0.0,0.0,0.0,0.0,0.0,0.0,0.0,0.0,0.0,0.0,0.0,0.0,0.0,0.0,0.0,0.0,0.0,0.0,0.0,0.0,0.0,0.0,0.0,0.0,0.0,0.0,0.0,0.0,0.0,0.0,0.0,0.0,0.0,0.0,0.0,0.0,0.0,0.0,0.0,0.0,0.0,0.0,0.0,0.0,0.0,0.0,0.0,0.0,0.0,0.0,0.0,0.0,0.0,0.0,0.0,0.0,0.0,0.0,0.0,0.0,0.0,0.0,0.0,0.0,0.0,0.0,0.0,0.0,0.0,0.0,0.0,0.0,0.0,0.0,0.0,0.0,0.0,0.0,0.0,0.0,0.0,0.0,0.0,0.0,0.0,0.0,0.0,0.0,0.0,0.0,0.0,0.0,0.0,0.0,0.0,0.0,0.0,0.0,0.0,0.0,0.0,0.0,0.0,0.0,0.0,0.0,0.0,0.0,0.0,0.0,0.0,0.0,0.0,0.0,0.0,0.0,0.0,0.0,0.0,0.0,0.0,0.0,0.0,0.0,0.0,0.0,0.0,0.0,0.0,0.0,0.0,0.0,0.0,0.0,0.0,0.0,0.0,0.0,0.0,0.0,0.0,0.0,0.0,0.0,0.0,0.0,0.0,0.0,0.0,0.0,0.0,0.0,0.0,0.0,0.0,0.0,0.0,0.0,0.0,0.0,0.0,0.0,0.0,0.0,0.0,0.0,0.0,0.0,0.0,0.0,0.0,0.0,0.0,0.0,0.0,0.0,0.0,0.0,0.0,0.0,0.0,0.0,0.0,0.0,0.0,0.0,0.0,0.0,0.0,0.0,0.0,0.0,0.0,0.0,0.0,0.0,0.0,0.0,0.0,0.0,0.0,0.0,0.0,0.0,0.0,0.0,0.0,0.0,0.0,0.0,0.0,0.0,0.0,0.0,0.0,0.0,0.0,0.0,0.0,0.0,0.0,0.0,0.0,0.0,0.0,0.0,0.0,0.0,0.0,0.0,0.0,0.0,0.0,0.0,0.0,0.0,0.0,0.0,0.0,0.0,0.0,0.0,0.0,0.0,0.0,0.0,0.0,0.0,0.0,0.0,0.0,0.0,0.0,0.0,0.0,0.0,0.0,0.0,0.0,0.0,0.0,0.0,0.0,0.0,0.0,0.0,0.0,0.0,0.0,0.0,0.0,0.0,0.0,0.0,0.0,0.0,0.0,0.0,0.0,0.0,0.0,0.0,0.0,0.0,0.0,0.0,0.0,0.0,0.0,0.0,0.0,0.0,0.0,0.0,0.0,0.0,0.0,0.0,0.0,0.0,0.0,0.0,0.0,0.0,0.0,0.0,0.0,0.0,0.0,0.0,0.0,0.0,0.0,0.0,0.0,0.0,0.0,0.0,0.0,0.0,0.0,0.0,0.0,0.0,0.0,0.0,0.0,0.0,0.0,0.0,0.0,0.0,0.0,0.0,0.0,0.0,0.0,0.0,0.0,0.0,0.0,0.0,0.0,0.0,0.0,0.0,0.0,0.0,0.0,0.0,0.0,0.0,0.0,0.0,0.0,0.0,0.0,0.0,0.0,0.0,0.0,0.0,0.0,0.0,0.0,0.0,0.0,0.0,0.0,0.0,0.0,0.0,0.0,0.0,0.0,0.0,0.0,0.0,0.0,0.0,0.0,0.0,0.0,0.0,0.0,0.0,0.0,0.0,0.0,0.0,0.0,0.0,0.0,0.0,0.0,0.0,0.0,0.0,0.0,0.0,0.0,0.0,0.0,0.0,0.0,0.0,0.0,0.0,0.0,0.0,0.0,0.0,0.0,0.0,0.0,0.0,0.0,0.0,0.0,0.0,0.0,0.0,0.0,0.0,0.0,0.0,0.0,0.0,0.0,0.0,0.0,0.0,0.0,0.0,0.0,0.0,0.0,0.0,0.0,0.0,0.0,0.0,0.0,0.0,0.0,0.0,0.0,0.0,0.0,0.0,0.0,0.0,0.0,0.0,0.0,0.0,0.0,0.0,0.0,0.0,0.0,0.0,0.0,0.0,0.0,0.0,0.0,0.0,0.0,0.0,0.0,0.0,0.0,0.0,0.0,0.0,0.0,0.0,0.0,0.0,0.0,0.0,0.0,0.0,0.0,0.0,0.0,0.0,0.0,0.0,0.0,0.0,0.0,0.0,0.0,0.0,0.0,0.0,0.0,0.0,0.0,0.0,0.0,0.0,0.0,0.0,0.0,0.0,0.0,0.0,0.0,0.0,0.0,0.0,0.0,0.0,0.0,0.0,0.0,0.0,0.0,0.0,0.0,0.0,0.0,0.0,0.0,0.0,0.0,0.0,0.0,0.0,0.0,0.0,0.0,0.0,0.0,0.0,0.0,0.0,0.0,0.0,0.0,0.0,2.0939,0.0,0.0,0.0,0.0,0.0,0.0,0.0,0.0,0.0,0.0,0.0,0.0,0.0,0.0,0.0,0.0,0.0,0.0,0.0,0.0,0.0,0.0,0.0,0.0,0.0,0.0,0.0,0.0,0.0,0.0,0.0,0.0,0.0,0.0,0.0,0.0,0.0,0.0,2.1103,2.1825,2.2904,2.4259,2.4327,2.3144,2.0957,0.0,0.0,0.0,0.0,0.0,0.0,0.0,0.0,0.0,0.0,0.0,0.0,0.0,0.0,0.0,0.0,0.0,0.0,0.0,0.0,0.0,0.0,0.0,0.0,0.0,0.0,0.0,0.0,0.0,0.0,0.0,0.0,0.0,0.0,0.0,0.0,0.0,0.0,0.0,0.0,0.0,0.0,0.0,0.0,0.0,0.0,0.0,0.0,0.0,0.0,0.0,0.0,0.0,0.0,0.0,0.0,0.0,0.0,0.0,0.0,0.0,0.0,0.0,0.0,0.0,0.0,0.0,0.0,0.0,0.0,0.0,2.2389,0.0,0.0,0.0,0.0,0.0,0.0,0.0,0.0,0.0,0.0,0.0,0.0,0.0,0.0,0.0,0.0,0.0,0.0,0.0,0.0,0.0,0.0,0.0,0.0,2.1277,2.1493,2.1309,2.1119,0.0,0.0,0.0,0.0,0.0,0.0,0.0,1.9716,2.0171,2.1663,2.3342,2.5459,2.7895,2.7895,2.5805,2.2055,2.2055,0.0,0.0,0.0,0.0,0.0,0.0,0.0,0.0,0.0,0.0,0.0,0.0,0.0,0.0,0.0,0.0,0.0,0.0,0.0,0.0,0.0,0.0,0.0,0.0,0.0,0.0,0.0,0.0,0.0,0.0,0.0,0.0,0.0,0.0,0.0,0.0,0.0,0.0,0.0,0.0,0.0,0.0,0.0,0.0,0.0,0.0,0.0,0.0,0.0,0.0,0.0,0.0,0.0,0.0,0.0,0.0,0.0,0.0,0.0,0.0,0.0,0.0,0.0,0.0,2.7797,2.7797,2.8194,2.8068,2.7586,2.8261,2.6524,2.3174,0.0,0.0,0.0,0.0,0.0,0.0,0.0,0.0,0.0,0.0,0.0,0.0,0.0,0.0,0.0,0.0,0.0,0.0,0.0,0.0,0.0,0.0,2.1247,2.1183,2.1167,2.1119,2.0831,2.0206,0.0,0.0,0.0,0.0,0.0,1.9954,2.0527,2.1824,2.3897,2.6186,2.7505,2.7895,2.7895,2.7582,2.6971,2.6971,2.6199,2.489,0.0,0.0,0.0,0.0,0.0,0.0,0.0,0.0,0.0,0.0,0.0,0.0,0.0,0.0,0.0,0.0,0.0,0.0,0.0,0.0,0.0,0.0,0.0,0.0,0.0,0.0,0.0,0.0,0.0,0.0,0.0,0.0,0.0,0.0,0.0,0.0,0.0,0.0,0.0,0.0,0.0,2.7888,2.6628,0.0,0.0,0.0,0.0,0.0,0.0,0.0,0.0,0.0,0.0,0.0,0.0,0.0,0.0,2.8349,2.7842,2.76,2.7632,2.9563,3.049,3.0584,3.313,3.4225,3.4162,3.4257,0.0,2.5287,2.283,0.0,0.0,0.0,0.0,0.0,0.0,0.0,0.0,0.0,0.0,0.0,0.0,0.0,0.0,0.0,0.0,0.0,0.0,0.0,0.0,0.0,2.1682,2.2474,2.2441,2.3235,2.3041,2.1472,2.1423,0.0,0.0,0.0,1.9643,1.9555,2.1162,2.3876,2.7722,2.9169,3.0543,3.1836,3.1836,3.1836,3.1836,3.1836,2.9976,2.6776,2.5468,0.0,0.0,0.0,0.0,0.0,0.0,0.0,0.0,0.0,0.0,0.0,0.0,0.0,0.0,0.0,0.0,0.0,0.0,0.0,0.0,0.0,0.0,0.0,0.0,0.0,0.0,0.0,0.0,0.0,0.0,0.0,0.0,0.0,0.0,0.0,0.0,0.0,0.0,0.0,2.6702,2.7322,2.5832,2.6365,2.5957,0.0,0.0,0.0,0.0,0.0,0.0,0.0,0.0,0.0,2.8576,2.997,3.0892,3.1275,3.1772,3.2049,3.2049,3.3014,3.3455,3.3513,3.4798,3.5394,3.5394,3.5394,3.3814,3.1047,2.8572,2.6775,2.5467,0.0,0.0,0.0,0.0,0.0,2.4287,0.0,0.0,0.0,0.0,0.0,0.0,0.0,0.0,0.0,0.0,0.0,0.0,2.0895,2.2782,2.4104,2.4087,2.5136,2.486,2.2622,2.2378,2.1399,1.9311,1.9297,1.9395,1.9506,2.2507,2.6253,3.0669,3.177,3.3178,3.4883,3.4883,3.4883,3.4883,3.4883,3.276,2.8976,2.7297,2.6522,2.6257,0.0,0.0,0.0,0.0,0.0,0.0,0.0,0.0,0.0,0.0,0.0,0.0,0.0,0.0,0.0,0.0,0.0,0.0,0.0,0.0,0.0,0.0,0.0,0.0,0.0,0.0,0.0,0.0,0.0,0.0,0.0,0.0,0.0,0.0,0.0,0.0,0.0,2.6753,2.7538,2.5728,2.6707,2.6757,0.0,0.0,0.0,0.0,0.0,0.0,2.7696,2.9804,3.1318,3.1982,3.3118,3.4053,3.4719,3.5872,3.6437,3.6437,3.6437,3.6437,3.6437,3.6437,3.6437,3.6437,3.6437,3.6437,3.6216,3.3219,3.0627,2.8591,2.8089,2.805,2.8315,2.8562,2.8394,2.8135,0.0,0.0,0.0,0.0,0.0,0.0,0.0,0.0,0.0,0.0,0.0,2.2589,2.3238,2.4795,2.5768,2.5677,2.5815,2.4966,2.285,2.1984,2.0877,1.9367,1.9228,1.9481,2.0039,2.5114,2.8968,3.1418,3.3644,3.4783,3.4883,3.4883,3.4883,3.4883,3.4883,3.3951,3.2374,3.222,3.0958,2.887,2.731,0.0,0.0,0.0,0.0,0.0,0.0,0.0,0.0,0.0,0.0,0.0,0.0,0.0,0.0,0.0,0.0,0.0,0.0,0.0,0.0,0.0,0.0,0.0,0.0,0.0,0.0,0.0,0.0,0.0,0.0,0.0,0.0,0.0,0.0,0.0,0.0,0.0,0.0,2.7981,2.8842,0.0,0.0,0.0,0.0,3.031,3.0585,3.0679,3.0679,3.2756,3.4282,3.4942,3.7074,3.8492,3.9187,3.925,3.9281,3.9281,3.9281,3.9281,3.9281,3.9281,3.9281,3.9281,3.9281,3.9281,3.8871,3.3338,3.0967,3.0629,2.8459,2.7861,2.8313,2.9061,2.9156,2.8955,0.0,0.0,0.0,0.0,0.0,0.0,0.0,0.0,1.9341,1.879,2.0936,2.2443,2.2199,2.5258,2.7391,2.7353,2.8715,2.8636,2.6455,2.553,2.423,2.2323,2.1324,2.2243,2.538,2.8602,3.1364,3.3677,3.4161,3.4603,3.4977,3.462,3.4872,3.5629,3.5172,3.4915,3.4646,3.2716,3.1715,3.121,2.9186,2.7349,0.0,0.0,0.0,0.0,0.0,0.0,0.0,0.0,0.0,0.0,0.0,0.0,0.0,0.0,0.0,0.0,0.0,0.0,0.0,0.0,0.0,0.0,0.0,0.0,0.0,0.0,0.0,0.0,0.0,0.0,0.0,0.0,0.0,0.0,0.0,0.0,0.0,3.0591,3.1783,0.0,2.9911,2.973,3.0223,3.1461,3.2855,3.385,3.4352,3.6416,3.7705,3.7957,3.8714,3.925,3.9503,3.9503,3.9503,3.9503,3.9503,3.9503,3.9503,3.9503,3.9503,3.9503,3.9503,3.9628,3.9654,3.7618,3.6426,3.5751,3.513,3.483,3.4794,3.5253,3.5527,3.5654,0.0,0.0,0.0,0.0,0.0,0.0,0.0,0.0,1.8912,1.9115,2.1401,2.3162,2.3635,2.6846,2.9105,2.9316,3.0733,3.0567,2.81,2.7203,2.5568,2.2864,2.2503,2.4508,2.9067,3.0718,3.2546,3.4651,3.4555,3.4774,3.5356,3.5011,3.5401,3.6411,3.5922,3.5964,3.6241,3.4249,3.34,3.3178,3.1144,2.8989,2.697,0.0,0.0,0.0,0.0,0.0,0.0,0.0,0.0,0.0,0.0,0.0,0.0,0.0,0.0,0.0,0.0,0.0,0.0,0.0,0.0,0.0,0.0,0.0,0.0,0.0,0.0,0.0,0.0,0.0,0.0,0.0,0.0,0.0,0.0,0.0,3.1532,3.2054,3.3558,3.3971,3.2478,3.2572,3.3226,3.4384,3.582,3.6857,3.7329,3.8745,3.966,4.0039,3.9945,4.004,4.0357,4.0262,4.0262,4.0357,4.0357,4.0357,4.0357,4.0357,4.0357,4.0357,4.0357,4.0577,4.0887,4.0887,4.0347,3.9556,3.948,3.936,3.932,3.9486,3.9737,4.0011,0.0,0.0,0.0,0.0,0.0,0.0,0.0,1.8515,1.8861,2.1079,2.2802,2.4937,2.7858,2.9588,3.082,3.1548,3.1648,3.0444,2.7547,2.6612,2.4511,2.0785,2.2752,2.6086,3.0638,3.1373,3.2531,3.4234,3.49,3.5494,3.6072,3.6072,3.6424,3.7092,3.7059,3.7084,3.711,3.7077,3.6274,3.4849,3.3311,3.1309,2.9186,0.0,0.0,0.0,0.0,0.0,0.0,0.0,0.0,0.0,0.0,0.0,0.0,0.0,0.0,0.0,0.0,0.0,0.0,0.0,0.0,0.0,0.0,0.0,0.0,0.0,0.0,0.0,0.0,0.0,0.0,0.0,0.0,0.0,2.8904,3.2034,3.3779,3.2463,3.4093,3.5348,3.5348,3.5978,3.7266,3.9376,3.9534,3.9534,3.9597,3.9598,4.0071,4.1149,4.0865,4.1182,4.2173,4.1849,4.1849,4.2173,4.2173,4.2173,4.2173,4.2173,4.2173,4.2173,4.2141,4.2366,4.2649,4.2617,4.2228,4.161,4.0832,4.0717,4.0983,4.1012,4.1185,4.1409,0.0,0.0,0.0,0.0,0.0,0.0,0.0,1.8127,1.8175,2.0391,2.2506,2.474,2.7217,2.9753,3.1383,3.1581,3.2597,3.1967,2.9019,2.8081,2.6473,2.3868,2.7415,3.0264,3.2109,3.3397,3.4568,3.5589,3.5371,3.5354,3.5506,3.5564,3.5962,3.658,3.6568,3.6764,3.7166,3.7122,3.687,3.6406,3.5455,3.34,3.0902,0.0,0.0,0.0,0.0,0.0,0.0,0.0,0.0,0.0,0.0,0.0,0.0,0.0,0.0,0.0,0.0,0.0,0.0,0.0,0.0,0.0,0.0,0.0,0.0,0.0,0.0,0.0,0.0,0.0,0.0,0.0,0.0,3.3567,3.3784,3.4451,3.5537,3.7263,3.7987,3.8335,3.8335,3.8524,3.9092,4.0198,4.0293,4.061,4.1342,4.1656,4.207,4.2621,4.3067,4.3419,4.3679,4.3844,4.3976,4.4074,4.4074,4.4074,4.4074,4.4074,4.4074,4.4042,4.346,4.3426,4.3709,4.3186,4.2982,4.2933,4.1969,4.135,4.1012,4.1243,4.1324,4.1409,0.0,0.0,0.0,0.0,0.0,0.0,0.0,1.8192,1.8559,2.146,2.2965,2.5021,2.8213,3.0402,3.1714,3.2012,3.2299,3.1416,2.9059,2.7316,2.677,2.7717,3.0216,3.212,3.3299,3.478,3.5526,3.5425,3.5388,3.5521,3.5769,3.5799,3.6319,3.7174,3.7147,3.75,3.8079,3.8064,3.7831,3.7533,3.7102,3.4934,3.2067,3.3123,3.166,2.9173,3.0171,3.0532,3.0335,2.9005,0.0,0.0,0.0,0.0,0.0,0.0,0.0,0.0,0.0,0.0,0.0,0.0,0.0,0.0,0.0,0.0,0.0,0.0,0.0,0.0,0.0,0.0,0.0,0.0,3.3915,3.6722,3.7764,3.7377,3.7642,3.9313,3.9787,3.9977,3.9977,4.0482,4.102,4.143,4.1746,4.2129,4.2741,4.3154,4.3512,4.3844,4.4297,4.4556,4.4722,4.4788,4.4886,4.5017,4.5017,4.5017,4.5017,4.5017,4.5017,0.0,4.4561,4.4557,4.484,4.4412,4.4339,0.0,0.0,0.0,0.0,0.0,4.2307,4.2307,0.0,0.0,0.0,0.0,0.0,0.0,0.0,1.8658,1.9581,2.3408,2.3934,2.5613,3.0137,3.1283,3.2034,3.2785,3.147,2.9939,2.8326,2.5873,2.6615,3.1383,3.1726,3.2626,3.4374,3.5565,3.5701,3.4688,3.5319,3.5906,3.6413,3.6569,3.7242,3.8305,3.848,3.8814,3.9307,3.9388,3.9017,3.8328,3.8328,3.6224,3.3234,3.4556,3.3396,3.1232,3.2482,3.2919,3.2886,3.2623,0.0,0.0,0.0,0.0,0.0,0.0,0.0,0.0,0.0,0.0,0.0,0.0,0.0,0.0,0.0,0.0,0.0,0.0,0.0,0.0,0.0,0.0,0.0,0.0,3.6131,3.8646,4.0926,4.0483,3.9882,3.985,4.0451,4.0862,4.0956,4.2094,4.2789,4.2789,4.3424,4.3775,4.3809,0.0,0.0,0.0,0.0,4.5212,4.5537,4.5277,4.531,4.5601,4.5601,4.5601,4.5601,4.5601,4.5601,4.5601,4.5503,4.563,4.5914,4.5814,4.5781,4.5649,4.4291,4.3698,4.3698,4.3631,4.3598,0.0,0.0,0.0,0.0,0.0,0.0,0.0,0.0,1.9463,2.0373,2.4247,2.4724,2.6389,3.0898,3.2067,3.2762,3.3547,3.2266,3.0522,2.8489,2.8486,2.9489,3.1494,3.2918,3.4319,3.5707,3.5556,3.5676,3.6013,3.6166,3.631,3.6499,3.7592,3.8246,3.8496,3.9578,3.982,3.9414,3.9985,3.9779,3.9083,3.9083,3.793,3.6249,3.6547,3.629,3.5827,3.6067,3.6166,3.5902,3.407,3.3848,3.3957,3.1835,3.0184,0.0,0.0,0.0,0.0,0.0,0.0,0.0,0.0,0.0,0.0,0.0,0.0,0.0,0.0,0.0,0.0,0.0,0.0,0.0,3.4581,3.8298,4.1504,4.2622,4.262,4.236,4.2096,4.2189,4.2505,4.3074,4.3358,4.3482,4.3482,4.3952,4.4321,4.4555,4.5172,0.0,4.5996,4.6584,4.6945,4.7011,4.7243,4.7407,4.7473,0.0,0.0,4.7473,4.7473,4.7473,4.744,4.6844,4.6612,4.6643,4.6046,4.5781,4.5715,4.4821,4.4489,4.4423,4.3797,4.3598,4.3598,0.0,0.0,0.0,0.0,0.0,0.0,0.0,2.0025,2.0794,2.3523,2.3852,2.5102,2.8516,2.9509,3.0071,3.0531,3.0137,2.9476,2.8475,2.9544,3.0992,3.2779,3.4084,3.4893,3.5212,3.5608,3.589,3.5941,3.5941,3.6144,3.651,3.7172,3.7832,3.8479,3.9502,3.973,3.9408,4.0099,3.9978,3.9315,3.9315,3.8851,3.8195,3.8195,3.7963,3.7698,3.8063,3.8195,3.803,3.6911,3.6754,3.6695,3.4781,3.3336,3.2183,0.0,0.0,0.0,0.0,0.0,0.0,0.0,0.0,0.0,0.0,0.0,0.0,0.0,0.0,3.125,0.0,0.0,3.6947,3.7264,4.0696,4.3373,4.3428,4.3782,4.3808,4.3269,4.32,4.3358,4.364,4.4196,4.4579,4.4749,4.5419,4.6086,4.6615,4.7144,4.7584,4.7927,4.8492,4.8791,4.8791,4.8993,4.9094,4.9094,4.9094,4.9094,4.9094,4.873,4.8564,4.8498,4.7769,4.7438,4.7404,4.704,4.6908,4.6808,4.6079,4.5582,4.5185,4.4854,4.4489,4.4158,0.0,0.0,0.0,0.0,0.0,0.0,0.0,2.0559,2.1153,2.2814,2.2947,2.3802,2.6152,2.6844,2.7075,2.6884,2.81,2.8669,2.8253,3.0173,3.2144,3.3853,3.4678,3.4844,3.4323,3.5585,3.6005,3.5519,3.5519,3.5848,3.6477,3.6643,3.7436,3.8828,3.9377,3.9644,3.9751,4.0193,3.9978,3.9315,3.9315,3.9315,3.9315,3.9315,3.8924,3.8493,3.9083,3.9017,3.8718,3.9149,3.9017,3.8493,3.7654,3.6645,3.5251,3.241,3.1831,0.0,0.0,0.0,0.0,0.0,0.0,0.0,0.0,3.2213,3.2826,3.4781,3.5095,3.5194,3.581,3.792,3.9638,3.9977,4.2762,4.4768,4.4268,4.4724,4.4912,4.4449,4.419,4.4126,4.4411,4.5269,4.5946,4.6317,4.7257,4.8087,4.8703,4.903,4.9388,4.9705,5.0015,5.022,5.022,5.022,5.022,5.022,5.022,5.022,5.0187,4.9591,4.9326,4.9293,4.8531,4.8133,4.8001,4.8001,4.8001,4.7934,4.7338,4.6742,4.6179,4.5914,4.5417,4.4887,0.0,0.0,0.0,0.0,0.0,0.0,0.0,0.0,2.1824,2.3637,2.377,2.4576,2.6932,2.7249,2.6785,2.5475,2.8966,3.018,2.7745,3.1431,3.3584,3.3313,3.4011,3.4382,3.4294,3.515,3.5554,3.5519,3.5519,3.5848,3.651,3.7107,3.8431,4.0261,4.0344,4.0681,4.113,4.0619,3.9978,3.9315,3.9315,3.9315,3.9315,3.9315,3.9249,3.9183,3.9282,3.8055,3.6671,3.8652,3.7963,3.6671,3.846,3.7522,3.5473,3.374,3.2279,3.0869,2.9124,3.0412,3.2233,3.2171,3.3627,3.5095,0.0,3.5711,3.6179,3.6594,3.6551,3.6533,3.6734,3.9127,4.1045,4.1115,4.3704,4.5755,4.5996,4.6094,4.635,4.6945,4.5879,4.5591,4.6869,4.7423,4.7848,4.8189,4.8904,4.9396,4.9494,4.9842,5.0117,5.0152,5.0186,5.022,5.022,5.022,5.022,5.022,5.022,5.022,5.022,5.0121,5.0088,5.0055,4.9326,4.863,4.8001,4.8001,4.8001,4.8001,4.7901,4.7835,4.7603,4.6278,4.5748,4.5682,0.0,0.0,0.0,0.0,0.0,0.0,0.0,0.0,0.0,2.2745,2.2358,2.2608,2.4256,2.431,2.3931,2.3238,2.7197,2.927,2.8096,3.1508,3.3475,3.3209,3.3218,3.3456,3.3849,3.4569,3.51,3.5519,3.5519,3.5848,3.651,3.6778,3.7562,3.8716,3.9503,3.977,3.9683,4.0203,3.9978,3.9315,3.9315,3.9315,3.9315,3.9315,3.9315,3.9149,3.7831,3.7011,0.0,3.7176,3.7011,3.6861,3.8725,3.768,3.5572,3.4487,3.3341,3.2737,3.3866,3.4169,3.4497,3.5934,3.7004,3.7821,3.8276,3.8546,3.9139,4.0502,4.0767,4.0871,4.1352,4.2444,4.3436,0.0,4.532,4.6511,4.6649,4.721,4.7796,4.8315,4.8044,4.7858,4.8038,4.8576,4.9082,4.9397,4.9935,5.0418,5.0844,5.1021,5.1267,5.1479,5.1479,5.1479,5.1479,5.1479,5.1479,5.1479,5.1479,5.1479,5.1479,5.1015,5.0618,5.0187,4.9889,4.9326,4.8663,4.8663,4.8398,4.8001,4.8001,4.8001,4.7934,4.7305,4.6808,4.6444,0.0,0.0,0.0,0.0,0.0,0.0,0.0,0.0,0.0,0.0,2.182,2.1578,2.2287,2.2118,2.1911,2.1838,2.531,2.7689,2.8129,3.1052,3.2813,3.2971,3.2972,3.3033,3.3215,3.4053,3.4743,3.522,3.54,3.5759,3.6207,3.6207,3.6637,3.7476,3.8243,3.862,3.873,3.9471,3.9616,3.9315,3.9315,3.9315,3.9315,3.9315,3.8917,3.8162,3.6547,3.5844,3.563,3.5184,3.4928,3.5078,3.6835,3.6216,3.4667,3.3627,3.2826,3.2859,3.5926,3.6197,3.6237,3.877,3.9748,4.021,4.097,4.1135,4.1593,4.3267,4.3764,4.4092,4.4589,4.5019,4.5483,4.6013,4.6709,4.7272,4.7471,4.8166,4.8888,4.9487,4.9844,4.9922,4.9429,4.9812,5.0189,5.0546,5.0939,5.1418,5.1944,5.1977,5.2122,5.2373,5.2409,5.2409,5.2409,5.2409,5.2409,5.2409,5.2409,5.2409,5.2409,5.1879,5.1181,5.0518,5.0518,5.0088,4.9425,4.9425,4.8995,4.8299,4.8299,4.8166,4.8001,4.8001,4.7669,4.7206,0.0,0.0,0.0,0.0,0.0,0.0,0.0,0.0,0.0,0.0,0.0,0.0,0.0,2.1988,2.1871,2.1984,2.3982,2.5855,2.7425,3.0128,3.1875,3.24,3.3529,3.3653,3.2527,3.3814,3.4503,3.4533,3.519,3.5519,3.5519,3.5519,3.6239,3.7463,3.6815,3.7555,3.9314,3.863,3.8733,3.9315,3.9315,3.9315,3.9315,3.9315,3.7989,3.605,3.5877,3.4475,3.2704,3.258,3.1156,2.9821,3.1944,3.2567,3.2183,3.0697,2.9599,2.9621,3.277,3.4644,3.6401,3.9429,4.1291,4.2572,4.3333,4.3499,4.3532,4.3598,4.4158,4.4655,4.4688,4.5847,4.6841,4.6874,4.7504,4.8233,4.8928,4.906,4.9488,5.0523,5.1003,5.1371,0.0,5.1432,5.1404,5.1733,5.2125,5.234,5.2373,5.2373,5.2373,5.2409,5.2409,5.2409,5.2409,5.2409,5.2409,5.2409,5.2409,5.2409,5.2409,5.2409,5.1978,5.1282,5.1282,5.085,5.0187,5.0187,4.9756,4.9094,4.9094,4.863,4.8001,4.8001,4.8001,4.7968,0.0,0.0,0.0,0.0,0.0,0.0,0.0,0.0,0.0,0.0,0.0,0.0,0.0,0.0,0.0,0.0,2.423,2.559,2.6574,2.9433,3.139,3.2017,3.2671,3.302,3.3083,3.3578,3.4023,3.4503,3.516,3.5519,3.5519,3.5519,3.5739,3.6211,3.6785,3.7452,3.8115,3.8721,3.9094,3.9315,3.9315,3.9315,3.9149,3.7581,3.6505,3.5456,0.0,3.1166,3.0926,3.0445,3.0074,3.0097,3.1855,3.1396,3.0063,2.8967,2.9805,3.1717,3.4792,3.7117,3.9298,4.1819,4.2841,4.33,4.3532,4.3598,4.3731,4.4224,4.3363,4.2771,4.3674,4.4329,4.4856,4.5227,4.681,4.8266,4.8995,4.9525,5.0153,5.1008,5.164,0.0,0.0,0.0,0.0,5.2161,5.2338,5.2409,5.2409,5.2409,5.2409,5.2409,5.2409,5.2409,5.2409,5.2409,5.2409,5.2409,5.2409,5.2409,5.2409,5.2409,5.2277,5.2045,5.2045,5.1614,5.0916,5.0916,5.0485,4.979,4.9293,4.8961,4.8663,4.8166,4.8001,4.8001,0.0,0.0,0.0,0.0,0.0,0.0,0.0,0.0,0.0,0.0,0.0,0.0,0.0,0.0,0.0,0.0,0.0,2.498,2.6192,2.8102,2.9589,3.0505,3.0882,3.1016,3.0945,3.1369,3.1834,3.2377,3.3754,3.4562,3.4801,3.528,3.5519,3.5552,3.6352,3.6845,3.7086,3.8169,3.8193,3.7588,3.7834,3.7451,3.6536,3.5046,3.405,0.0,3.0149,2.8907,2.8506,2.8061,2.8368,2.9086,3.0086,2.9812,2.9243,2.9496,3.1023,3.3457,3.7044,3.91,4.0772,4.3006,4.3598,4.3598,4.3598,4.3598,4.3797,4.4556,4.2932,4.1716,4.2881,4.2485,4.2216,4.2884,4.4403,4.6152,4.8001,4.8895,4.992,5.1479,5.2111,5.2409,0.0,0.0,0.0,5.2409,5.2409,5.2409,5.2409,5.2409,5.2409,5.2409,5.2409,5.2409,5.2409,5.2409,5.2409,5.2409,5.2409,5.2409,5.2409,5.2409,5.2409,5.2409,5.2409,5.2144,5.1713,5.1713,5.1247,5.0551,5.0055,4.9558,4.9061,4.8564,4.8233,4.8001,0.0,0.0,0.0,0.0,0.0,0.0,0.0,0.0,0.0,0.0,0.0,0.0,0.0,0.0,0.0,0.0,0.0,0.0,2.62,2.6312,2.6831,2.8049,2.8404,2.8005,2.6705,2.7631,2.8298,2.8637,3.118,3.2736,3.3425,3.4711,3.531,3.531,3.5342,3.5666,3.623,3.6927,3.608,3.435,3.5014,3.3982,3.2071,3.1997,3.0849,2.9255,2.9156,2.7656,2.5766,2.5686,2.6276,2.7023,2.714,2.8179,2.9854,3.2121,3.3261,3.4758,3.9202,4.0365,4.0904,4.3039,4.3598,4.3598,4.3598,4.3598,4.3764,4.439,4.2767,4.1413,4.2042,0.0,3.9391,4.0084,4.0893,4.2706,4.6385,4.7473,4.9026,0.0,0.0,0.0,0.0,0.0,0.0,5.2409,0.0,5.2409,5.2409,5.2409,5.2409,5.2409,5.2409,5.2409,5.2409,5.2409,5.2409,5.2409,5.2409,5.2409,5.2409,5.2409,5.2409,5.2409,5.2409,5.2409,5.2409,5.2409,5.2011,5.1348,5.1315,5.0419,4.9193,4.9127,4.8663,4.8067,0.0,0.0,0.0,0.0,0.0,0.0,0.0,0.0,0.0,0.0,0.0,0.0,0.0,0.0,0.0,0.0,0.0,0.0,2.543,2.6261,2.7062,2.7915,2.8275,2.8279,2.7953,2.8309,2.8771,2.9352,3.0462,3.136,3.2019,3.2348,3.2527,3.2557,3.3026,3.3341,3.354,3.4148,3.3842,3.2959,3.3501,3.2854,3.1533,3.0446,2.9541,2.8668,2.716,2.6629,2.6662,2.6528,2.8111,3.0283,3.1572,3.2524,3.3421,3.4634,3.6239,3.8051,3.9781,4.1489,4.2874,4.3466,4.3598,4.3598,4.3598,4.3598,4.3333,4.2435,4.0514,3.8705,3.7701,3.891,4.0095,4.0183,4.3608,0.0,4.9027,4.9457,0.0,5.2175,0.0,5.2409,5.2409,5.2409,0.0,0.0,5.2409,5.2409,5.2409,5.2409,5.2409,5.2409,5.2409,5.2409,5.2409,5.2409,5.2409,5.2409,5.2409,5.2409,5.2409,5.2409,5.2409,5.2409,5.2409,5.2409,5.2409,5.2409,5.231,5.2078,5.1514,5.1083,5.0585,4.9525,4.8995,4.8763,0.0,0.0,0.0,0.0,0.0,0.0,0.0,0.0,0.0,0.0,0.0,0.0,0.0,0.0,0.0,0.0,0.0,0.0,0.0,2.5542,2.5815,2.6212,2.6236,2.6143,2.5901,2.6145,2.6471,2.6961,2.8457,2.9564,3.0255,3.1092,3.1511,3.1511,3.191,3.2048,3.2104,3.2761,3.2144,0.0,0.0,3.0235,2.8612,2.7853,2.7425,2.7062,2.6232,2.7235,2.9128,3.0018,3.1429,3.3083,3.4673,3.5423,3.5968,3.7404,3.8685,3.9968,4.1295,4.2642,4.3598,4.3598,4.3598,4.3333,4.2402,4.2204,4.1773,4.0315,3.803,3.6084,3.5514,3.6795,3.7959,3.8236,0.0,0.0,4.8332,4.8927,4.9953,0.0,5.2409,0.0,5.2409,5.2409,5.2506,0.0,5.2837,5.2837,5.2837,5.3135,5.3301,5.3301,5.3301,5.3169,5.2837,5.2539,5.2409,5.2409,5.2409,5.2409,5.2409,5.2409,5.2409,5.2409,0.0,5.2409,5.2409,5.2409,5.2409,5.2376,5.1945,5.158,5.1216,5.0353,4.9657,4.9061,0.0,0.0,0.0,0.0,0.0,0.0,0.0,0.0,0.0,0.0,0.0,0.0,0.0,0.0,0.0,0.0,0.0,0.0,0.0,0.0,2.4231,2.42,2.3779,2.3333,2.2879,2.3193,2.3549,2.3936,2.6231,2.7735,2.8487,3.0195,3.0972,3.0972,3.0972,3.0972,3.1029,3.1583,3.0491,2.8355,2.8628,2.7278,2.5068,0.0,2.5368,2.5246,2.604,2.8517,3.1693,3.4164,3.521,3.5811,3.7342,3.7897,3.8361,4.0249,4.0812,4.121,4.3069,4.3598,4.3598,4.3598,4.3598,4.3035,4.0878,4.0343,3.9719,3.7864,3.5346,3.3624,3.3955,3.4325,3.4889,3.591,3.9084,4.2769,4.6616,4.7737,4.9158,5.2042,5.2409,5.2409,5.2409,5.2409,5.2672,5.3367,5.35,5.3566,5.3566,5.4125,5.449,5.449,5.449,5.4162,5.3434,5.2804,5.2473,5.2409,5.2409,5.2409,5.2409,5.2409,5.2409,5.2409,0.0,0.0,5.2409,5.2409,5.2409,5.2409,5.2409,5.2011,5.1448,5.1348,5.0485,4.9359,0.0,0.0,0.0,0.0,0.0,0.0,0.0,0.0,0.0,0.0,2.3425,2.4052,0.0,0.0,0.0,0.0,0.0,0.0,0.0,0.0,0.0,2.4684,2.4126,2.3777,2.3695,2.3986,2.4654,2.574,2.5892,2.6572,2.7794,2.8124,2.8274,2.8274,2.8274,2.8274,2.8274,2.8402,2.7866,2.698,2.7361,2.6328,2.4739,2.586,0.0,0.0,2.6607,2.8591,3.0991,3.4641,3.7392,3.955,4.1054,4.1976,4.2539,4.2936,4.3035,4.3102,4.3499,4.3598,4.3598,4.3598,4.3598,4.3035,4.0878,3.9945,3.8387,3.4452,3.2718,3.1396,2.9679,3.1836,3.4682,3.7188,4.0734,4.4693,4.8994,4.9723,5.0418,0.0,5.2409,5.2409,5.2409,5.2409,0.0,0.0,0.0,5.4291,5.4291,5.4423,5.449,5.449,5.449,5.4162,5.3434,5.3301,5.2937,5.2409,5.2409,5.2409,5.2409,5.2409,5.2409,5.2409,0.0,0.0,5.2409,5.2409,5.2409,5.2409,5.2409,5.2343,5.2144,5.1547,5.1149,5.0717,0.0,0.0,0.0,0.0,0.0,0.0,0.0,2.3932,2.3797,2.3502,2.3435,2.392,2.5149,2.5564,2.5978,0.0,0.0,0.0,0.0,0.0,0.0,0.0,2.3723,2.3408,2.3872,2.3983,2.4596,2.572,0.0,2.6719,2.7437,2.7801,2.7953,2.7953,2.771,2.7585,2.7585,2.7585,2.7405,2.713,2.7157,2.6663,2.5963,0.0,0.0,0.0,2.6983,2.8928,3.1298,3.3624,3.7039,4.0624,4.2506,4.33,4.3598,4.3598,4.3598,4.3598,4.3598,4.3598,4.3598,4.3598,4.3598,4.2638,3.8957,3.7831,3.6232,3.1459,3.0158,2.9534,2.8405,3.0891,3.3693,3.5498,3.9842,4.4131,4.7438,4.9226,5.075,5.2208,5.2409,5.2409,5.2409,5.2409,0.0,0.0,0.0,5.4655,5.5019,5.5454,5.5653,5.5653,5.5289,5.4887,5.4523,5.3798,5.3235,5.2904,5.2572,5.2409,5.2409,5.2409,5.2409,5.2409,5.2409,0.0,5.2409,5.2409,5.2409,5.2409,5.2409,5.2409,5.2376,5.2011,5.1647,5.1216,0.0,0.0,0.0,0.0,0.0,0.0,0.0,2.3883,2.3748,2.3444,2.341,2.374,2.4573,2.5214,2.5913,0.0,0.0,0.0,0.0,0.0,0.0,0.0,0.0,0.0,0.0,0.0,0.0,2.5798,2.6608,0.0,0.0,0.0,0.0,0.0,2.7904,2.7685,2.7585,2.7585,2.7585,0.0,0.0,2.7198,0.0,0.0,0.0,0.0,0.0,2.8799,3.1056,3.228,3.5466,3.9328,4.1513,4.2837,4.3499,4.3006,4.3234,4.3598,4.3598,4.3598,4.3598,4.3598,4.3598,4.2274,3.7168,3.5876,3.4319,2.9205,2.8025,2.7836,2.7726,2.9749,3.1858,3.3208,3.7543,4.189,4.5119,4.7835,5.0154,5.1978,5.231,0.0,5.2409,5.2409,0.0,0.0,0.0,0.0,5.5819,5.6382,5.668,5.668,5.615,5.5747,5.5582,5.4423,5.3732,5.34,5.287,5.2539,5.2409,5.2409,5.2409,5.2409,5.2409,0.0,0.0,5.2409,5.2409,5.2409,5.2409,5.2409,5.2409,5.2409,5.2045,5.1514,0.0,0.0,0.0,0.0,0.0,0.0,0.0,2.5406,2.4932,2.3579,2.341,2.3695,2.4437,2.5198,2.5946,0.0,0.0,0.0,0.0,0.0,0.0,0.0,0.0,0.0,0.0,0.0,0.0,2.7384,2.7127,0.0,0.0,0.0,0.0,0.0,0.0,2.8002,2.7585,2.7585,0.0,0.0,0.0,0.0,0.0,0.0,0.0,0.0,0.0,2.7412,2.8882,3.1205,3.2972,3.464,3.6952,4.0387,4.3201,4.1102,4.1985,4.3598,4.3598,4.3598,4.3598,4.3598,4.3598,4.2274,3.7168,3.5479,3.3557,2.8442,2.6778,2.6206,2.6114,2.6902,2.8608,3.1976,3.4197,3.7687,4.3926,4.6179,4.8233,5.1083,0.0,0.0,5.2409,5.2409,0.0,0.0,0.0,0.0,0.0,5.6647,5.668,5.668,5.6614,5.6282,5.5582,5.545,5.4759,5.34,5.3367,5.3003,5.2409,5.2409,5.2409,5.2409,0.0,0.0,0.0,5.2409,5.2409,5.2409,5.2409,5.2409,5.2409,5.2409,5.2376,5.221,0.0,0.0,0.0,0.0,0.0,0.0,2.5726,2.5592,2.5236,2.4203,2.3695,2.3695,2.4486,2.4825,2.5406,2.6522,0.0,0.0,0.0,0.0,0.0,0.0,0.0,0.0,0.0,0.0,2.5157,2.6929,2.7542,0.0,0.0,0.0,0.0,0.0,0.0,0.0,2.761,2.7879,0.0,0.0,0.0,0.0,0.0,0.0,0.0,0.0,0.0,0.0,2.8504,2.9586,3.1349,3.297,3.2451,3.539,3.9195,4.0062,4.095,4.1972,4.3234,4.3598,4.3598,4.3598,4.2634,4.0547,3.6307,3.4087,3.1714,2.7387,2.6242,2.5972,2.5793,2.6036,2.682,2.8702,3.1451,3.4625,3.8216,4.191,4.5351,4.8299,4.969,0.0,0.0,0.0,0.0,0.0,0.0,0.0,0.0,5.668,5.668,5.668,5.668,5.6547,5.6249,5.5852,5.5284,5.4688,5.3831,5.3268,5.3003,5.2572,5.2409,5.2409,0.0,0.0,0.0,5.2409,5.2409,5.2409,5.2409,5.2409,5.2409,5.2409,5.2409,5.2376,0.0,0.0,0.0,0.0,0.0,2.6653,2.5726,2.5406,2.5117,2.4606,2.3864,2.371,2.4516,2.4742,2.5221,2.6219,2.6437,0.0,0.0,0.0,0.0,0.0,0.0,0.0,0.0,0.0,2.4958,2.6737,2.7858,2.8946,0.0,0.0,0.0,0.0,0.0,0.0,0.0,0.0,0.0,0.0,0.0,0.0,0.0,0.0,0.0,0.0,0.0,0.0,0.0,0.0,0.0,3.1714,2.9774,3.1396,3.4537,3.7224,3.9162,4.0741,4.2237,4.3102,4.3598,4.3598,4.2005,3.9421,3.5719,3.3148,3.0525,2.6747,2.5972,2.5936,2.5738,2.5701,2.5929,2.6697,2.9431,3.2251,3.4475,3.8705,4.2634,4.5582,0.0,4.8995,0.0,0.0,0.0,0.0,0.0,0.0,0.0,5.668,5.668,5.668,5.668,5.668,5.668,5.6183,5.5852,5.5582,5.4361,5.3632,5.34,5.2705,5.2409,5.2409,0.0,0.0,0.0,5.2409,5.2409,5.2409,5.2409,5.2409,5.2409,5.2409,5.2409,5.2409,0.0,0.0,0.0,0.0,0.0,0.0,2.571,2.4966,2.4538,2.4581,2.3909,2.3725,2.4513,2.5182,2.5592,2.5592,2.6219,0.0,0.0,0.0,0.0,0.0,0.0,0.0,0.0,0.0,2.5162,2.7282,2.8044,2.9118,3.0489,3.0489,3.0258,2.9772,0.0,0.0,0.0,0.0,0.0,0.0,0.0,0.0,0.0,0.0,0.0,0.0,0.0,0.0,0.0,0.0,0.0,0.0,0.0,2.9308,2.977,3.1867,3.6224,4.0409,4.0442,4.1972,4.3598,4.3598,4.2005,3.9421,3.5646,3.309,3.0441,2.6672,2.5881,2.5862,2.5719,2.5701,2.5929,2.6697,2.8167,3.0553,3.4277,3.7441,4.0382,0.0,0.0,4.6709,0.0,0.0,0.0,0.0,0.0,0.0,0.0,5.668,5.668,5.668,5.668,5.668,5.668,5.668,5.6316,5.5582,5.4821,5.4129,5.34,5.2705,5.2409,0.0,0.0,0.0,0.0,5.2409,5.2409,5.2409,5.2409,5.2409,5.2409,5.2409,5.2409,5.2409,0.0,0.0,0.0,0.0,0.0,0.0,0.0,2.615,2.5997,2.603,2.5354,2.5031,2.5313,2.5047,2.4862,2.4911,2.5949,0.0,0.0,0.0,0.0,0.0,0.0,0.0,0.0,2.4182,2.5411,2.6535,2.8213,2.9534,3.0489,3.0426,3.0194,2.9793,2.9639,0.0,0.0,0.0,0.0,0.0,0.0,0.0,0.0,0.0,0.0,0.0,0.0,0.0,0.0,0.0,0.0,0.0,0.0,0.0,0.0,2.8693,3.1737,3.5283,3.6199,3.7345,3.813,3.759,3.5811,3.3736,3.2044,2.9983,2.7919,2.6134,2.5756,2.5752,2.564,2.5621,2.5886,2.6678,2.7741,2.9198,3.1342,0.0,0.0,4.2389,4.7207,5.0585,0.0,0.0,0.0,0.0,0.0,0.0,0.0,5.668,5.668,5.668,5.668,5.668,5.668,5.668,5.6581,5.6349,5.509,5.4394,5.4129,5.2937,0.0,0.0,0.0,0.0,0.0,5.2409,5.2409,5.2409,5.2409,5.2409,5.2409,5.2409,5.2409,5.2409,0.0,0.0,0.0,0.0,0.0,0.0,0.0,2.6454,2.6403,2.6741,2.6099,2.5625,2.5705,2.5216,2.4812,2.4588,2.534,0.0,0.0,0.0,0.0,0.0,0.0,0.0,2.3588,2.4878,2.5839,2.6473,2.803,2.9214,2.9988,2.9988,2.9995,3.0022,2.9859,2.9639,0.0,0.0,0.0,0.0,0.0,0.0,2.6847,0.0,0.0,0.0,0.0,0.0,0.0,0.0,0.0,0.0,0.0,0.0,0.0,0.0,2.8411,3.0925,3.2853,3.4323,3.5227,3.4726,3.2928,3.1101,3.0336,2.8481,2.6689,2.5826,2.5677,2.5659,2.5616,2.5597,2.5862,2.6678,2.7774,2.9329,3.1605,0.0,0.0,4.3211,0.0,0.0,0.0,0.0,0.0,0.0,0.0,0.0,0.0,0.0,5.668,5.668,5.668,5.668,5.668,5.668,5.668,5.668,5.5222,5.449,5.4423,5.3036,0.0,0.0,0.0,0.0,0.0,5.2409,5.2409,5.2409,5.2409,5.2409,5.2409,5.2409,5.2409,5.2409,0.0,0.0,0.0,0.0,0.0,0.0,0.0,2.6116,2.5979,2.6774,2.6131,2.5625,2.5689,2.5539,2.5203,2.4541,0.0,0.0,0.0,0.0,0.0,0.0,0.0,0.0,2.4817,2.5766,2.6473,2.691,2.7683,2.8436,2.9091,2.9181,2.9605,3.0297,2.9924,2.9805,2.9815,2.9307,2.9199,2.9244,2.8033,2.748,0.0,0.0,0.0,0.0,0.0,0.0,0.0,0.0,0.0,0.0,0.0,0.0,0.0,0.0,0.0,0.0,0.0,3.2469,3.4045,3.3988,3.2413,3.0697,2.9935,2.8196,0.0,2.5745,2.5597,2.5629,2.5681,2.5648,2.5913,2.6827,2.8232,3.0553,0.0,3.7812,0.0,0.0,0.0,0.0,0.0,0.0,0.0,0.0,0.0,0.0,0.0,0.0,5.668,5.668,5.668,5.668,5.668,5.668,5.6647,5.6581,5.5189,5.4456,5.4394,5.3003,0.0,0.0,0.0,0.0,0.0,5.2409,5.2409,5.2409,5.2409,5.2409,5.2409,5.2409,5.2409,5.2409,0.0,0.0,0.0,0.0,0.0,0.0,0.0,0.0,0.0,0.0,2.6099,2.5609,2.5625,2.4594,2.4052,0.0,0.0,0.0,0.0,0.0,0.0,0.0,0.0,0.0,2.4872,2.6844,2.7533,2.691,2.8207,2.8928,2.9091,2.8494,2.8706,2.9539,2.9457,2.9753,3.0309,2.9645,2.907,2.8555,2.7698,2.7321,0.0,0.0,0.0,0.0,2.933,2.986,0.0,0.0,0.0,0.0,0.0,0.0,0.0,0.0,2.6012,2.6274,2.6853,0.0,2.8633,2.7895,2.7335,2.6893,0.0,2.627,2.5829,2.5648,2.5597,2.5797,2.6411,2.6029,2.6276,2.8385,2.8989,3.0915,3.5712,0.0,0.0,5.0452,0.0,0.0,0.0,0.0,0.0,0.0,0.0,0.0,0.0,0.0,5.668,5.668,5.668,5.668,5.668,5.668,5.6415,5.5852,5.4957,5.4192,5.3632,5.2771,0.0,0.0,0.0,0.0,5.2409,5.2409,5.2409,5.2409,5.2409,5.2409,5.2409,5.2409,5.2409,5.2409,0.0,0.0,0.0,0.0,0.0,0.0,0.0,0.0,0.0,0.0,0.0,2.5609,2.5657,2.4609,0.0,0.0,0.0,0.0,0.0,0.0,0.0,0.0,0.0,2.5455,2.6389,2.7569,2.7866,2.7264,2.8425,2.8783,2.8457,2.8066,2.8355,2.9165,2.9247,2.9547,2.9959,2.9251,2.8542,2.7879,2.7812,0.0,0.0,0.0,0.0,0.0,2.9761,3.0158,0.0,3.0489,3.0489,3.0257,0.0,0.0,0.0,0.0,2.5881,2.5862,2.5696,2.6311,2.6877,2.6371,2.6216,2.6146,2.6146,2.5862,2.5597,2.5597,2.5597,2.5713,2.6178,2.6471,2.7232,2.8976,3.0925,0.0,0.0,0.0,4.8398,0.0,0.0,0.0,0.0,0.0,0.0,0.0,0.0,0.0,0.0,0.0,5.6547,5.6216,5.6216,5.6349,5.668,5.6349,5.6017,5.5582,5.449,5.3798,5.34,5.2705,0.0,0.0,0.0,0.0,5.2409,5.2409,5.2409,5.2409,5.2409,5.2409,5.2409,5.2409,5.2409,5.2409,0.0,0.0,0.0,0.0,0.0,0.0,0.0,0.0,0.0,0.0,0.0,0.0,0.0,0.0,0.0,0.0,0.0,0.0,0.0,0.0,0.0,0.0,2.6609,2.6961,2.8174,2.8023,2.7908,2.7883,2.8292,2.8227,2.7741,2.7635,2.7968,2.8727,2.9141,2.9283,2.9218,2.8542,2.7945,2.7514,2.8011,0.0,0.0,0.0,0.0,0.0,0.0,0.0,0.0,3.0357,3.0323,3.0092,2.8674,0.0,0.0,0.0,0.0,0.0,2.584,2.6716,2.7558,2.6943,2.6768,2.6762,2.6645,2.6094,2.5597,2.5597,2.5597,2.5713,2.6075,2.7095,2.829,2.9547,0.0,0.0,4.4257,4.6576,4.8431,0.0,0.0,0.0,0.0,0.0,0.0,0.0,0.0,0.0,0.0,0.0,0.0,5.545,5.5416,5.5752,5.6349,5.5752,5.535,5.5251,5.403,5.3367,5.3235,5.2638,0.0,0.0,0.0,0.0,5.2409,5.2409,5.2409,5.2409,5.2409,5.2409,5.2409,5.2409,5.2409,5.2409,0.0,0.0,0.0,0.0,0.0,0.0,0.0,0.0,0.0,0.0,0.0,0.0,0.0,0.0,0.0,0.0,0.0,0.0,0.0,0.0,0.0,2.933,2.7929,2.7476,2.8187,2.8102,2.8249,2.8628,2.7595,2.7375,2.7843,2.6613,2.6512,2.7451,2.8788,2.9065,2.8508,2.7779,2.7746,2.8177,2.768,0.0,0.0,0.0,0.0,0.0,0.0,0.0,0.0,2.9761,2.9562,2.9317,2.7912,0.0,0.0,0.0,0.0,0.0,2.6634,2.8726,3.0016,2.6639,2.6295,2.6645,2.5945,2.5681,2.5597,2.5597,2.5597,2.6224,2.8277,2.8257,2.8842,3.1682,0.0,4.2671,0.0,0.0,0.0,0.0,0.0,0.0,0.0,0.0,0.0,0.0,0.0,0.0,0.0,0.0,0.0,5.4655,5.4655,5.4688,5.4858,5.4759,5.4357,5.3732,5.3533,5.3102,5.2539,5.2475,5.2409,0.0,0.0,5.2409,5.2409,5.2409,5.2409,5.2409,5.2409,5.2409,5.2409,5.2409,5.2409,5.2409,0.0,0.0,0.0,0.0,0.0,0.0,0.0,0.0,0.0,0.0,0.0,0.0,0.0,0.0,0.0,0.0,0.0,0.0,0.0,0.0,2.9256,2.9964,2.9059,2.8627,2.8801,2.8199,2.7985,2.8207,2.723,2.6945,2.7277,2.6651,2.6812,2.7662,2.799,2.8213,2.8232,2.7595,2.7713,2.8409,0.0,0.0,0.0,0.0,0.0,0.0,0.0,0.0,0.0,0.0,2.8853,2.8655,2.7613,0.0,0.0,0.0,0.0,0.0,2.6194,2.7611,2.8923,2.8209,2.9847,3.1582,3.1188,3.0762,3.013,2.8923,2.902,2.927,2.921,3.0827,3.3844,3.8931,0.0,4.4721,0.0,0.0,0.0,0.0,0.0,0.0,0.0,0.0,0.0,0.0,0.0,0.0,0.0,0.0,0.0,0.0,5.393,5.3732,5.3367,5.3367,5.3367,5.34,5.3036,5.2705,5.2409,5.2409,5.2409,5.2409,0.0,5.2409,5.2409,5.2409,5.2409,5.2409,5.2409,5.2409,5.2409,5.2409,5.2409,5.2409,0.0,0.0,0.0,0.0,0.0,0.0,0.0,0.0,0.0,0.0,0.0,0.0,0.0,0.0,0.0,0.0,0.0,0.0,0.0,2.9848,3.0249,3.0287,3.0054,2.9736,2.9349,2.8159,2.7522,2.7462,2.6782,2.6562,2.6821,2.7068,2.7486,2.8102,2.7767,2.7858,2.8213,2.776,2.7959,2.8668,0.0,0.0,0.0,0.0,0.0,0.0,0.0,0.0,0.0,0.0,0.0,0.0,0.0,0.0,0.0,2.6136,2.5954,2.5968,2.5942,2.6795,2.8154,2.9945,3.2052,3.4008,3.5251,3.4487,3.3332,3.2502,3.2764,3.2666,3.1046,3.3966,0.0,4.4125,4.5284,0.0,0.0,0.0,0.0,0.0,0.0,0.0,0.0,0.0,0.0,0.0,0.0,0.0,0.0,0.0,0.0,0.0,5.3169,5.2904,5.2409,5.2409,5.2638,5.3169,5.2638,5.2409,5.2409,5.2409,5.2409,5.2409,5.2409,5.2409,5.2409,5.2409,5.2409,5.2409,5.2409,5.2409,5.2409,5.2409,5.2409,5.2409,0.0,0.0,0.0,0.0,0.0,0.0,0.0,0.0,0.0,0.0,0.0,0.0,0.0,0.0,0.0,0.0,0.0,0.0,0.0,3.0717,3.1064,3.0931,3.0831,3.0389,2.9483,2.7885,2.6951,2.6782,2.6037,2.6075,2.6821,2.7558,2.8017,2.8214,2.884,2.8854,2.8376,2.8343,2.8662,2.9222,2.9356,0.0,0.0,0.0,0.0,0.0,0.0,0.0,0.0,0.0,0.0,0.0,0.0,0.0,2.6234,2.6026,2.5954,2.6063,2.6733,2.8343,3.0087,3.0981,2.9312,2.8715,3.3561,3.2498,3.135,3.4693,3.544,3.5432,3.5341,3.7382,3.9852,4.234,4.5582,0.0,0.0,0.0,0.0,0.0,0.0,0.0,0.0,0.0,0.0,0.0,0.0,0.0,0.0,0.0,0.0,0.0,0.0,5.2475,5.2409,5.2409,5.2407,5.244,5.2407,5.2409,5.2409,5.2409,5.2409,5.2409,5.2409,5.2409,5.2409,5.2409,5.2409,5.2409,5.2409,5.2409,5.2409,5.2409,5.2409,5.2409,0.0,0.0,0.0,0.0,0.0,0.0,0.0,0.0,0.0,0.0,0.0,0.0,0.0,0.0,0.0,0.0,0.0,0.0,0.0,3.0962,3.1092,3.1131,3.1032,3.0342,2.9034,2.776,2.6827,2.6194,2.6314,2.6737,2.7512,2.8391,2.9042,2.9416,2.8852,2.8708,2.882,2.8913,2.9362,3.0001,3.0051,3.0237,0.0,0.0,0.0,0.0,0.0,0.0,0.0,0.0,2.6634,2.6568,2.6285,2.6185,2.6168,2.6045,2.599,2.6001,2.6153,2.8114,3.0347,3.1046,3.0381,3.0925,3.6189,3.7209,3.7472,3.8956,3.9974,4.0469,4.0034,0.0,4.3893,4.5649,0.0,0.0,0.0,0.0,0.0,0.0,0.0,0.0,0.0,0.0,0.0,0.0,0.0,0.0,0.0,0.0,0.0,0.0,0.0,5.2409,5.2409,5.2409,5.2409,5.2409,5.2409,5.2409,5.2409,5.2409,5.2409,5.2409,5.2409,5.2409,5.2409,5.2409,5.2409,5.2409,5.2409,5.2409,5.2409,5.2409,5.2409,5.2409,0.0,0.0,0.0,0.0,0.0,0.0,0.0,0.0,0.0,0.0,0.0,0.0,0.0,0.0,0.0,0.0,0.0,0.0,3.119,3.1112,3.1112,3.119,3.0875,3.0345,2.9513,2.8104,2.6899,2.5881,2.6787,2.7682,2.867,2.9514,3.0138,3.0457,2.958,2.9436,2.9821,2.9708,2.9893,3.0354,3.0384,3.0231,0.0,0.0,0.0,0.0,0.0,0.0,0.0,0.0,2.6185,2.6185,2.6185,2.6185,2.6168,2.6081,2.6008,2.5954,2.5793,2.7375,2.9389,3.0555,3.1175,3.291,3.8216,3.966,4.0418,4.2406,4.3595,4.4158,4.3628,4.5152,0.0,0.0,0.0,0.0,0.0,0.0,0.0,0.0,0.0,0.0,0.0,0.0,0.0,0.0,0.0,0.0,0.0,0.0,0.0,0.0,0.0,0.0,5.2409,5.2409,5.2409,5.2409,5.2409,5.2409,5.2409,5.2409,5.2409,5.2409,5.2409,5.2409,5.2409,5.2409,5.2409,5.2409,5.2409,5.2409,5.2409,5.2409,5.2409,5.248,0.0,0.0,0.0,0.0,0.0,0.0,0.0,0.0,0.0,0.0,0.0,0.0,0.0,0.0,0.0,0.0,0.0,0.0,3.121,3.119,3.119,3.119,3.0514,3.048,3.119,2.8973,2.7188,2.5932,2.7413,2.8825,3.0215,3.0937,3.1231,3.1108,3.1242,3.1353,3.1353,3.0672,3.0333,3.0205,3.0205,2.9716,2.9011,0.0,0.0,0.0,0.0,0.0,0.0,0.0,2.6185,2.6185,2.6185,2.6185,2.6185,2.6185,2.6059,2.5881,2.5881,2.6319,2.7308,2.9533,3.1185,3.3663,3.9001,3.8453,3.8558,4.4591,4.5814,4.5814,4.5814,4.7007,0.0,0.0,0.0,0.0,0.0,0.0,0.0,0.0,0.0,0.0,0.0,0.0,0.0,0.0,0.0,0.0,0.0,0.0,0.0,0.0,0.0,0.0,5.2409,5.2409,5.2409,5.2409,5.2409,5.2409,5.2409,5.2409,5.2409,5.2409,5.2409,5.2409,5.2409,5.2409,5.2409,5.2409,5.2409,5.2409,5.2409,5.2409,5.248,5.2589,0.0,0.0,0.0,0.0,0.0,0.0,0.0,0.0,0.0,0.0,0.0,0.0,0.0,0.0,0.0,0.0,0.0,0.0,3.121,3.1235,3.1472,3.1955,3.1752,3.1495,3.119,2.9719,2.831,2.7078,2.8234,2.9276,3.0227,3.1472,3.1733,3.1108,3.1242,3.0969,3.0413,3.0292,3.0248,3.0227,3.0342,2.9955,2.9242,0.0,0.0,0.0,0.0,0.0,0.0,0.0,0.0,0.0,2.6185,2.6185,2.6185,2.6185,2.6059,2.5881,2.5881,2.9005,3.2027,3.1132,3.439,3.8387,4.0512,4.0875,4.2026,4.6412,4.7338,4.7173,4.6676,4.8199,0.0,0.0,0.0,0.0,0.0,0.0,0.0,0.0,0.0,0.0,0.0,0.0,0.0,0.0,0.0,0.0,0.0,0.0,0.0,0.0,0.0,0.0,5.2409,5.2409,5.2409,5.2409,5.2409,5.2409,5.2409,5.2409,5.2409,5.2409,5.2409,5.2409,5.2409,5.2516,5.2518,5.2553,5.2694,5.2659,5.2587,5.2694,5.2659,5.2624,0.0,0.0,0.0,0.0,0.0,0.0,0.0,0.0,0.0,0.0,3.1308,3.1254,0.0,0.0,0.0,0.0,0.0,0.0,0.0,3.1676,3.2015,3.2699,3.2462,3.1955,3.1224,3.1053,3.0355,2.9046,2.9735,3.03,3.075,3.2251,3.2456,3.1531,3.1622,3.1361,3.0881,3.0348,3.0162,3.0205,3.0269,2.9645,2.8693,0.0,0.0,0.0,0.0,0.0,0.0,0.0,0.0,0.0,2.6185,2.6185,2.6185,2.615,2.6041,2.6161,2.7309,3.039,3.3416,3.4185,3.7275,4.071,4.265,4.3671,4.4925,4.7471,4.8233,4.8398,4.8233,4.9558,0.0,0.0,0.0,0.0,0.0,0.0,0.0,0.0,0.0,0.0,0.0,0.0,0.0,0.0,0.0,0.0,0.0,0.0,0.0,0.0,0.0,0.0,5.2409,5.2409,5.2409,5.2409,5.2409,5.2409,5.2409,5.2409,5.2409,5.2409,5.2409,5.2409,5.2409,5.2518,5.2589,5.2624,5.2834,5.2834,5.2729,5.2868,5.2868,5.2868,0.0,0.0,0.0,0.0,0.0,0.0,0.0,0.0,0.0,0.0,3.1408,3.1312,0.0,0.0,0.0,0.0,0.0,0.0,0.0,3.2395,3.2733,3.3457,3.2848,3.2192,3.1529,3.2658,3.2624,3.1272,3.1458,3.1504,3.144,3.2982,3.3087,3.1987,3.2173,3.2145,3.1919,3.0478,2.9913,2.9987,2.9794,2.8897,2.7664,2.7778,0.0,0.0,0.0,0.0,0.0,0.0,0.0,0.0,2.6185,2.6185,2.6168,2.6045,2.6169,2.6902,2.9493,3.1057,3.3065,3.7887,3.9919,4.1597,4.5022,4.6411,4.7173,4.7868,4.8531,4.926,5.0055,5.075,0.0,0.0,0.0,0.0,0.0,0.0,0.0,0.0,0.0,0.0,0.0,0.0,0.0,0.0,0.0,0.0,0.0,0.0,0.0,0.0,0.0,0.0,5.2409,5.2409,5.2409,0.0,5.2409,5.2409,5.2409,5.2409,5.2409,5.2409,5.2409,5.2409,5.2445,5.2553,5.2624,5.2659,5.2868,5.2938,5.2938,5.2938,5.3041,5.3179,0.0,0.0,0.0,0.0,0.0,0.0,0.0,0.0,0.0,0.0,0.0,0.0,0.0,0.0,0.0,0.0,0.0,0.0,0.0,3.327,3.3596,3.4235,3.41,3.3931,3.3795,3.2816,3.2161,3.1825,3.1307,3.0941,3.0766,3.2353,3.2144,3.0521,3.1921,3.1472,2.9685,2.9349,2.8914,2.84,2.8474,2.7951,2.7133,2.7185,2.6667,0.0,0.0,0.0,0.0,0.0,0.0,0.0,2.6185,2.6185,2.6168,2.6045,2.7622,2.9531,3.0039,3.3731,3.7689,3.8803,4.1886,4.479,4.5616,4.6808,4.7802,4.7968,4.8133,4.8663,4.9988,0.0,0.0,0.0,0.0,0.0,0.0,0.0,0.0,0.0,0.0,0.0,0.0,0.0,0.0,0.0,0.0,0.0,0.0,0.0,0.0,0.0,0.0,5.2409,5.2409,5.2409,5.2409,0.0,5.2409,5.2409,5.2409,5.2409,5.2409,5.2409,5.2409,5.248,5.2553,5.2764,5.2938,5.3076,5.328,5.328,5.3144,5.3314,5.3314,5.3213,0.0,0.0,0.0,0.0,0.0,0.0,0.0,0.0,0.0,0.0,0.0,0.0,0.0,0.0,0.0,0.0,0.0,0.0,0.0,0.0,3.4333,3.5013,3.437,3.3964,3.3964,3.2778,3.1974,3.1638,3.1234,3.0932,3.0654,3.1807,3.1769,3.0794,3.156,3.1013,2.9479,2.9153,2.8567,2.7923,2.7996,2.7552,2.6879,2.7014,2.6592,2.5917,2.6026,0.0,0.0,0.0,0.0,0.0,0.0,0.0,2.6168,2.6045,2.7076,2.8852,3.1638,3.4634,3.7656,4.0535,4.3565,4.5781,4.5781,4.6941,4.8001,4.8001,4.8001,4.8465,0.0,0.0,0.0,0.0,0.0,0.0,0.0,0.0,0.0,0.0,0.0,0.0,0.0,0.0,0.0,0.0,0.0,0.0,0.0,0.0,0.0,0.0,5.2409,5.2409,5.2409,5.2409,5.2409,5.2409,5.2409,5.2409,5.2409,5.2409,5.2409,5.2409,5.2409,5.248,5.2624,5.2799,5.3007,5.3213,5.3416,5.3416,5.3348,5.345,5.3416,5.3348,0.0,0.0,0.0,0.0,0.0,0.0,0.0,0.0,0.0,0.0,0.0,0.0,0.0,0.0,0.0,0.0,0.0,0.0,0.0,0.0,0.0,3.5194,3.4066,3.341,3.3423,3.2699,3.1989,3.1413,3.1278,3.1117,3.0938,3.1512,3.1632,3.1394,3.1265,3.062,2.9631,2.9077,2.8327,2.7492,2.7525,2.7088,2.651,2.676,2.6424,2.5881,2.6078,2.615,2.6168,2.6185,0.0,0.0,0.0,0.0,2.615,2.6026,2.6315,2.7722,3.2671,3.4667,3.6682,4.2245,4.4721,4.5781,4.5781,4.6941,4.8001,4.8001,4.8001,0.0,0.0,0.0,0.0,0.0,0.0,0.0,0.0,0.0,0.0,0.0,0.0,0.0,0.0,0.0,0.0,0.0,0.0,0.0,0.0,0.0,5.2409,5.2409,5.2409,5.2409,5.2409,5.2409,5.2409,5.2409,5.2409,5.2409,5.2409,5.2409,5.2409,5.2409,5.2409,5.2516,5.2659,5.2868,5.3076,5.328,5.3416,5.3518,5.3518,5.3518,5.3518,5.3518,0.0,0.0,0.0,0.0,0.0,0.0,0.0,0.0,0.0,0.0,3.335,3.3288,0.0,0.0,0.0,0.0,0.0,0.0,0.0,0.0,0.0,3.3728,3.3609,3.3528,3.3423,3.2699,3.2259,3.2158,3.156,3.1332,3.1438,3.1854,3.1566,3.0654,3.1262,3.0363,2.8338,2.8187,2.7251,2.5894,2.5956,2.5886,2.5726,2.5783,2.5775,2.5738,2.5881,2.5972,2.6045,2.6168,2.6185,0.0,0.0,0.0,2.6026,2.6026,2.7695,2.9789,3.0598,3.4601,3.9325,4.2741,4.4721,4.5781,4.5781,4.6941,4.8001,0.0,0.0,0.0,0.0,0.0,0.0,0.0,0.0,0.0,0.0,0.0,0.0,0.0,0.0,0.0,0.0,0.0,0.0,0.0,0.0,0.0,0.0,5.2409,5.2409,5.2409,5.2409,5.2409,5.2409,5.2409,5.2409,5.2409,5.2409,5.2409,5.2409,5.2551,5.2516,5.2409,5.2518,5.2659,5.2868,5.3076,5.328,5.345,5.3518,5.3518,5.3518,5.3518,5.3518,5.3518,0.0,0.0,0.0,0.0,0.0,0.0,0.0,0.0,0.0,0.0,0.0,3.4167,0.0,0.0,0.0,0.0,0.0,0.0,0.0,0.0,0.0,3.3389,3.2652,3.2435,3.2801,3.2056,3.1684,3.1684,3.1385,3.1274,3.1404,3.1515,3.1341,3.0958,3.1049,3.0013,2.8162,2.8109,2.7172,2.5677,2.5793,2.6793,2.8009,2.6428,2.6806,2.8023,2.6494,2.5972,2.6026,2.615,2.6185,2.6185,2.6185,0.0,0.0,0.0,2.693,2.8509,3.1779,3.5819,3.9814,4.2841,4.4721,4.5781,4.5781,4.6941,4.8001,4.8001,0.0,0.0,0.0,0.0,0.0,0.0,0.0,0.0,0.0,0.0,0.0,0.0,0.0,0.0,0.0,0.0,0.0,0.0,0.0,0.0,5.2409,5.2409,5.2409,5.2409,5.2409,5.2409,5.2409,5.2409,5.2445,5.2516,5.2516,5.2516,5.2483,5.2553,5.2553,5.2551,5.2694,5.2868,5.3076,5.3144,5.3314,5.3518,5.3518,5.3518,5.3518,5.3518,5.3518,5.3518,0.0,0.0,0.0,0.0,0.0,0.0,0.0,0.0,0.0,0.0,0.0,0.0,0.0,0.0,0.0,0.0,0.0,0.0,0.0,0.0,0.0,3.2848,3.1785,3.1467,3.2022,3.1481,3.119,3.119,3.123,3.1288,3.1351,3.1327,3.1312,3.1332,3.0918,2.9915,2.8471,2.8273,2.7347,2.6045,2.677,2.8299,2.9964,2.8056,2.8628,3.0095,2.7268,2.6235,2.6221,2.618,2.6168,2.6185,2.6185,2.6168,0.0,0.0,0.0,2.7014,3.2062,3.5087,3.7722,4.1522,4.3598,4.4856,4.5616,0.0,4.8001,0.0,0.0,0.0,0.0,0.0,0.0,0.0,0.0,0.0,0.0,0.0,0.0,0.0,0.0,0.0,0.0,0.0,0.0,0.0,0.0,0.0,5.2409,5.2409,5.2409,5.2409,5.2409,5.2409,5.2409,5.2445,5.2551,5.2659,5.2659,5.2659,5.2659,5.2729,5.2729,5.2764,5.2903,5.3041,5.3213,5.328,5.3348,5.3518,5.3518,5.3518,5.3518,5.3518,5.3518,5.3518,0.0,0.0,0.0,0.0,0.0,0.0,0.0,0.0,0.0,0.0,0.0,0.0,3.56,3.4979,3.4617,3.4737,3.4079,0.0,0.0,0.0,0.0,3.1326,3.1288,0.0,3.1258,3.1224,3.119,3.119,3.1254,3.1351,3.1481,3.1576,3.1557,3.1462,3.1072,3.0296,2.9197,2.8504,2.7643,2.6945,2.9091,3.0041,3.0185,3.0784,3.109,3.0773,2.7977,2.6915,2.6784,2.6188,2.6081,2.6185,2.6185,2.6132,2.6045,0.0,0.0,0.0,2.9531,3.0424,3.1984,3.7854,4.0441,4.2253,0.0,0.0,0.0,0.0,0.0,0.0,0.0,0.0,0.0,0.0,0.0,0.0,0.0,0.0,0.0,0.0,0.0,0.0,0.0,0.0,0.0,0.0,0.0,0.0,5.2409,5.2409,5.2409,5.2409,5.2409,5.2409,5.2409,5.2551,5.2694,5.2868,5.2868,5.2868,5.2868,5.3076,5.3179,5.3179,5.3179,5.3179,5.3213,5.3416,5.3518,5.3518,5.3518,5.3518,5.3518,5.3518,5.3518,5.3518,0.0,0.0,0.0,0.0,0.0,0.0,0.0,0.0,0.0,0.0,0.0,0.0,0.0,3.4641,3.4324,3.3905,3.3181,0.0,0.0,0.0,0.0,3.119,3.123,3.123,3.119,3.119,3.119,3.119,3.1274,3.137,3.1481,3.156,3.1542,3.1515,3.121,3.0509,2.9443,2.8576,2.7715,2.7139,2.9424,3.1451,3.2975,3.1757,3.3355,3.5703,3.1331,0.0,2.9184,2.9131,2.784,2.6294,2.6469,2.6383,2.6279,2.6417,2.6277,2.6745,2.9748,3.0333,3.1111,3.5357,3.8851,4.1593,4.2679,4.5551,0.0,0.0,0.0,0.0,0.0,0.0,0.0,0.0,0.0,0.0,0.0,0.0,0.0,0.0,0.0,0.0,0.0,0.0,0.0,0.0,0.0,0.0,5.2409,5.248,5.2551,5.2551,5.2624,5.2694,5.2694,5.2903,5.3007,5.3076,5.3076,5.3076,5.3076,5.3179,5.3179,5.3213,5.3348,5.3382,5.3382,5.345,5.3518,5.3518,5.3518,5.3518,5.3518,5.3518,5.3518,5.3518,0.0,0.0,0.0,0.0,0.0,0.0,0.0,0.0,0.0,3.5294,0.0,0.0,0.0,0.0,3.3562,3.2849,3.2306,3.1837,3.1385,3.1269,3.121,3.1249,3.121,3.119,3.119,3.119,3.119,3.119,3.1293,3.137,3.1443,3.1542,3.142,3.1049,3.0934,3.0437,2.968,2.8965,2.8028,2.7372,3.0825,3.3232,3.4625,3.3646,3.5383,3.7781,0.0,0.0,0.0,3.1974,3.0883,2.9101,2.8391,2.7398,2.6521,2.6573,2.6453,2.6747,2.8753,2.9052,2.963,3.3039,3.6049,3.8818,4.1327,0.0,0.0,0.0,0.0,0.0,0.0,0.0,0.0,0.0,0.0,0.0,0.0,0.0,0.0,0.0,0.0,0.0,0.0,0.0,0.0,0.0,0.0,0.0,5.2587,5.2624,5.2694,5.2694,5.2834,5.2938,5.3007,5.3144,5.3213,5.3314,5.3314,5.3314,5.3314,5.3314,5.3314,5.3314,5.3416,5.3518,5.3518,5.3518,5.3518,5.3518,5.3518,5.3518,5.3518,5.3518,5.3518,5.3518,0.0,0.0,0.0,0.0,0.0,0.0,0.0,0.0,3.47,3.4666,0.0,0.0,0.0,0.0,0.0,3.1549,3.1481,3.1481,3.1481,3.1308,3.1249,3.1312,0.0,0.0,3.119,3.121,3.121,3.121,3.1385,3.1443,3.1298,3.1523,3.1127,3.0243,3.0243,3.0168,3.0002,2.968,2.8705,2.7793,3.3509,3.5358,3.489,3.6596,3.7191,0.0,3.3914,3.2892,0.0,3.4655,0.0,0.0,3.1799,2.897,2.6691,2.6624,2.659,2.6556,0.0,0.0,0.0,3.0851,0.0,0.0,4.1157,0.0,0.0,0.0,0.0,0.0,0.0,0.0,0.0,0.0,0.0,0.0,0.0,0.0,0.0,0.0,0.0,0.0,0.0,0.0,0.0,0.0,0.0,5.2903,5.2903,5.2903,5.2903,5.2903,5.2903,5.3007,5.3213,5.3213,5.3314,5.3518,5.3518,5.3518,5.3518,5.3518,5.3518,5.3518,5.3518,5.3518,5.3518,5.3518,5.3518,5.3518,5.3518,5.3518,5.3518,5.3518,5.3518,5.3518,0.0,0.0,0.0,0.0,0.0,3.5608,3.5098,3.4912,3.4635,0.0,0.0,0.0,3.2909,3.2212,3.172,3.1515,3.1423,3.1351,3.1351,3.1269,3.121,3.123,3.121,3.119,3.119,3.1235,3.1274,3.1274,3.1466,3.1542,3.1523,3.1654,3.1588,3.1379,3.1379,3.0925,3.0141,2.9202,2.8857,2.9364,3.4523,3.6792,3.7327,3.9946,0.0,0.0,0.0,3.9668,3.9495,0.0,3.686,3.3069,2.9724,2.7964,2.7138,2.7122,2.6941,2.6741,2.6792,0.0,0.0,0.0,0.0,0.0,0.0,0.0,0.0,0.0,0.0,0.0,0.0,0.0,0.0,0.0,0.0,0.0,0.0,0.0,0.0,0.0,0.0,0.0,0.0,0.0,0.0,0.0,5.2065,5.2334,5.287,5.3041,5.3179,5.3314,5.3314,5.3348,5.3416,5.3416,5.345,5.3518,5.3518,5.3518,5.3518,5.3518,5.3518,5.3518,5.3518,5.3518,5.3518,5.3518,5.3518,5.3518,5.3518,5.3518,5.3518,5.3518,5.3518,5.3518,0.0,0.0,0.0,0.0,0.0,3.542,3.5253,3.4814,3.4316,0.0,0.0,0.0,3.2299,3.1888,3.1595,3.1557,3.1466,3.1408,3.137,3.1274,3.1235,3.1235,3.121,3.119,3.119,3.1579,3.1808,3.1808,3.2002,3.2059,3.2021,3.1826,3.1554,3.1262,3.1262,3.0761,2.9916,2.945,2.9202,2.9636,3.5223,3.747,3.7906,4.1196,4.333,0.0,0.0,0.0,4.2478,4.306,3.9901,0.0,0.0,3.073,2.899,2.8369,2.8287,2.8305,2.8066,2.759,2.7249,2.7657,0.0,0.0,3.4756,3.6956,0.0,0.0,0.0,0.0,0.0,0.0,0.0,0.0,0.0,0.0,0.0,0.0,0.0,0.0,0.0,0.0,0.0,0.0,0.0,0.0,5.1799,5.2337,5.3111,5.328,5.3382,5.3518,5.3518,5.3518,5.3518,5.3518,5.3518,5.3518,5.3518,5.3518,5.3518,5.3518,5.3518,5.3518,5.3518,5.3518,5.3518,5.3518,5.3518,5.3518,5.3518,5.3518,5.3518,5.3518,5.3518,5.3518,0.0,0.0,3.4759,3.4734,3.4869,3.52,3.5779,3.4768,3.3902,0.0,3.2509,3.1688,3.1903,3.1903,3.1901,3.1857,3.1838,3.1835,3.1773,3.1662,3.157,3.157,3.1526,3.1501,3.1501,3.2264,3.2684,3.2684,3.274,3.2745,3.2613,3.1956,3.1273,3.0637,3.0656,3.0279,2.973,3.0309,3.0059,2.9796,3.5916,3.7971,0.0,0.0,4.316,4.3219,4.3219,4.3307,4.3747,4.5503,4.3225,0.0,0.0,0.0,0.0,0.0,3.0314,3.0791,2.9848,2.9128,2.875,2.9351,0.0,0.0,3.666,3.7644,3.9007,0.0,0.0,0.0,0.0,0.0,0.0,0.0,0.0,0.0,0.0,0.0,0.0,0.0,0.0,0.0,0.0,0.0,5.0207,5.0854,5.166,5.2536,5.3315,5.3382,5.3416,5.3518,5.3518,5.3518,5.3518,5.3518,5.3518,5.3518,5.3518,5.3518,5.3518,5.3518,5.3518,5.3518,5.3518,5.3518,5.3518,5.3518,5.3518,5.3518,5.3518,5.3518,5.3518,5.3518,5.3518,5.3518,0.0,3.3926,3.4131,3.4759,3.4932,3.505,3.52,3.4561,3.3815,3.3175,3.2314,3.1988,3.2628,3.2697,3.29,3.3402,3.347,3.3431,3.3365,3.3345,3.329,3.329,3.3304,3.3304,3.3304,3.3508,3.3616,3.3616,3.3117,3.2865,3.2846,3.2107,3.1623,3.1392,3.1485,3.1342,3.0999,3.1822,3.2937,3.4421,3.7928,3.9981,4.1382,4.5499,4.7287,4.7569,4.7569,4.7662,4.7481,4.5433,4.3483,4.1214,0.0,0.0,0.0,3.2299,0.0,0.0,0.0,0.0,0.0,0.0,0.0,0.0,3.1905,3.2446,3.3781,0.0,0.0,0.0,0.0,0.0,0.0,0.0,0.0,0.0,0.0,0.0,0.0,0.0,0.0,0.0,0.0,0.0,4.9526,5.0238,5.0982,5.1758,5.2503,5.2536,5.2841,5.3484,5.3518,5.3518,5.3518,5.3518,5.3518,5.3518,5.3518,5.3518,5.3518,5.3518,5.3518,5.3518,5.3518,5.3518,5.3518,5.3518,5.3518,5.3518,5.3518,5.3518,5.3518,5.3518,5.3518,5.3518,3.3451,3.3299,3.3519,3.4268,3.4425,3.4706,3.5462,3.5009,3.441,3.3997,3.3309,3.2999,3.3377,3.3412,3.351,3.3768,3.3802,3.3645,3.3242,3.355,3.3564,3.3182,3.3564,3.3768,3.3707,3.3836,3.3882,3.3882,3.3225,3.2904,3.2869,3.2089,3.1654,3.1598,3.1651,3.1557,3.1423,3.1871,3.3645,3.6434,3.9194,0.0,4.3394,4.6984,4.8452,4.8675,4.8675,4.8769,4.8658,4.7203,4.4818,0.0,0.0,3.9506,3.808,0.0,3.5339,3.5844,0.0,0.0,0.0,3.1641,0.0,0.0,0.0,3.3174,3.4068,3.7433,0.0,0.0,0.0,0.0,0.0,0.0,0.0,0.0,0.0,0.0,0.0,0.0,0.0,0.0,0.0,0.0,4.9323,5.0033,5.0439,5.098,5.1725,5.2097,5.2469,5.2875,5.3281,5.3518,5.3518,5.3518,5.3518,5.3518,5.3518,5.3518,5.3518,5.3518,5.3518,5.3518,5.3518,5.3518,5.3518,5.3518,5.3518,5.3518,5.3518,5.3518,5.3518,5.3518,5.3518,5.3518,3.3229,3.3126,3.3294,3.4006,3.4123,3.4569,3.5998,3.5517,3.4967,3.4809,3.4377,3.4082,3.4103,3.4597,3.4898,3.478,3.5168,3.4998,3.3973,3.4451,3.4294,3.3223,3.385,3.411,3.3857,3.4042,3.4054,3.3882,3.3205,3.2865,3.2812,3.1994,3.1663,3.1781,3.2183,3.2178,3.1939,3.2403,3.4593,3.7986,0.0,4.2644,4.4917,4.7874,4.9015,4.9046,4.9046,4.911,4.9234,4.8951,4.6496,4.3627,4.3824,4.243,0.0,0.0,0.0,0.0,0.0,0.0,0.0,0.0,0.0,3.1983,0.0,0.0,0.0,3.8116,0.0,0.0,0.0,0.0,0.0,0.0,0.0,0.0,0.0,0.0,0.0,0.0,0.0,0.0,0.0,0.0,4.8781,4.9796,4.9492,4.9763,5.0947,5.1555,5.1995,5.23,5.2942,5.3348,5.3518,5.3518,5.3518,5.3518,5.3518,5.3518,5.3518,5.3518,5.3518,5.3518,5.3518,5.3518,5.3518,5.3518,5.3518,5.3518,5.3518,5.3518,5.3518,5.3518,5.3518,5.3518,3.3973,3.3859,3.404,3.4741,3.4878,3.5153,3.6066,3.5635,3.4898,3.4143,3.4432,3.4711,3.4787,3.7137,3.8685,3.8662,4.0504,4.0777,3.8696,3.8628,3.7763,3.5702,3.569,3.5459,3.4837,3.4857,3.4535,3.3882,3.3181,3.2745,3.2613,3.1842,3.1837,3.2508,3.4512,3.4627,3.3509,3.5591,3.8172,0.0,4.1936,4.4027,0.0,4.9643,5.0787,5.0882,5.0882,5.0916,5.0644,0.0,4.7844,4.6685,0.0,4.3333,4.481,3.8105,0.0,0.0,0.0,0.0,0.0,0.0,3.4123,0.0,0.0,0.0,3.297,3.2676,0.0,0.0,0.0,0.0,0.0,0.0,0.0,0.0,0.0,0.0,0.0,0.0,0.0,0.0,0.0,0.0,0.0,4.8984,4.7327,4.7394,5.0067,5.0304,5.0947,5.2266,5.2401,5.2773,5.3484,5.3518,5.3518,5.3518,5.3518,5.3518,5.3518,5.3518,5.3518,5.3518,5.3518,5.3518,5.3518,5.3518,5.3518,5.3518,5.3518,5.3518,5.3518,5.3518,5.3518,5.3518,3.4046,3.3957,3.4103,3.4795,3.4903,3.51,3.5959,3.5801,3.5437,3.5172,3.5284,3.5402,3.5423,3.6547,3.7761,3.9016,0.0,3.9991,0.0,0.0,3.8046,3.5355,3.5305,3.519,3.4827,3.4035,3.3474,3.3131,3.2413,3.2017,3.1959,3.156,3.1793,3.2604,3.4771,3.5632,3.5542,3.6955,3.9263,0.0,0.0,0.0,0.0,5.031,5.1153,5.1185,5.1185,5.1185,5.1082,0.0,4.8196,0.0,0.0,0.0,0.0,0.0,0.0,0.0,0.0,0.0,0.0,0.0,0.0,0.0,3.4001,0.0,3.3254,0.0,0.0,0.0,0.0,0.0,0.0,0.0,0.0,0.0,0.0,0.0,0.0,0.0,0.0,0.0,0.0,0.0,0.0,0.0,0.0,4.6819,4.9323,4.9864,5.0574,5.1623,5.2097,5.2706,5.3484,5.3518,5.3518,5.3518,5.3518,5.3518,5.3518,5.3518,5.3518,5.3518,5.3518,5.3518,5.3518,5.3518,5.3518,5.3518,5.3518,5.3518,5.3518,5.3518,5.3518,5.3518,3.4535,3.4398,3.4582,3.5066,3.5061,3.521,3.5907,3.5866,3.5924,3.6205,3.6332,3.6378,3.6378,3.7668,3.9069,4.0417,4.1441,4.1297,0.0,0.0,3.8788,3.6005,0.0,0.0,0.0,3.3707,3.267,3.2227,3.1715,3.1443,3.1404,3.1312,3.1681,3.2564,3.4866,3.6366,3.7202,3.8531,4.0832,4.3639,4.4959,4.7022,4.9492,5.1183,5.186,5.186,5.186,5.186,5.1758,5.1148,4.8843,0.0,4.9012,0.0,0.0,0.0,0.0,0.0,3.926,0.0,0.0,0.0,0.0,0.0,0.0,0.0,0.0,0.0,0.0,0.0,0.0,0.0,0.0,3.413,0.0,0.0,0.0,0.0,0.0,0.0,0.0,0.0,0.0,0.0,0.0,0.0,0.0,0.0,4.8849,4.9492,5.0135,5.0879,5.1623,5.2367,5.3179,5.3382,5.3518,5.3518,5.3518,5.3518,5.3518,5.3518,5.3518,5.3518,5.3518,5.3518,5.3518,5.3518,5.3518,5.3518,5.3518,5.3518,5.3518,5.3518,5.3518,5.3518,3.5788,3.5732,3.5766,3.5766,3.5778,3.5822,3.5975,3.5866,3.605,3.6786,3.7418,0.0,0.0,0.0,0.0,0.0,0.0,4.7902,4.3538,0.0,4.1204,0.0,0.0,3.5972,0.0,0.0,3.2842,3.1346,3.1312,3.1274,3.121,3.121,3.1616,3.2429,3.5441,3.7178,3.8058,4.0933,4.3876,4.6718,4.7496,4.8714,5.0304,0.0,5.345,5.345,5.345,0.0,0.0,5.1007,5.0221,0.0,0.0,0.0,0.0,0.0,0.0,0.0,0.0,0.0,0.0,3.6999,0.0,0.0,0.0,0.0,3.4056,0.0,0.0,0.0,0.0,0.0,3.3939,3.4585,3.4121,0.0,0.0,0.0,0.0,0.0,0.0,0.0,0.0,0.0,0.0,0.0,0.0,0.0,4.8748,4.9018,4.9357,5.0101,5.0845,5.1589,5.2334,5.3112,5.3518,5.3518,5.3518,5.3518,5.3518,5.3518,5.3518,5.3518,5.3518,5.3518,5.3518,5.3518,5.3518,5.3518,5.3518,5.3518,5.3518,5.3518,5.3518,5.3518,3.5667,3.5667,3.5667,3.5667,3.5667,3.5689,0.0,3.6152,0.0,0.0,3.9639,0.0,0.0,4.391,4.5466,0.0,0.0,4.7597,4.5094,4.4215,0.0,0.0,0.0,3.7235,0.0,0.0,0.0,3.3418,3.2944,3.2686,3.2645,3.2645,3.3051,3.3884,3.6931,3.9478,0.0,0.0,0.0,0.0,0.0,4.8342,5.0168,0.0,0.0,5.1454,5.2976,5.3518,0.0,5.2637,5.1417,5.0265,5.0773,4.9447,4.784,4.8286,4.7597,0.0,0.0,0.0,4.4613,4.0764,0.0,0.0,0.0,0.0,0.0,0.0,0.0,0.0,0.0,0.0,3.51,3.4755,3.441,3.3859,0.0,0.0,0.0,0.0,0.0,0.0,0.0,0.0,0.0,0.0,0.0,0.0,0.0,4.9018,4.9323,5.0067,5.0845,5.1555,5.23,5.3112,5.3518,5.3518,5.3518,5.3518,5.3518,5.3518,5.3518,5.3518,5.3518,5.3518,5.3518,5.3518,5.3518,5.3518,5.3518,5.3518,5.3518,5.3518,5.3518,5.3518,3.6411,3.6411,3.6242,3.5701,3.5836,0.0,0.0,0.0,0.0,0.0,4.1542,0.0,4.5156,0.0,4.7124,0.0,4.9187,4.8409,4.5872,4.5737,0.0,4.3227,4.0857,0.0,0.0,0.0,0.0,0.0,3.481,3.4066,3.3795,3.3795,3.3897,3.4201,3.6705,3.9749,4.3132,4.4925,4.7428,0.0,0.0,4.7631,0.0,0.0,4.939,5.0405,0.0,5.3518,5.3518,5.3518,5.2536,5.1555,5.3044,5.1586,4.9582,5.104,5.0119,4.8481,4.7758,4.7971,0.0,4.4061,4.3598,0.0,3.9515,0.0,0.0,0.0,0.0,0.0,0.0,0.0,3.5562,3.4663,3.4506,3.3964,0.0,3.2232,0.0,0.0,0.0,0.0,0.0,0.0,0.0,0.0,4.435,0.0,0.0,0.0,4.9221,4.9695,5.0439,5.1183,5.1894,5.2672,5.3213,5.3518,5.3518,5.3518,5.3518,5.3518,5.3518,5.3518,5.3518,5.3518,5.3518,5.3518,5.3518,5.3518,5.3518,5.3518,5.3518,5.3518,5.3518,5.3518,3.7922,3.7922,3.7425,0.0,3.6366,0.0,0.0,0.0,3.9884,0.0,4.3132,4.4519,4.6853,4.9018,5.0304,5.027,5.1589,5.0574,4.6244,4.7259,0.0,0.0,4.4784,4.5427,4.6921,0.0,0.0,0.0,0.0,3.5351,3.4607,3.4641,3.4269,3.3626,3.5092,3.8193,4.2422,4.4654,4.8071,5.1725,4.8206,4.6786,4.6819,4.6921,0.0,5.0405,5.2672,5.3518,5.3518,5.3518,5.3518,5.3518,5.3518,5.3518,5.3518,5.3518,5.3518,5.3077,5.1038,4.9949,4.8927,4.6732,0.0,0.0,0.0,0.0,4.0172,0.0,0.0,0.0,0.0,0.0,0.0,3.4432,3.4386,3.402,3.2598,0.0,0.0,0.0,0.0,0.0,0.0,0.0,3.6468,4.0933,4.188,4.2997,0.0,0.0,0.0,4.9018,4.9729,5.0439,5.1185,5.1928,5.2706,5.3518,5.3518,5.3518,5.3518,5.3518,5.3518,5.3518,5.3518,5.3518,5.3518,5.3518,5.3518,5.3518,5.3518,5.3518,5.3518,5.3518,5.3518,5.3518,3.7922,3.7922,3.7956,0.0,3.7855,3.7686,0.0,0.0,0.0,0.0,4.5974,4.8037,5.142,5.2773,5.3213,5.2672,5.345,0.0,0.0,0.0,0.0,4.9526,4.7394,4.7158,4.9187,4.4316,0.0,4.1441,0.0,3.6941,3.622,3.6772,3.6637,3.6017,3.7449,3.9681,4.2354,4.3504,4.5635,4.8139,4.7158,4.6786,0.0,0.0,4.9593,5.0405,5.2672,5.3518,5.3518,5.3518,5.3518,5.3518,5.3518,5.3518,5.3518,5.3518,5.3518,5.3382,5.284,5.2536,5.1891,4.9743,4.8651,4.7529,0.0,0.0,0.0,0.0,0.0,0.0,0.0,0.0,0.0,3.5566,3.4834,3.437,0.0,0.0,0.0,0.0,0.0,0.0,0.0,3.5554,3.7821,4.1711,4.1677,4.3335,0.0,0.0,0.0,4.8951,4.9729,5.0439,5.1185,5.1928,5.2706,5.3518,5.3518,5.3518,5.3518,5.3518,5.3518,5.3518,5.3518,5.3518,5.3518,5.3518,5.3518,5.3518,5.3518,5.3518,5.3518,5.3518,5.3518,5.3518,3.887,3.887,0.0,3.9436,0.0,0.0,4.0299,0.0,0.0,4.6177,4.797,0.0,5.2672,5.4228,5.4905,5.4499,5.4837,0.0,5.1826,0.0,0.0,5.1251,5.0574,5.0642,5.1555,4.7733,0.0,4.4248,0.0,3.9445,3.7777,3.8193,3.799,3.7313,3.8464,4.0223,4.2455,4.5196,4.6515,4.6887,4.7834,0.0,0.0,5.0101,5.1386,5.2706,5.4025,5.4059,5.3518,5.3518,5.3518,5.3518,5.3518,5.3518,5.3518,5.3518,5.3518,5.3518,5.3518,5.3518,5.3213,5.2025,5.1381,5.0498,4.8375,4.7316,4.6397,0.0,0.0,0.0,0.0,0.0,0.0,3.5971,3.5239,0.0,0.0,0.0,0.0,0.0,0.0,0.0,0.0,0.0,3.6389,4.0087,3.9986,0.0,0.0,0.0,0.0,4.753,4.8274,4.9492,5.1151,5.098,5.1758,5.3518,5.3518,5.3518,5.3518,5.3518,5.3518,5.3518,5.3518,5.3518,5.3518,5.3518,5.3518,5.3518,5.3518,5.3518,5.3518,5.3518,5.3518,5.3518,4.0113,0.0,0.0,0.0,0.0,0.0,0.0,4.3606,0.0,4.8037,0.0,5.1116,5.257,5.46,5.5818,5.5716,0.0,5.4972,5.2875,5.46,5.4532,5.1895,5.3687,5.4397,5.3653,5.142,4.912,0.0,0.0,4.1914,3.9005,3.9073,3.8734,3.8091,3.8802,4.0358,0.0,4.7293,4.8342,4.7124,4.9357,5.0676,5.1386,5.1691,5.345,5.5681,5.5681,5.4905,5.3788,5.3687,5.3653,5.3619,5.3551,5.3518,5.3518,5.3518,5.3518,5.3518,5.3518,5.3518,5.3518,5.3518,5.3518,5.301,5.1142,5.0224,4.9172,4.7165,4.5671,0.0,0.0,0.0,0.0,0.0,0.0,0.0,0.0,0.0,0.0,0.0,0.0,0.0,0.0,0.0,0.0,3.7594,3.7594,0.0,0.0,0.0,0.0,0.0,4.6752,0.0,5.0913,0.0,5.0608,5.3213,5.3416,5.3518,5.3518,5.3518,5.3518,5.3518,5.3518,5.3518,5.3518,5.3518,5.3518,5.3518,5.3518,5.3518,5.3518,5.3518,5.3518,5.3518,4.0113,0.0,0.0,0.0,0.0,4.5906,4.7733,4.7902,4.8714,5.1217,5.2334,5.3484,5.4938,5.6021,5.6359,5.5749,5.6258,0.0,0.0,0.0,0.0,5.4904,5.531,5.5175,5.4397,5.2164,4.9627,0.0,0.0,4.1914,3.9005,3.9639,3.9537,3.8836,3.9605,4.1136,4.3267,4.4153,0.0,4.7872,5.0135,5.1454,5.2334,5.4228,5.5243,5.5681,5.5681,5.5547,5.5243,5.46,5.4397,5.4296,5.3687,5.3518,5.3518,5.3518,5.3518,5.3518,5.3518,5.3518,5.3518,5.3518,5.3518,5.3416,5.3043,5.284,5.2468,5.1385,5.0945,4.9862,4.6752,0.0,0.0,0.0,0.0,0.0,0.0,0.0,0.0,0.0,0.0,0.0,0.0,0.0,0.0,0.0,0.0,0.0,0.0,0.0,0.0,0.0,0.0,0.0,0.0,0.0,0.0,5.1623,5.2909,5.3518,5.3518,5.3518,5.3518,5.3518,5.3518,5.3518,5.3518,5.3518,5.3518,5.3518,5.3518,5.3518,5.3518,5.3518,5.3518,5.3518,4.1264,0.0,0.0,0.0,0.0,0.0,0.0,5.2875,0.0,5.2976,5.3923,5.4938,5.5649,5.7374,5.8389,5.8017,5.8321,5.822,5.7476,5.7405,5.707,5.6325,5.6292,0.0,5.5209,5.4126,5.1725,4.7936,0.0,0.0,4.0121,4.0113,3.991,3.9673,4.1602,4.3058,0.0,0.0,0.0,5.0405,5.2638,5.3991,5.4769,5.5852,5.6528,5.6833,5.6833,5.6833,5.6664,5.5547,5.5175,5.504,5.4296,5.4059,5.3991,5.3619,5.3518,5.3518,5.3518,5.3518,5.3518,5.3518,5.3518,5.3518,5.3518,5.3518,5.3382,5.301,5.2604,5.1183,4.7462,4.3436,0.0,0.0,0.0,0.0,0.0,0.0,0.0,0.0,0.0,0.0,0.0,0.0,0.0,0.0,0.0,0.0,0.0,0.0,0.0,0.0,0.0,0.0,0.0,0.0,0.0,5.2401,5.3145,5.3518,5.3518,5.3518,5.3518,5.3518,5.3518,5.3518,5.3518,5.3518,5.3518,5.3518,5.3518,5.3518,5.3518,5.3518,5.3518,5.3518,0.0,4.3031,0.0,0.0,4.8714,0.0,5.4566,5.6934,5.7509,5.5209,5.5919,5.6664,5.6664,5.8727,6.0114,6.0114,6.0114,5.9844,5.9268,5.9235,5.866,5.734,5.7273,5.6867,5.5953,5.5953,5.389,0.0,0.0,0.0,4.1914,4.0967,4.0823,0.0,0.0,0.0,0.0,0.0,5.2672,5.3416,5.5209,5.6393,5.7036,5.7036,5.7374,5.7881,5.7881,5.7881,5.7712,5.6562,5.6089,5.5818,5.5074,5.4735,5.4465,5.389,5.3619,5.3518,5.3518,5.3518,5.3518,5.3518,5.3518,5.3518,5.3518,5.3518,5.3518,5.3518,5.2875,5.1285,4.7902,4.506,0.0,0.0,0.0,0.0,0.0,0.0,0.0,0.0,0.0,0.0,0.0,0.0,0.0,0.0,0.0,0.0,0.0,0.0,0.0,0.0,0.0,4.7804,5.0002,0.0,5.0811,0.0,5.3348,5.3518,5.3518,5.3518,5.3518,5.3518,5.3518,5.3518,5.3518,5.3518,5.3518,5.3518,5.3518,5.3518,5.3518,5.3518,5.3518,5.3518,0.0,0.0,0.0,0.0,0.0,0.0,0.0,5.8457,5.9776,5.9505,5.9607,5.9708,5.9708,5.9945,6.0114,6.0114,6.0114,6.008,6.0013,6.0013,5.9641,5.8829,5.8795,5.8152,5.6731,5.6697,5.5141,0.0,0.0,0.0,0.0,0.0,0.0,0.0,0.0,0.0,0.0,5.2097,5.389,5.6393,5.6596,5.7137,5.778,5.778,5.7814,5.7881,5.7881,5.7881,5.7881,5.7712,5.7239,5.6562,5.5852,5.5141,5.4566,5.4499,5.4025,5.3518,5.3518,5.3518,5.3518,5.3518,5.3518,5.3518,5.3518,5.3518,5.3518,5.3518,5.2875,5.1589,4.9221,4.7462,4.5703,0.0,0.0,0.0,0.0,0.0,0.0,0.0,0.0,0.0,0.0,0.0,0.0,0.0,0.0,0.0,0.0,0.0,0.0,4.5635,0.0,4.6465,4.621,5.0067,0.0,5.1454,5.2841,5.3518,5.3518,5.3518,5.3518,5.3518,5.3518,5.3518,5.3518,5.3518,5.3518,5.3518,5.3518,5.3518,5.3518,5.3518,5.3518,5.3518,0.0,0.0,0.0,0.0,0.0,0.0,0.0,6.025,6.0994,6.14,6.1095,6.0825,6.0825,6.1231,6.1467,6.1467,6.1467,6.1298,6.0858,6.0825,6.0486,5.9708,5.9674,5.9201,5.8152,5.8118,5.6664,0.0,0.0,0.0,0.0,0.0,0.0,0.0,0.0,5.1352,5.3145,5.4905,5.6359,5.7442,5.7442,5.7645,5.7881,5.7881,5.7881,5.7881,5.7881,5.7881,5.7881,5.7881,5.7679,5.734,5.6596,5.6156,5.575,5.4837,5.4397,5.4059,5.3619,5.3518,5.3518,5.3518,5.3518,5.3518,5.3518,5.3518,5.3518,5.3518,5.3247,5.2604,5.1251,4.9052,4.7597,0.0,0.0,0.0,0.0,0.0,0.0,0.0,0.0,0.0,0.0,0.0,0.0,0.0,0.0,0.0,0.0,0.0,0.0,4.3639,0.0,4.8176,4.7027,5.0541,5.2401,5.2604,5.3213,5.3518,5.3518,5.3518,5.3518,5.3518,5.3518,5.3518,5.3518,5.3518,5.3518,5.3518,5.3518,5.3518,5.3518,5.3518,5.3518,5.3518,5.4363,0.0,5.5006,0.0,5.7915,5.8626,6.1231,6.1637,6.1806,6.2313,6.1941,6.1637,6.1637,6.2076,6.2381,6.2381,6.2381,6.2178,6.167,6.1637,6.1264,6.0486,6.0452,0.0,5.9336,5.9336,5.822,5.5886,5.3112,0.0,0.0,0.0,0.0,0.0,5.2875,5.4194,5.4938,5.7002,5.7881,5.7881,5.7881,5.7881,5.7881,5.7881,5.7881,5.7881,5.7881,5.7881,5.7881,5.7881,5.7881,5.7814,5.7273,5.6968,5.6596,5.5547,5.4938,5.4465,5.3957,5.3687,5.3518,5.3518,5.3518,5.3518,5.3518,5.3518,5.3518,5.3518,5.3518,5.3348,5.2773,5.0777,4.9461,5.0405,0.0,0.0,0.0,0.0,0.0,0.0,4.2448,4.1204,4.2422,0.0,0.0,0.0,0.0,0.0,0.0,0.0,0.0,0.0,0.0,0.0,0.0,5.1183,5.2942,5.3518,5.3518,5.3518,5.3518,5.3518,5.3518,5.3518,5.3518,5.3518,5.3518,5.3518,5.3518,5.3518,5.3518,5.3518,5.3518,5.3518,5.3618,5.3717,5.6325,5.619,5.6867,6.0588,6.0588,6.0588,6.2144,6.2381,6.2381,6.2381,6.2381,6.2381,6.2381,6.2381,6.2381,6.2381,6.2381,6.2381,6.2381,6.2381,6.2042,0.0,0.0,6.0926,6.0114,6.008,5.9708,5.8964,0.0,0.0,5.3382,0.0,5.1657,5.4532,5.4566,5.5784,5.7848,5.7881,5.7881,5.7881,5.7881,5.7881,5.7881,5.7881,5.7881,5.7881,5.7881,5.7881,5.7881,5.7881,5.7881,5.7881,5.7881,5.7374,5.6799,5.6799,5.575,5.46,5.4566,5.4059,5.3518,5.3518,5.3518,5.3518,5.3518,5.3518,5.3518,5.3518,5.3518,5.3518,5.3484,5.2807,5.1555,4.939,0.0,0.0,0.0,0.0,0.0,0.0,4.3673,4.3166,4.5432,0.0,0.0,0.0,0.0,0.0,0.0,0.0,0.0,4.665,4.741,0.0,4.8984,5.1995,5.3484,5.3518,5.3518,5.3518,5.3518,5.3518,5.3518,5.3518,5.3518,5.3518,5.3518,5.3518,5.3518,5.3518,5.3518,5.3518,5.3518,5.3518,5.3848,5.4296,6.0486,6.0419,6.0655,6.1839,6.1839,6.1806,6.2313,6.2381,6.2381,6.2381,6.2381,6.2381,6.2381,6.2381,6.2381,0.0,6.2381,6.2381,0.0,6.2381,6.2279,6.2042,6.2042,6.167,6.0926,6.0926,6.052,5.9742,0.0,0.0,0.0,5.4262,5.4972,5.6833,5.6833,5.7239,5.7881,5.7881,5.7881,5.7881,5.7881,5.7881,5.7881,5.7881,5.7881,5.7881,5.7881,5.7881,5.7881,5.7881,5.7881,5.7881,5.7881,5.7712,5.7442,5.6934,5.6461,5.5886,5.4871,5.4431,5.4126,5.3619,5.3518,5.3518,5.3518,5.3518,5.3518,5.3518,5.3518,5.3518,5.3518,5.3281,5.2875,5.2198,0.0,0.0,0.0,0.0,0.0,0.0,4.1407,4.073,0.0,3.9876,0.0,0.0,0.0,0.0,0.0,0.0,0.0,0.0,4.8615,0.0,4.9018,5.1995,5.3518,5.3518,5.3518,5.3518,5.3518,5.3518,5.3518,5.3518,5.3518,5.3518,5.3518,5.3518,5.3518,5.3518,5.3518,5.3518,5.3518,5.3518,5.3881,5.4359,6.2381,6.2381,6.2381,6.2381,6.2381,6.2381,6.2381,6.2381,6.2381,6.2381,6.2381,6.2381,6.2381,6.2381,0.0,6.2381,6.2381,6.2381,6.2381,6.2381,6.2381,6.2381,6.2381,6.2178,6.1704,0.0,0.0,6.0554,5.8863,5.7814,5.7374,5.7374,5.7848,5.8727,5.8727,5.8727,5.8727,5.8727,5.8727,5.8693,5.8423,5.8321,5.8287,5.8017,5.7881,5.7881,5.7881,5.7881,5.7881,5.7881,5.7881,5.7881,5.7881,5.7881,5.7814,5.734,5.7036,5.6596,5.5683,5.5006,5.4465,5.4025,5.3687,5.3518,5.3518,5.3518,5.3518,5.3518,5.3518,5.3518,5.3518,5.3518,5.3518,5.3518,0.0,5.2367,5.1217,0.0,0.0,0.0,0.0,0.0,0.0,4.2375,0.0,0.0,0.0,0.0,0.0,0.0,0.0,4.6718,5.0371,0.0,5.071,5.257,5.3518,5.3518,5.3518,5.3518,5.3518,5.3518,5.3518,5.3518,5.3518,5.3518,5.3518,5.3518,5.3518,5.3518,5.3518,5.3651,5.3849,5.3849,5.4394,5.5064,6.2381,6.2381,0.0,0.0,6.2381,0.0,6.2381,6.2381,6.2381,6.2381,6.2381,6.2381,6.2381,6.2381,6.2381,6.2381,0.0,0.0,0.0,6.2381,6.2381,6.2381,6.2381,6.2381,6.2381,6.2381,6.2042,6.1366,6.0622,6.0216,6.0182,6.0182,6.0148,6.0114,6.0114,6.0114,6.0114,6.0114,6.0114,6.0047,5.937,5.9099,5.8998,5.8254,5.7983,5.7949,5.7915,5.7881,5.7881,5.7881,5.7881,5.7881,5.7881,5.7881,5.7881,5.7881,5.7408,5.6867,5.6799,5.5784,5.4735,5.4634,5.4059,5.3518,5.3518,5.3518,5.3518,5.3518,5.3518,5.3518,5.3518,5.3518,5.3518,5.3518,5.3382,5.2266,4.9458,0.0,0.0,0.0,0.0,0.0,0.0,4.7906,4.8751,0.0,0.0,0.0,0.0,0.0,4.6413,5.2131,5.2367,5.2739,5.3484,5.3518,5.3518,5.3518,5.3518,5.3518,5.3518,5.3518,5.3518,5.3518,5.3518,5.3518,5.3518,5.3518,5.3518,5.3518,5.3518,5.3848,5.4391,5.4391,5.5219,5.6229,0.0,0.0,6.2381,6.2381,6.2381,6.2381,6.2381,6.2381,6.2381,6.2381,6.2381,6.2381,6.2381,6.2381,6.2381,6.2381,6.2381,6.2381,6.2381,6.2381,6.2381,6.2381,6.2381,6.2381,6.2381,6.2381,6.2313,6.2144,6.1941,6.1569,6.1028,6.1028,6.0689,6.0114,6.0114,6.0114,6.0114,6.0114,6.0114,6.008,5.9911,5.9844,5.9776,5.9032,5.8761,5.8693,5.8084,5.7881,5.7881,5.7881,5.7881,5.7881,5.7881,5.7881,5.7881,5.7881,5.778,5.7509,5.6934,5.6562,5.6021,5.4871,5.4059,5.3518,5.3518,5.3518,5.3518,5.3518,5.3518,5.3518,5.3518,5.3518,5.3518,5.3518,5.2029,5.0642,4.9932,4.8376,0.0,0.0,4.5432,4.6109,4.7736,4.7906,4.8108,0.0,0.0,0.0,0.0,0.0,4.912,5.2198,5.2909,5.3315,5.3518,5.3518,5.3518,5.3518,5.3518,5.3518,5.3518,5.3518,5.3518,5.3518,5.3518,5.3518,5.3518,5.3518,5.3518,5.3518,5.3518,5.3848,5.4391,5.4391,5.5219,5.6284,6.2381,6.2381,6.2381,6.2381,6.2381,6.2381,6.2381,6.2381,6.2381,6.2381,6.2381,6.2381,6.2381,6.2381,6.2381,6.2381,6.2381,6.2381,6.2381,6.2381,6.2381,6.2381,6.2381,6.2381,6.2381,6.2381,6.2381,6.2381,6.2381,6.2178,6.1806,6.1806,6.1569,6.1129,6.1129,6.1129,6.1129,6.1129,6.1129,6.1129,6.0791,6.0655,6.0554,5.981,5.9505,5.9404,5.866,5.8389,5.8355,5.8017,5.7881,5.7881,5.7881,5.7881,5.7881,5.7881,5.7881,5.7814,5.7408,5.707,5.6461,5.4972,5.4296,5.3923,5.3585,5.3518,5.3518,5.3518,5.3518,5.3518,5.3518,5.3518,5.3518,5.3518,5.1589,5.0101,5.0101,4.8173,0.0,4.7631,4.7699,4.8443,5.0304,5.0473,5.0473,5.0473,0.0,0.0,5.1048,5.1048,5.1623,5.2807,5.3281,5.3518,5.3518,5.3518,5.3518,5.3518,5.3518,5.3518,5.3518,5.3518,5.3518,5.3518,5.3518,5.3518,5.3518,5.3518,5.3518,5.3551,5.3816,5.4299,5.4887,5.5189,5.5887,5.6688,6.2381,6.2381,6.2381,6.2381,6.2381,6.2381,6.2381,6.2381,6.2381,6.2381,6.2381,6.2381,6.2381,6.2381,6.2381,6.2381,6.2381,6.2381,6.2381,6.2381,6.2381,6.2381,6.2381,6.2381,6.2381,6.2381,6.2381,6.2381,6.2381,6.2381,6.2381,6.2381,6.2381,6.2381,6.2381,6.2381,6.2381,6.2381,6.2381,6.2347,6.1704,6.1467,6.1366,6.0588,6.0283,6.0182,5.9438,5.9167,5.9066,5.8321,5.8051,5.8051,5.7915,5.7881,5.7881,5.7881,5.7881,5.7881,5.7881,5.734,5.6494,5.5243,5.4769,5.4431,5.3822,5.3585,5.3518,5.3518,5.3518,5.3518,5.3518,5.3518,5.3382,5.3044,5.1082,4.9593,4.9593,0.0,4.7597,4.983,5.0405,5.1352,5.3315,5.3518,5.3518,5.3518,5.3518,0.0,0.0,5.3518,5.3518,5.3518,5.3518,5.3518,5.3518,5.3518,5.3518,5.3518,5.3518,5.3518,5.3518,5.3518,5.3518,5.3518,5.3518,5.3551,5.3651,5.3651,5.3718,5.3816,5.4362,5.4948,5.5607,5.6118,5.6661,5.7188,6.2381,6.2381,6.2381,6.2381,6.2381,6.2381,6.2381,6.2381,6.2381,6.2381,6.2381,6.2381,6.2381,6.2381,6.2381,6.2381,6.2381,6.2381,6.2381,6.2381,6.2381,6.2381,6.2381,6.2381,6.2381,6.2381,6.2381,6.2381,6.2381,6.2381,6.2381,6.2381,6.2381,6.2381,6.2381,6.2381,6.2381,6.2381,6.2381,6.2381,6.2279,6.2212,6.2144,6.14,6.1129,6.1028,6.0216,5.9945,5.981,5.9099,5.8829,5.8727,5.8084,5.7881,5.7881,5.7881,5.7881,5.7881,5.7881,5.734,5.6765,5.6528,5.5513,5.4566,5.4465,5.3957,5.3518,5.3518,5.3518,5.3518,5.3518,5.3518,5.2875,5.0947,4.8748,4.7293,4.7293,0.0,4.7597,4.983,5.1792,5.3112,5.3484,5.3518,5.3518,5.3518,5.3518,5.3518,5.3518,5.3518,5.3518,5.3518,5.3518,5.3518,5.3518,5.3518,5.3518,5.3518,5.3518,5.3518,5.3518,5.3518,5.3518,5.3518,5.3518,5.3783,5.4267,5.4267,5.4579,5.5134,5.5224,5.5601,5.6174,5.6257,5.6661,5.7188,6.2381,6.2381,6.2381,6.2381,6.2381,6.2381,6.2381,6.2381,6.2381,6.2381,6.2381,6.2381,6.2381,6.2381,6.2381,6.2381,6.2381,6.2381,6.2381,6.2381,6.2381,6.2381,6.2381,6.2381,6.2381,6.2381,6.2381,6.2381,6.2381,6.2381,6.2381,6.2381,6.2381,6.2381,6.2381,6.2381,6.2381,6.2381,6.2381,6.2381,6.2381,6.2381,6.2347,6.2009,6.1873,6.1772,6.1028,6.0757,6.0622,5.9844,5.9336,5.8964,5.8592,5.822,5.7881,5.7881,5.7881,5.7881,5.7881,5.7645,5.7306,5.69,5.6292,5.5581,5.4769,5.4329,5.3991,5.3585,5.3518,5.3518,5.3518,5.3518,5.2739,5.0473,4.9221,0.0,0.0,4.8578,4.939,5.1657,5.2875,5.3518,5.3518,5.3518,5.3518,5.3518,5.3518,5.3518,5.3518,5.3518,5.3518,5.3518,5.3518,5.3518,5.3518,5.3518,5.3518,5.3518,5.3849,5.3979,5.4011,5.4365,5.4333,5.3979,5.3979,5.4139,5.4391,5.4391,5.4795,5.5432,5.578,5.6063,5.6339,5.6661,5.6984,5.7188,6.2381,6.2381,6.2381,6.2381,6.2381,6.2381,6.2381,6.2381,6.2381,6.2381,6.2381,6.2381,6.2381,6.2381,6.2381,6.2381,6.2381,6.2381,6.2381,6.2381,6.2381,6.2381,6.242,6.242,6.2381,6.242,6.242,6.2381,6.2381,6.2381,6.2381,6.2381,6.2381,6.2381,6.2381,6.2381,6.2381,6.2381,6.2381,6.2381,6.2381,6.2381,6.2381,6.2381,6.2381,6.2313,6.1772,6.1569,6.1434,6.0655,6.0013,5.9471,5.9133,5.8626,5.8118,5.7949,5.7881,5.7881,5.7881,5.7881,5.7746,5.7205,5.6934,5.6494,5.5378,5.4837,5.4431,5.3856,5.3619,5.3518,5.3518,5.3518,5.2739,5.0473,0.0,0.0,0.0,5.0101,5.0947,5.3247,5.3518,5.3518,5.3518,5.3518,5.3518,5.3518,5.3518,5.3518,5.3518,5.3518,5.3518,5.3518,5.3518,5.3518,5.3518,5.3518,5.3551,5.3717,5.4171,5.4485,5.4641,5.5194,5.5099,5.4641,5.4485,5.4579,5.4857,5.4703,5.5099,5.5858,5.6339,5.6501,5.6555,5.7036,5.7188,5.7188,6.2381,6.2381,6.2381,6.2381,6.2381,6.2381,6.2381,6.2381,6.2381,6.2381,6.2381,6.2381,6.2381,6.2381,6.2381,6.2381,6.2381,6.2381,6.2381,6.2381,6.2381,6.2381,6.2576,6.2576,6.2381,6.2576,6.2576,6.2381,6.2381,6.2381,6.2381,6.2381,6.2381,6.2381,6.2381,6.2381,6.2381,6.2381,6.2381,6.2381,6.2381,6.2381,6.2381,6.2381,6.2381,6.2381,6.2347,6.2313,6.2212,6.1467,6.1197,6.0892,5.9471,5.8964,5.8795,5.8084,5.7881,5.7881,5.7881,5.7881,5.7881,5.7814,5.7306,5.6765,5.6664,5.5581,5.4566,5.4532,5.3991,5.3518,5.3518,5.3518,5.2739,5.0473,0.0,0.0,5.0101,5.0101,5.0947,5.3247,5.3518,5.3518,5.3518,5.3518,5.3518,5.3518,5.3518,5.3518,5.3518,5.3518,5.3518,5.3518,5.3518,5.3518,5.3518,5.3518,5.3783,5.4328,5.4391,5.4734,5.5343,5.5402,5.5373,5.5313,5.4672,5.5064,5.6118,5.5543,5.5999,5.7087,5.7112,5.7138,5.7138,5.7163,5.7188,5.7188,6.2381,6.2381,6.2381,6.2381,6.2381,6.2381,6.2381,6.2381,6.2381,6.2381,6.2381,6.2381,6.2381,6.2381,6.2381,6.2381,6.2381,6.2381,6.2381,6.2498,6.2576,6.2576,6.277,6.2847,6.277,6.2731,6.2654,6.2576,6.2459,6.2381,6.2381,6.2381,6.2381,6.2381,6.2381,6.2381,6.2381,6.2381,6.2381,6.2381,6.2381,6.2381,6.2381,6.2381,6.2381,6.2381,6.2381,6.2381,6.2347,6.2076,6.167,6.1197,6.0622,5.9776,5.8863,5.8118,5.7881,5.7881,5.7881,5.7881,5.7881,5.7881,5.7679,5.734,5.69,5.6359,5.5683,5.4769,5.4363,5.4025,5.3585,5.3518,5.2739,5.0473,0.0,5.1725,5.0304,5.1319,5.2536,5.3416,5.3518,5.3518,5.3518,5.3518,5.3518,5.3518,5.3518,5.3518,5.3518,5.3518,5.3518,5.3518,5.3518,5.3518,5.3518,5.3848,5.4171,5.4422,5.5184,5.5716,5.5978,5.6366,5.6311,5.595,5.5687,5.5858,5.6284,5.6063,5.6447,5.7188,5.7188,5.7188,5.7188,5.7188,5.7188,5.7188,6.2381,6.2381,6.2381,6.2381,6.2381,6.2381,6.2381,6.2381,6.2381,6.2381,6.2459,6.2459,6.2381,6.2459,6.2459,6.2381,6.2459,6.2498,6.2498,6.2731,6.2847,6.277,6.3,6.3076,6.3,6.2923,6.2847,6.277,6.2654,6.2537,6.2498,6.2498,6.2459,6.2381,6.2381,6.2381,6.2381,6.2381,6.2381,6.2381,6.2381,6.2381,6.2381,6.2381,6.2381,6.2381,6.2381,6.2381,6.2381,6.2381,6.2042,6.1603,6.1366,6.025,5.893,5.8389,5.8084,5.7881,5.7881,5.7881,5.7881,5.7881,5.7881,5.7746,5.7273,5.6968,5.6528,5.548,5.5108,5.4735,5.3991,5.3856,5.3247,5.1454,5.2469,5.2942,5.1386,5.2503,5.3518,5.3518,5.3518,5.3518,5.3518,5.3518,5.3518,5.3518,5.3518,5.3518,5.3518,5.3685,5.3684,5.3518,5.3518,5.3518,5.3518,5.4074,5.4516,5.4699,5.5773,5.6393,5.6582,5.701,5.6984,5.6555,5.6366,5.6393,5.6555,5.6366,5.6635,5.7188,5.7188,5.7188,5.7188,5.7188,5.7188,5.7188,6.2381,6.2381,6.2381,6.2381,6.2381,6.2381,6.2381,6.2381,6.2381,6.2381,6.261,6.2615,6.242,6.2576,6.2615,6.242,6.2576,6.2693,6.2693,6.3076,6.3189,6.3038,6.3189,6.3189,6.3038,6.3189,6.3189,6.3,6.3,6.2885,6.2727,6.2727,6.2576,6.2381,6.2381,6.2381,6.2381,6.2381,6.2381,6.2381,6.2381,6.2381,6.2381,6.2381,6.2381,6.2381,6.2381,6.2381,6.2381,6.2381,6.2381,6.2279,6.1535,6.025,5.9032,5.9032,5.849,5.7915,5.7915,5.7881,5.7881,5.7881,5.7881,5.7881,5.7881,5.734,5.6799,5.6799,5.6224,5.548,5.4735,5.46,5.4363,5.3619,5.3518,5.3518,5.3518,5.3518,5.3518,5.3518,5.3518,5.3518,5.3518,5.3518,5.3518,5.3518,5.3518,5.3518,5.3518,5.4074,5.4139,5.3551,5.3518,5.3518,5.3518,5.4106,5.4699,5.5297,5.5971,5.6608,5.7188,5.7188,5.7188,5.7163,5.6555,5.6635,5.7138,5.6555,5.6661,5.7188,5.7188,5.7188,5.7188,5.7188,5.7188,5.7188,6.2381,6.2381,6.2381,6.2381,6.2381,6.2381,6.2381,6.2381,6.2381,6.2381,6.261,6.2688,6.2649,6.277,6.2885,6.2847,6.2885,6.2962,6.3114,6.3227,6.334,6.3414,6.3489,6.3489,6.3414,6.334,6.3265,6.3189,6.3076,6.2962,6.2923,6.277,6.2688,6.2576,6.2459,6.2381,6.2381,6.2381,6.2381,6.2381,6.2381,6.2381,6.2381,6.2381,6.2498,6.2576,6.2576,6.2693,6.2808,6.2808,6.2808,6.2672,6.1771,6.1075,6.052,5.9945,5.9268,5.8693,5.8693,5.8287,5.7881,5.7881,5.7881,5.7881,5.7881,5.7712,5.7408,5.69,5.663,5.6258,5.5513,5.5378,5.5141,5.4397,5.4262,5.4093,5.3585,5.3518,5.3518,5.3518,5.3518,5.3518,5.3518,5.3518,5.3518,5.3518,5.3881,5.4139,5.4139,5.4734,5.4795,5.4139,5.4139,5.3913,5.3518,5.4551,5.5189,5.5396,5.6412,5.7036,5.7188,5.7188,5.7188,5.7188,5.701,5.7036,5.7188,5.701,5.7036,5.7188,5.7188,5.7188,5.7188,5.7188,5.7188,5.7261,6.2381,6.2381,6.2381,6.2381,6.2381,6.2381,6.2381,6.2381,6.2381,6.2381,6.2654,6.277,6.2727,6.2962,6.3076,6.3,6.3076,6.3189,6.3414,6.3414,6.3489,6.36,6.36,6.36,6.36,6.3489,6.3414,6.3414,6.3302,6.3189,6.3114,6.3,6.2885,6.2808,6.2693,6.2654,6.2654,6.2654,6.2654,6.2654,6.2654,6.2654,6.2654,6.2654,6.2693,6.2808,6.2808,6.2885,6.3,6.3,6.3,6.2893,6.2225,6.1766,6.1312,6.0761,6.0047,5.937,5.9099,5.873,5.8363,5.7986,5.7881,5.7881,5.7881,5.7881,5.7746,5.734,5.7239,5.7002,5.6292,5.6156,5.5886,5.5141,5.504,5.4871,5.4431,5.4126,5.3923,5.3923,5.3687,5.3518,5.3518,5.3717,5.3946,5.4237,5.4582,5.4795,5.4795,5.5396,5.5455,5.4826,5.4795,5.4645,5.4237,5.5254,5.5601,5.5367,5.6357,5.6984,5.7188,5.7188,5.7188,5.7188,5.7188,5.7188,5.7188,5.7188,5.7188,5.7188,5.7188,5.7188,5.7188,5.7188,5.7188,5.7333,6.2381,6.2381,6.2381,6.2381,6.2381,6.2381,6.2381,6.2381,6.2381,6.242,6.277,6.2923,6.277,6.3076,6.3265,6.3076,6.3227,6.3414,6.36,6.36,6.36,6.36,6.36,6.36,6.36,6.36,6.36,6.36,6.36,6.3526,6.3302,6.3302,6.3189,6.3038,6.3,6.3,6.3,6.3,6.3,6.3,6.3,6.3,6.3,6.3,6.3038,6.3038,6.3038,6.3038,6.3076,6.3076,6.3038,6.3,6.2808,6.2289,6.1635,6.1477,6.0863,6.0084,5.9404,5.9315,5.9188,5.8296,5.8056,5.8056,5.7918,5.7918,5.7918,5.7881,5.7881,5.7715,5.7074,5.7008,5.6737,5.6025,5.5923,5.5854,5.5751,5.5108,5.4702,5.4702,5.4126,5.3721,5.3721,5.4181,5.4776,5.5443,5.5496,5.549,5.549,5.6063,5.6118,5.5519,5.549,5.5461,5.5402,5.595,5.5943,5.542,5.6055,5.6661,5.7188,5.7188,5.7188,5.7188,5.7188,5.7188,5.7188,5.7188,5.7188,5.7188,5.7188,5.7188,5.7188,5.7188,5.7261,5.7442,6.2381,6.2381,6.2381,6.2381,6.2381,6.2381,6.2381,6.2381,6.2459,6.2615,6.2847,6.3038,6.3152,6.3377,6.3526,6.3489,6.3526,6.3563,6.36,6.36,6.36,6.36,6.36,6.36,6.36,6.36,6.36,6.36,6.36,6.36,6.3526,6.3377,6.3265,6.3227,6.3076,6.3,6.3,6.3,6.3,6.3,6.3,6.3,6.3,6.3,6.3114,6.3227,6.3227,6.334,6.3489,6.3489,6.3377,6.3227,6.3189,6.2821,6.2455,6.2377,6.1834,6.1261,6.1091,6.0765,6.0264,5.9441,5.9236,5.8994,5.809,5.8027,5.8063,5.7918,5.7881,5.7995,5.8358,5.8428,5.8256,5.7668,5.743,5.7021,5.6064,5.5652,5.548,5.548,5.5344,5.5243,5.5243,5.5276,5.5542,5.6215,5.6184,5.6118,5.6118,5.6661,5.6714,5.6118,5.6118,5.5894,5.5402,5.5549,5.578,5.6083,5.6714,5.7087,5.7188,5.7188,5.7188,5.7188,5.7188,5.7188,5.7188,5.7188,5.7188,5.7188,5.7188,5.7188,5.7188,5.7188,5.7587,5.8373,6.2381,6.2381,6.2381,6.2381,6.2381,6.2381,6.2381,6.2381,6.2459,6.2654,6.2885,6.3076,6.3265,6.3489,6.36,6.36,6.36,6.36,6.36,6.36,6.36,6.36,6.36,6.36,6.36,6.36,6.36,6.36,6.36,6.36,6.36,6.3489,6.3452,6.3452,6.334,6.3302,6.3302,6.3302,6.3302,6.3302,6.3302,6.3302,6.3302,6.3302,6.334,6.3452,6.3452,6.3526,6.36,6.36,6.3526,6.3414,6.334,6.3152,6.2962,6.2847,6.2806,6.2695,6.235,6.2298,6.2161,6.0946,6.0774,6.0393,5.8588,5.8277,5.8312,5.8063,5.828,5.8598,5.8875,5.9214,5.934,5.9152,5.8757,5.8252,5.7704,5.6918,5.6505,5.6816,5.644,5.6403,5.7057,5.677,5.6961,5.7904,5.7632,5.7556,5.7864,5.8192,5.8218,5.7891,5.7864,5.7729,5.739,5.739,5.7556,5.7864,5.71,5.6933,5.7188,5.7188,5.7188,5.7188,5.7188,5.7188,5.7188,5.7188,5.7188,5.7188,5.7188,5.7188,5.7261,5.7623,5.858,5.9756,6.2381,6.2381,6.2381,6.2381,6.2381,6.2381,6.2381,6.2381,6.2459,6.2693,6.2885,6.3076,6.334,6.3489,6.36,6.36,6.36,6.36,6.36,6.36,6.36,6.36,6.36,6.36,6.36,6.36,6.36,6.36,6.36,6.36,6.36,6.36,6.36,6.36,6.36,6.36,6.36,6.36,6.36,6.36,6.36,6.36,6.36,6.36,6.36,6.36,6.36,6.3675,6.3749,6.3637,6.3675,6.3712,6.3452,6.334,6.3265,6.3114,6.3533,6.3902,6.3311,6.3751,6.4099,6.2635,6.2492,6.2108,5.984,5.9116,5.8803,5.8455,5.8909,5.9347,5.9313,5.9771,6.0282,6.0401,5.9963,5.9576,5.9609,5.8493,5.7878,5.8411,5.7723,5.7758,5.8966,5.8444,5.8549,5.9717,5.9185,5.9059,5.9589,5.9615,5.9615,5.9615,5.9615,5.9615,5.9615,5.9615,5.9615,5.9552,5.7729,5.7145,5.7623,5.7623,5.7623,5.7587,5.7442,5.7431,5.7431,5.7286,5.7239,5.7275,5.7395,5.7431,5.7565,5.8507,5.9808,6.1101,6.2381,6.2381,6.2381,6.2381,6.2381,6.2381,6.2381,6.2381,6.2537,6.2923,6.3,6.3152,6.3526,6.36,6.36,6.36,6.36,6.36,6.36,6.36,6.36,6.36,6.36,6.36,6.36,6.36,6.36,6.36,6.36,6.36,6.36,6.36,6.36,6.36,6.36,6.36,6.36,6.36,6.36,6.36,6.36,6.36,6.36,6.36,6.36,6.36,6.36,6.3967,6.4393,6.3785,6.4003,6.4358,6.3749,6.3452,6.3265,6.3265,6.375,6.4253,6.4148,6.4729,6.5237,6.4357,6.4179,6.393,6.2982,6.1639,6.0317,5.9286,5.9611,6.0215,6.0802,6.098,6.1127,6.1479,6.1272,6.0974,6.0585,6.0203,5.9945,5.9917,5.9721,5.9839,6.0606,5.9971,5.981,6.0575,5.9897,5.95,5.9615,5.9615,5.9615,5.9615,5.9615,5.9615,5.9615,5.9615,5.9615,5.9615,5.9319,5.921,5.9289,5.9289,5.9289,5.9253,5.8528,5.829,5.838,5.7654,5.7363,5.7436,5.8162,5.8417,5.8598,6.0216,6.1036,6.1455,6.2381,6.2381,6.2381,6.2381,6.2381,6.2381,6.2381,6.2381,6.2498,6.277,6.2923,6.3114,6.3414,6.3526,6.36,6.36,6.36,6.36,6.36,6.36,6.36,6.36,6.36,6.36,6.36,6.36,6.36,6.36,6.36,6.36,6.36,6.36,6.36,6.36,6.36,6.36,6.36,6.36,6.36,6.36,6.36,6.36,6.36,6.36,6.36,6.3673,6.4039,6.4358,6.4601,6.4703,6.4905,6.5039,6.4393,6.4076,6.4004,6.4004,6.4497,6.5138,6.5529,6.6186,6.6598,6.5911,6.5749,6.5442,6.4281,6.3693,6.3044,6.1662,6.1543,6.1741,6.1946,6.1909,6.196,6.2176,6.1842,6.15,6.1386,6.0915,6.0646,6.0826,6.1068,6.1336,6.1656,6.1284,6.116,6.1471,6.1136,6.0955,6.0955,6.1035,6.1026,6.1026,6.1105,6.1105,6.1026,6.1026,6.1035,6.0955,6.0955,6.0484,5.9615,5.9615,5.9615,5.9579,5.9216,5.9149,5.9241,5.8903,5.8783,5.8894,5.9258,5.9659,6.0169,6.0912,6.1587,6.2128]}]]